GFSWCAN_sfc_wetblb_000.txt.gz
Wetbulb
49.52 49.46 49.30 49.43 49.55 49.79 49.51 49.41 49.23 49.32 49.36 50.07 50.37 51.76 52.55 52.83 52.26 51.36 51.81 52.28 47.80 46.29 48.41 48.40 48.70 48.35 49.63 49.94 47.04 50.47 50.91 54.59 54.80 52.26 51.87 52.45 51.87 54.24 52.91 54.72 54.18 53.88 52.59 51.68 52.73 50.59 48.45 59.12 57.40 54.56 60.10 61.41 60.57 61.25
49.44 49.37 49.40 49.46 49.52 49.60 49.52 49.37 49.58 49.52 49.32 49.81 50.20 51.04 51.84 52.28 52.22 51.40 49.83 52.62 52.12 47.31 47.93 50.83 50.81 51.34 50.80 50.29 48.90 50.00 48.98 51.81 51.79 51.33 54.41 54.34 52.05 54.95 53.42 50.14 55.60 51.81 55.74 54.04 54.59 54.93 59.99 59.96 59.44 61.30 61.89 61.24 62.38 63.02
49.33 49.24 49.45 49.19 49.40 49.42 49.55 49.50 49.82 49.88 49.47 49.45 50.07 50.49 51.57 52.14 51.84 50.82 50.08 51.36 50.68 48.25 48.83 48.29 49.03 51.92 54.21 52.51 52.40 47.96 51.43 52.42 52.08 52.80 51.96 53.41 52.06 55.59 50.52 51.32 53.58 55.01 56.66 54.53 54.55 57.91 57.51 57.93 59.67 61.29 62.14 62.01 62.93 63.33
49.35 49.40 49.26 49.40 49.41 49.32 49.64 49.57 49.59 49.93 49.71 49.19 49.88 50.20 51.49 52.10 51.81 51.21 50.07 51.78 49.95 47.94 44.00 46.08 51.17 48.92 52.10 52.94 51.95 52.71 51.57 53.37 53.14 53.49 53.27 52.92 51.38 53.31 54.87 53.99 53.63 55.72 55.98 54.41 55.05 57.09 57.10 58.65 59.64 59.72 60.52 61.57 61.69 62.73
48.74 49.01 49.33 49.23 49.44 49.56 49.71 49.51 49.64 49.53 49.89 49.35 49.80 49.92 51.13 51.83 51.65 50.97 52.23 53.08 52.41 46.79 43.70 46.36 49.59 50.95 51.96 51.59 51.30 52.07 51.54 50.64 51.30 50.68 51.19 52.10 54.18 53.16 55.15 53.35 52.95 56.79 54.94 53.19 52.07 55.16 55.70 56.86 57.47 59.32 59.41 60.62 61.21 62.14
48.71 48.61 48.91 48.98 49.00 49.34 49.78 49.89 49.51 49.49 49.89 49.26 49.71 49.82 50.89 51.66 50.34 50.05 45.84 51.45 54.01 51.15 46.11 44.04 49.45 49.00 51.67 52.24 50.58 50.36 51.28 50.49 50.91 49.74 50.39 51.96 51.79 50.49 49.34 49.12 54.33 55.45 55.21 56.38 55.01 55.69 56.05 56.80 57.73 59.03 58.80 59.96 60.65 61.47
48.75 48.68 48.59 48.90 49.00 49.30 49.43 49.85 49.92 49.56 49.44 49.10 49.38 49.79 50.57 51.65 50.95 47.17 46.10 49.79 50.46 51.88 46.16 44.12 44.99 49.54 50.60 51.26 51.59 50.91 50.72 49.74 49.58 50.46 48.21 48.32 50.18 49.64 47.22 45.30 50.47 51.51 55.12 56.35 55.47 54.40 53.17 54.93 54.15 56.33 56.87 58.90 60.43 61.16
48.72 48.78 48.79 48.89 49.03 49.26 49.38 49.51 49.42 49.65 49.43 49.08 49.52 49.91 50.75 51.59 50.34 47.97 51.47 50.44 50.90 48.38 47.87 43.06 44.43 45.70 49.63 49.36 49.09 53.33 49.28 48.99 48.33 48.02 49.72 46.75 49.34 48.71 44.36 49.04 50.93 51.68 51.95 52.06 52.55 53.54 53.63 54.93 55.22 54.92 56.47 57.36 57.79 59.36
49.03 48.93 48.69 48.71 48.33 48.83 48.99 49.48 49.75 49.53 49.54 49.22 49.63 50.03 51.00 49.11 47.30 49.28 50.03 49.65 52.82 48.62 43.95 44.85 42.69 41.76 49.25 48.88 49.01 49.17 51.82 46.16 50.20 45.79 46.80 48.69 46.46 44.60 47.82 49.40 50.61 51.33 51.63 52.38 53.84 54.36 54.62 54.41 54.70 55.36 55.47 55.71 56.38 57.60
49.06 48.93 48.65 48.72 48.64 48.64 48.86 49.26 49.55 49.77 49.41 49.32 49.85 47.45 44.04 48.67 48.49 50.61 49.53 46.95 46.50 47.14 46.65 42.79 46.64 42.33 45.52 48.02 45.46 45.78 47.20 47.58 45.96 48.95 52.34 45.93 45.60 50.42 51.43 52.32 53.18 53.36 54.40 54.40 52.76 53.09 54.22 54.62 55.14 55.83 55.53 55.59 57.13 58.01
48.43 48.61 48.63 48.25 48.55 48.47 49.18 49.52 49.52 49.46 48.94 48.79 43.96 43.72 48.88 49.25 49.33 47.55 41.04 41.53 43.71 40.46 44.58 46.21 44.93 44.55 48.70 44.19 45.77 48.07 46.05 48.47 42.58 47.14 46.64 46.11 45.94 50.17 53.06 53.39 56.05 55.46 56.55 56.55 56.07 56.41 57.22 57.02 56.48 56.55 56.50 56.21 57.30 58.10
48.48 48.48 48.77 48.42 48.69 49.09 49.17 49.35 49.41 48.40 48.42 48.17 49.26 50.85 51.04 47.24 44.26 37.98 38.98 41.57 39.75 40.26 43.91 44.15 45.17 48.35 48.16 50.30 46.94 48.40 44.35 46.66 39.38 48.77 45.42 43.03 49.36 53.35 53.60 53.85 54.32 55.15 55.02 54.51 55.03 54.44 55.81 57.56 58.87 58.42 57.66 57.42 58.90 61.22
48.24 48.36 48.51 48.86 49.11 49.00 49.16 49.80 49.25 49.45 49.88 48.89 46.10 43.49 43.68 39.01 33.06 31.85 31.50 35.91 39.11 42.48 44.66 45.44 43.24 47.99 47.69 48.59 47.91 46.61 40.35 41.37 48.00 42.76 41.81 45.78 52.40 53.47 53.23 53.55 53.25 54.22 53.99 54.42 54.56 55.87 56.87 57.57 58.37 57.90 58.18 60.51 60.94 59.98
47.56 47.72 47.82 48.32 49.13 49.37 49.43 49.44 49.25 49.43 48.09 42.07 37.50 33.05 35.54 32.50 35.47 39.06 40.60 42.92 43.59 46.10 44.96 46.03 45.68 46.10 49.11 45.03 47.30 39.74 45.92 44.96 39.05 37.81 40.09 47.96 52.02 52.55 53.03 53.56 53.36 52.98 53.87 54.71 56.19 57.32 57.78 57.23 57.74 59.75 60.44 60.16 58.78 58.23
48.25 48.01 47.79 48.08 49.03 49.40 49.29 48.94 48.84 49.98 42.28 38.28 38.06 33.62 36.44 43.02 44.85 45.77 46.16 44.92 46.73 48.20 47.22 45.48 47.32 46.75 45.73 43.19 45.51 43.08 39.31 36.46 40.11 41.51 45.81 49.40 50.30 50.54 50.83 51.64 53.18 53.17 53.89 55.75 57.73 57.61 57.76 58.52 58.65 58.77 59.27 59.16 58.96 57.64
48.24 47.85 48.24 49.09 49.41 49.08 48.55 48.80 48.81 48.39 43.26 39.65 38.90 37.72 42.81 41.02 41.37 42.48 43.84 43.76 47.30 48.48 50.20 48.97 44.16 41.06 40.06 43.19 38.89 38.05 37.57 37.22 43.26 43.71 44.06 45.32 46.50 48.76 47.53 49.22 52.84 53.14 53.62 54.32 56.17 57.70 58.45 58.06 57.85 57.89 57.36 58.50 58.38 57.35
48.58 45.91 47.36 48.26 49.09 48.81 48.55 47.49 46.65 41.69 39.16 37.03 39.63 43.78 43.27 43.05 43.58 43.34 45.13 45.18 49.57 47.23 43.42 45.15 38.33 37.26 43.42 40.02 37.96 43.17 40.49 42.18 43.68 44.59 46.14 47.17 47.64 49.96 51.09 50.97 52.07 53.32 55.43 56.44 57.42 57.54 58.12 58.89 59.05 58.32 57.45 58.53 58.38 58.43
47.86 48.86 49.05 49.03 49.29 48.27 48.42 48.87 43.81 39.96 36.07 40.59 40.53 43.48 44.26 46.03 45.67 44.99 46.69 48.65 47.16 46.22 47.17 41.84 43.69 39.49 39.47 37.60 41.95 44.82 44.66 45.50 46.18 48.72 49.56 49.93 48.05 51.35 51.37 52.27 51.95 51.81 53.92 56.31 57.02 57.79 58.05 57.49 56.63 55.85 57.34 57.68 57.35 57.17
48.41 49.13 49.10 49.12 49.41 48.04 42.98 43.94 45.19 38.87 40.50 44.44 43.92 45.65 45.73 45.99 46.85 48.23 48.48 48.86 49.77 50.29 48.64 42.79 40.25 38.50 41.62 45.62 43.69 44.38 45.47 47.02 47.69 50.13 51.45 52.09 51.02 52.59 51.07 51.20 51.36 51.11 54.74 56.06 55.69 54.82 55.34 56.23 56.10 56.83 57.32 57.40 55.48 56.08
49.47 49.15 49.04 49.19 49.21 46.99 41.43 42.82 47.97 42.50 40.81 42.52 45.28 44.52 44.94 45.75 47.20 46.54 46.56 46.94 46.91 45.66 43.61 41.84 42.10 45.10 44.87 48.02 50.02 48.53 49.48 51.58 51.26 50.63 50.42 51.76 50.26 53.92 53.88 53.84 53.60 55.14 54.68 55.17 55.10 51.30 55.42 56.18 57.02 57.20 56.15 55.74 55.86 55.12
48.47 48.85 48.90 49.59 49.47 48.19 45.53 44.74 42.88 44.88 43.71 42.00 44.34 44.74 43.22 46.23 45.18 45.07 44.71 48.45 44.35 44.15 43.07 45.63 46.66 49.06 50.92 51.32 51.90 53.12 53.80 54.23 53.37 52.91 50.91 50.23 51.61 52.18 53.27 53.74 54.06 53.78 53.10 53.07 52.63 52.64 51.60 53.10 54.45 55.22 55.01 54.66 56.67 56.00
48.81 48.93 48.15 47.52 43.26 43.20 42.64 46.15 44.31 43.21 40.74 40.40 40.32 43.13 42.08 42.39 43.62 44.76 47.57 44.32 43.84 45.65 47.45 47.68 48.62 48.96 49.52 51.54 54.54 55.70 56.59 56.59 56.99 54.57 48.59 49.75 52.09 51.95 51.22 52.85 52.98 52.66 52.15 53.16 53.38 52.68 52.71 54.57 54.85 55.58 54.31 53.86 51.66 55.27
48.38 47.42 45.11 44.09 38.46 36.48 36.50 43.97 38.37 39.49 36.29 38.72 42.20 39.85 41.37 42.40 44.15 47.06 40.50 43.18 44.09 49.25 49.14 48.44 49.61 51.62 52.26 55.23 56.21 56.73 56.69 55.45 55.19 53.92 55.20 53.28 53.58 55.20 54.14 54.65 54.45 52.93 52.15 52.35 54.73 53.45 53.22 46.10 51.42 52.78 54.11 53.80 53.27 53.18
48.82 44.18 39.10 37.09 37.32 34.77 40.01 37.19 38.91 40.30 39.32 40.33 40.25 37.78 41.01 43.30 44.82 42.58 42.83 46.70 50.38 51.88 52.52 53.67 55.46 54.87 55.58 55.06 55.52 55.53 55.97 57.18 55.48 55.98 56.37 54.05 53.38 52.86 54.36 53.41 53.46 52.98 52.99 53.25 53.11 53.20 53.34 53.15 47.82 52.76 53.10 52.71 52.45 52.03
38.16 38.87 40.29 37.16 42.67 42.77 43.28 43.97 44.73 44.44 42.16 43.62 41.49 41.30 43.65 47.77 42.93 42.75 43.55 47.28 52.64 53.35 54.41 55.33 53.84 53.03 51.20 51.94 53.19 54.74 57.48 55.24 53.10 52.36 54.22 54.38 53.54 53.38 53.26 53.68 53.52 52.93 52.69 51.33 51.08 51.63 51.96 52.71 52.57 52.21 51.99 51.88 51.31 51.18
36.60 43.78 42.03 45.11 46.34 45.02 45.92 42.93 44.28 45.09 45.50 44.28 44.84 48.28 50.41 46.53 41.75 40.10 45.77 49.88 52.46 52.17 52.74 52.91 52.55 51.35 51.24 52.96 52.12 52.29 53.41 55.27 54.51 52.87 53.67 54.31 53.75 52.62 51.79 51.27 51.18 52.30 54.38 53.04 51.52 50.64 50.67 51.02 50.88 50.92 50.74 50.24 43.95 49.12
42.09 45.54 49.36 51.54 48.35 49.10 49.03 49.92 50.83 48.23 45.21 43.88 46.90 45.92 45.83 40.52 40.22 45.79 50.39 51.08 50.58 52.37 53.75 54.02 53.85 52.90 52.45 52.68 53.76 54.63 55.27 54.95 54.06 53.10 54.00 54.08 54.14 54.28 53.43 51.71 51.32 53.08 54.53 53.75 53.04 52.09 50.72 50.34 50.01 49.73 49.57 50.34 50.76 50.69
47.37 49.10 46.00 48.98 48.57 49.63 46.17 46.10 45.23 44.55 45.77 49.95 48.88 42.85 41.81 42.21 43.15 48.66 50.09 52.17 53.57 53.63 53.15 52.98 53.37 53.32 52.76 52.74 53.32 53.09 53.15 53.64 54.31 54.65 54.48 54.13 55.07 55.55 54.83 54.28 54.50 43.16 52.54 53.40 53.35 53.27 52.50 51.85 51.08 50.58 50.21 49.58 49.79 50.52
48.47 50.25 50.48 46.41 47.24 47.19 46.90 45.40 45.54 47.72 50.14 48.59 45.32 44.37 45.59 49.48 51.94 51.96 52.81 54.07 55.30 54.30 52.98 52.81 53.23 54.67 54.67 55.67 55.80 55.30 55.07 53.84 52.05 50.21 49.99 50.09 51.49 52.71 54.68 54.45 54.28 54.21 54.18 53.80 44.74 46.96 51.98 51.48 51.55 51.46 51.11 50.75 50.78 50.84
48.03 50.92 47.59 47.29 45.79 45.00 47.83 50.20 48.77 50.65 51.50 51.25 51.02 50.50 50.51 51.30 52.70 55.32 54.97 54.24 53.37 53.00 53.91 54.34 54.35 53.47 52.63 52.54 52.42 52.96 54.03 53.85 52.70 50.45 48.40 48.02 49.04 51.70 52.38 52.46 52.75 53.34 53.62 52.99 52.57 52.91 44.66 45.53 48.17 48.91 47.45 47.04 46.56 47.05
51.70 50.31 48.15 48.08 47.21 49.59 51.08 53.01 53.09 52.74 52.28 51.33 52.22 50.12 49.71 52.07 53.32 55.35 55.21 55.57 56.05 54.97 53.90 53.09 52.98 52.80 52.04 51.76 51.26 50.47 49.84 51.79 51.99 51.47 49.80 48.87 48.66 48.59 48.85 49.20 49.53 49.84 50.05 50.38 50.80 50.68 50.39 48.94 48.18 47.89 47.28 46.89 47.42 44.67
51.09 48.47 48.29 45.73 47.62 52.32 53.79 51.49 51.46 50.83 51.49 50.35 49.82 51.01 50.87 50.44 49.07 52.95 55.27 55.43 54.12 52.77 48.96 51.70 51.79 51.47 52.94 52.67 52.50 52.23 41.63 50.15 48.92 48.03 47.79 47.65 47.98 48.25 48.66 49.44 49.84 49.95 50.04 49.83 49.69 49.48 49.07 48.75 48.91 49.14 49.04 48.99 49.10 48.50
51.39 51.93 50.92 50.40 49.72 47.74 52.02 50.81 50.29 49.48 51.53 50.62 50.63 51.30 50.77 49.71 47.72 52.68 56.63 55.87 53.91 52.74 52.29 52.74 53.17 53.20 52.97 52.10 50.69 49.90 45.06 48.33 45.20 38.51 38.93 38.23 36.46 39.21 45.71 48.19 48.00 48.05 47.84 48.19 48.97 49.28 49.23 49.44 49.56 49.40 49.35 49.48 49.07 48.47

GFSWCAN_sfc_wetblb_003.txt.gz
Wetbulb
49.65 49.87 49.64 49.62 49.55 49.60 49.55 49.77 49.73 49.70 49.64 49.66 50.05 50.66 51.74 52.76 52.72 52.13 53.61 55.12 50.46 47.51 49.19 50.48 50.56 50.07 52.10 51.08 49.77 52.53 51.97 54.65 54.77 52.57 52.46 52.27 51.58 52.20 52.77 55.22 54.45 54.34 52.69 51.28 52.48 50.62 48.33 60.04 59.40 55.85 61.40 62.24 62.15 61.90
49.32 49.50 49.65 49.43 49.58 49.49 49.62 49.49 49.62 49.85 50.00 49.87 49.85 50.34 51.34 52.32 52.46 51.66 51.94 55.09 54.38 49.51 49.50 52.90 52.08 52.22 51.21 53.08 51.29 52.39 52.95 55.15 55.27 53.87 55.62 55.50 53.50 55.05 54.50 50.64 58.76 53.27 57.34 55.19 55.77 53.32 62.18 62.46 61.47 62.66 62.94 62.03 61.97 62.19
49.29 49.48 49.53 49.46 49.44 49.39 49.66 49.66 49.76 49.91 50.21 49.98 49.72 50.39 50.89 52.05 52.38 51.51 51.42 53.77 52.79 50.28 50.99 49.64 51.35 54.13 55.97 53.64 53.79 48.96 53.14 55.71 55.78 56.18 54.89 55.65 53.84 57.00 52.75 53.50 54.54 57.51 59.06 55.96 57.18 59.21 59.71 59.47 61.54 62.50 62.95 62.31 62.94 63.33
49.04 49.15 49.24 49.43 49.29 49.46 49.30 49.45 49.72 49.87 50.00 50.15 49.72 50.15 50.58 51.78 52.40 51.67 51.51 53.47 52.08 50.51 45.99 48.85 52.72 51.28 53.71 53.77 53.30 53.47 53.68 54.82 55.58 56.23 54.83 54.48 52.69 56.78 54.05 55.56 55.49 56.69 58.40 56.25 56.65 59.41 59.38 60.74 60.24 60.65 61.43 62.87 63.01 64.09
48.56 48.50 48.64 49.00 49.31 49.31 49.41 49.50 49.90 49.86 49.96 50.24 49.79 50.11 50.43 51.55 52.32 51.95 52.68 54.56 54.30 49.25 47.04 48.79 51.33 52.57 52.88 54.05 52.49 53.25 52.92 52.44 51.89 51.32 52.40 52.36 55.49 55.05 55.30 55.55 53.89 57.19 56.17 54.36 54.60 57.66 57.84 58.71 59.10 60.79 60.86 61.56 62.77 63.27
48.72 48.78 48.76 48.66 48.80 49.26 49.10 49.44 49.88 50.03 49.98 50.20 49.72 50.07 50.28 51.28 52.20 51.18 47.78 53.50 55.71 53.92 48.27 46.56 52.35 50.99 53.18 53.09 51.57 52.36 53.79 52.95 52.34 51.63 50.98 53.37 54.33 53.18 50.30 50.41 55.22 57.01 58.42 57.90 56.71 56.79 56.84 57.81 58.70 59.02 58.59 59.39 61.84 62.64
48.93 49.03 48.77 48.85 48.76 48.96 49.15 49.54 49.81 50.22 49.99 50.14 49.53 49.80 50.46 51.30 51.61 47.31 46.31 49.40 50.66 52.68 48.87 46.23 47.10 51.70 52.79 53.21 52.91 51.83 52.26 51.20 50.88 51.12 49.60 49.86 51.42 51.17 48.37 46.63 52.59 54.60 55.87 56.38 58.36 56.80 55.05 56.15 55.62 57.77 58.06 58.78 59.78 61.67
49.19 49.15 49.03 49.14 49.13 49.10 49.21 49.46 49.66 50.04 50.08 50.01 49.58 49.80 50.43 51.26 50.84 48.69 52.44 51.06 50.89 49.64 49.62 45.35 46.48 47.82 52.44 50.89 50.52 55.18 50.78 50.73 50.11 49.67 52.28 49.41 50.45 49.97 46.06 49.08 51.33 52.88 53.74 53.13 53.45 54.17 54.70 55.82 56.50 56.76 57.37 57.43 57.50 58.65
49.36 49.15 49.02 48.88 49.15 48.65 48.31 48.95 49.37 49.63 49.78 49.84 49.52 49.91 51.80 49.82 48.37 49.87 51.17 50.11 52.79 50.23 45.91 46.52 44.02 44.26 51.08 51.37 52.17 51.29 52.89 47.64 52.22 48.07 48.10 49.43 47.48 45.84 49.45 51.10 51.76 52.73 52.32 53.18 54.82 55.76 55.76 55.12 55.82 56.96 57.35 56.94 55.85 56.08
49.10 49.23 48.70 48.91 48.79 48.71 48.68 48.70 48.81 49.58 49.90 49.67 49.49 47.08 45.18 48.46 51.50 51.12 50.74 47.99 48.27 49.02 48.32 44.51 48.89 45.61 47.99 49.49 48.10 49.43 49.47 48.29 46.91 49.42 53.79 48.67 47.32 51.68 52.26 53.64 54.69 54.71 55.05 56.01 53.96 54.40 55.91 55.74 56.27 56.60 56.63 57.60 58.02 57.40
49.16 48.97 49.14 48.83 48.79 49.09 49.02 48.73 49.25 49.70 49.44 48.16 46.31 45.53 51.66 49.22 49.91 46.12 42.65 43.34 45.46 43.12 46.73 46.98 47.70 46.47 50.12 46.33 47.69 50.05 47.47 49.66 43.89 48.16 48.57 47.20 47.31 51.77 55.08 55.35 56.92 57.12 57.29 57.18 57.15 56.60 56.53 55.73 55.40 55.89 56.86 57.91 58.32 58.56
48.33 48.25 48.60 49.12 48.82 48.93 48.70 49.35 49.46 48.87 49.32 48.60 50.75 52.30 52.32 49.26 43.83 39.30 41.00 43.77 42.70 42.91 46.43 45.59 46.46 48.26 50.05 51.81 47.76 50.10 45.94 48.72 41.08 50.89 47.46 44.56 51.59 55.58 55.93 55.51 55.64 56.37 55.91 55.03 55.39 55.10 55.50 55.62 55.28 55.48 57.40 59.06 59.10 59.57
48.65 48.47 48.92 48.95 48.85 49.43 49.27 49.64 49.19 50.14 49.60 52.87 48.63 44.81 44.96 44.51 34.54 34.45 33.63 39.43 41.52 45.37 47.46 48.10 45.89 48.88 49.17 49.86 49.53 48.46 42.49 43.55 50.13 45.47 44.48 46.70 54.36 54.75 53.70 55.20 54.77 55.86 55.69 55.45 55.21 55.47 55.54 55.87 56.19 56.06 57.69 59.71 60.06 60.43
48.37 48.81 48.93 49.17 48.93 49.23 49.40 49.45 49.48 50.01 49.49 44.97 39.47 35.22 37.82 35.72 38.41 40.84 43.00 44.17 46.54 49.23 47.92 46.33 47.61 46.92 47.62 46.68 49.49 41.81 47.81 47.73 41.87 40.32 42.88 49.06 49.44 50.49 51.22 53.39 54.20 53.58 53.86 54.04 54.77 55.18 55.36 55.89 56.57 58.04 59.34 60.47 61.14 60.62
48.56 48.67 48.73 48.93 49.20 49.31 49.47 49.22 49.34 51.61 47.06 40.37 40.12 35.38 38.78 43.64 44.28 46.80 46.46 46.98 47.48 49.73 45.95 44.61 45.88 47.37 45.83 44.47 47.68 44.99 41.69 39.44 42.78 44.10 47.11 49.22 50.67 51.23 51.46 52.54 51.95 53.83 53.61 54.44 55.38 55.41 56.04 57.14 58.42 59.67 60.85 61.11 60.58 60.14
48.68 48.13 48.67 49.10 49.52 49.70 49.01 48.86 50.49 50.92 48.52 43.87 41.17 39.80 43.21 42.01 42.88 44.50 45.56 43.79 49.22 47.11 47.58 47.27 43.51 43.49 41.52 42.93 39.51 39.90 40.41 40.48 43.30 45.51 48.77 49.43 49.02 48.70 51.59 51.18 53.26 53.81 54.81 55.42 55.83 57.01 58.02 57.16 57.62 58.40 59.49 59.92 59.77 59.97
48.72 46.36 48.99 49.40 49.34 48.87 48.75 48.60 48.06 43.05 43.84 39.14 41.19 45.20 44.64 45.02 44.43 45.39 45.71 45.44 51.39 49.19 44.81 47.23 40.32 40.13 46.23 39.56 38.41 44.84 42.34 45.20 45.66 46.40 48.30 49.05 48.40 49.96 52.96 52.48 53.05 52.90 53.57 56.92 57.04 56.46 57.88 59.03 59.39 58.98 57.61 58.74 58.95 58.90
46.81 48.60 49.38 48.97 48.95 48.36 48.53 49.28 46.62 43.72 38.10 42.80 42.06 43.17 48.05 47.16 46.44 48.06 46.18 47.43 46.58 46.64 48.79 44.56 48.20 41.06 40.35 37.20 40.38 46.15 47.73 46.05 47.04 47.76 51.03 53.60 53.59 52.29 51.96 51.37 52.08 53.18 52.68 53.33 54.47 56.11 57.36 57.03 56.66 57.38 58.10 58.32 58.38 58.05
48.94 49.55 49.03 49.40 49.22 48.73 45.41 45.54 46.95 38.68 42.34 44.97 44.31 47.08 47.28 45.58 47.93 48.87 47.47 48.53 49.73 52.80 50.54 48.79 43.35 41.46 43.79 46.73 46.12 47.47 47.74 47.50 47.26 50.15 52.07 53.18 55.18 54.19 52.67 53.75 53.49 53.92 54.39 55.71 55.29 55.35 55.70 56.85 56.15 55.76 56.04 57.01 54.64 55.38
49.40 49.17 49.34 48.82 49.64 46.73 41.93 43.73 48.46 43.21 42.36 44.77 46.13 46.82 44.82 45.48 46.80 47.87 46.74 48.09 46.43 45.78 44.25 43.75 45.33 46.26 46.35 47.81 47.97 49.01 49.92 51.68 52.27 49.84 49.06 51.34 53.14 55.01 55.01 54.88 53.83 55.58 55.44 55.65 55.92 49.00 53.24 53.99 54.62 55.01 55.09 54.08 54.18 54.50
49.15 48.99 48.32 49.29 49.58 48.31 45.43 44.46 44.36 45.35 45.87 43.50 47.80 47.59 47.01 47.40 45.03 44.42 44.43 47.37 45.35 46.28 44.18 46.54 45.90 49.36 51.10 51.68 52.01 53.20 54.90 55.69 54.52 53.45 51.17 50.55 53.28 53.56 53.65 54.11 55.17 54.20 53.00 51.86 51.92 52.53 49.49 52.95 54.51 55.24 53.56 54.11 55.67 54.62
49.51 49.54 48.53 49.06 46.28 44.64 44.36 47.91 45.33 46.06 43.71 42.34 42.34 45.07 44.54 43.79 44.66 46.42 49.06 45.61 44.15 45.05 47.32 48.15 49.46 50.61 51.54 52.99 54.93 56.42 57.12 56.37 57.19 54.72 49.29 50.60 49.89 52.30 52.65 53.61 53.91 52.30 52.52 52.62 52.78 53.59 53.76 54.95 54.80 54.51 54.81 55.07 52.01 54.32
48.82 47.93 45.21 43.90 39.48 37.29 37.43 44.44 39.81 40.82 37.19 38.80 41.95 40.06 40.14 41.87 44.72 47.46 42.99 42.88 44.31 48.12 48.22 50.08 52.11 54.01 53.42 54.67 56.70 57.27 57.23 56.53 54.52 53.94 54.45 53.75 55.15 54.18 54.25 53.82 54.33 53.00 52.69 53.61 54.76 53.76 53.93 47.51 52.45 53.72 54.30 54.13 54.01 53.61
48.59 44.09 39.69 38.05 36.92 35.00 39.50 38.61 40.31 40.11 41.05 38.66 37.33 33.50 35.35 38.48 42.33 38.64 37.81 42.58 48.60 53.75 54.29 54.97 55.87 55.97 56.42 56.24 56.31 56.11 55.92 56.24 54.50 56.02 55.05 53.74 51.99 52.94 54.76 54.46 54.69 54.88 53.82 52.92 52.77 53.43 54.11 53.97 48.30 53.81 53.91 53.78 53.71 53.22
39.48 39.28 39.89 36.76 40.92 39.28 38.15 39.35 38.50 38.32 37.72 39.84 41.61 43.78 45.64 44.82 41.96 42.38 41.86 46.13 51.87 52.96 53.92 53.59 54.18 53.93 51.62 52.04 53.88 54.70 56.81 54.42 52.63 52.62 53.97 55.18 54.10 53.98 53.75 54.30 54.62 55.38 56.84 53.54 52.14 52.19 52.55 53.10 53.16 53.21 53.02 52.72 52.70 52.68
38.48 46.05 43.07 46.82 47.72 46.10 46.80 42.57 42.64 44.17 45.83 44.70 45.43 49.66 50.83 46.55 43.36 41.97 45.39 49.45 51.94 51.99 52.29 52.39 52.19 50.37 51.11 52.83 52.11 53.14 54.17 55.61 54.77 52.88 53.54 53.98 53.48 52.88 52.36 52.03 51.91 53.13 56.63 56.23 54.07 53.14 52.68 52.69 52.33 52.03 51.81 51.49 45.86 50.50
42.52 45.79 52.58 54.43 51.29 51.11 48.28 49.78 50.16 47.44 45.05 44.03 46.92 45.58 45.65 41.08 40.03 45.00 50.34 52.28 51.75 53.19 54.45 54.57 54.20 53.18 52.72 52.95 53.76 54.42 55.07 55.22 55.14 54.44 55.86 55.95 55.60 55.12 54.20 52.66 52.05 53.67 55.32 54.82 54.52 53.94 53.20 53.04 52.56 52.27 52.13 52.59 52.56 52.00
50.86 51.40 46.56 49.23 49.15 50.60 47.74 47.75 47.12 46.30 47.31 49.65 48.94 44.52 42.64 42.90 44.51 50.64 52.50 54.50 55.24 55.47 55.56 55.73 57.04 56.17 55.47 55.73 56.04 55.79 55.85 56.05 56.44 56.11 55.40 55.29 55.93 55.76 56.52 55.78 56.07 45.19 54.57 55.39 55.06 54.77 53.97 53.37 52.96 52.79 52.30 52.08 52.44 53.18
48.76 51.37 51.30 48.24 48.88 48.48 48.34 47.58 47.41 49.48 51.22 50.02 47.09 46.50 47.59 50.22 52.25 52.50 54.46 55.62 56.00 54.89 54.13 53.85 54.51 55.06 54.75 55.07 55.68 55.39 54.89 54.25 52.44 50.26 49.07 49.00 49.98 50.93 52.19 52.22 52.37 52.60 52.95 52.93 47.30 45.99 53.23 52.55 52.42 51.57 51.13 50.89 51.51 51.96
50.02 52.74 49.70 49.24 47.72 46.65 49.40 51.60 51.04 52.72 53.18 52.81 52.72 52.14 51.93 52.75 54.93 56.38 54.84 55.08 54.49 53.35 53.97 54.42 54.63 54.18 53.11 52.98 52.59 53.12 54.30 54.00 51.88 50.08 47.96 47.15 47.14 48.38 49.11 49.54 49.52 49.77 50.37 50.39 50.26 50.69 45.85 48.50 49.82 51.56 51.32 52.09 51.16 50.99
52.23 51.56 49.57 48.90 47.06 49.87 51.50 52.99 52.77 52.81 52.72 51.58 52.47 50.90 50.57 51.95 54.50 55.84 55.90 56.23 55.70 54.44 54.28 53.34 53.41 53.84 52.95 52.36 51.42 50.44 49.93 51.69 50.92 50.25 48.79 48.12 48.63 48.72 48.87 48.45 48.57 49.55 49.37 49.02 49.26 49.16 49.58 49.40 49.38 49.07 49.20 49.36 49.56 49.18
51.81 49.76 48.46 45.83 47.77 52.23 54.41 53.37 52.09 51.86 51.87 51.52 50.74 52.05 51.44 51.25 49.48 52.35 56.37 56.00 54.57 53.48 49.91 52.24 52.23 51.81 53.00 52.54 52.17 51.44 44.13 50.70 49.70 49.15 48.15 47.07 47.74 47.86 48.07 47.47 48.12 48.42 47.91 47.78 47.33 47.22 47.89 47.76 48.48 47.99 47.33 47.23 47.97 49.39
51.14 50.71 51.61 51.09 49.38 48.94 52.33 51.89 50.50 50.26 52.66 50.19 50.12 50.96 51.18 50.23 48.39 52.61 56.45 57.01 54.73 53.44 53.23 53.14 52.93 52.21 51.58 50.95 50.52 50.06 46.84 50.38 46.58 38.97 39.17 38.83 36.86 40.10 45.17 47.31 47.68 47.30 46.87 46.40 45.94 45.70 45.28 45.70 46.05 45.89 45.28 43.96 44.45 45.21

GFSWCAN_sfc_wetblb_006.txt.gz
Wetbulb
49.85 49.70 50.10 50.05 50.11 50.07 50.09 49.98 49.94 50.05 50.20 50.20 50.32 50.56 50.99 51.78 52.74 51.96 50.74 56.50 51.38 47.58 48.73 50.35 50.66 48.81 50.54 53.10 49.72 53.32 53.14 54.00 54.07 51.97 50.80 51.18 50.89 52.42 52.95 56.38 52.94 54.82 52.86 51.49 53.62 50.94 48.87 60.64 58.99 55.25 62.56 63.61 62.47 62.01
49.40 49.40 49.55 49.65 49.97 49.86 50.05 49.83 49.88 49.70 50.03 50.26 50.39 50.50 50.67 51.06 52.36 52.18 48.82 55.07 55.39 49.81 49.45 52.54 52.61 53.58 52.33 52.33 51.23 52.31 52.48 56.75 55.69 54.13 54.56 54.14 51.55 53.39 54.21 48.74 57.17 52.56 54.64 53.39 54.84 52.97 58.20 62.43 62.06 63.58 63.28 63.98 62.42 62.98
49.52 49.52 49.46 49.53 49.83 49.85 49.80 49.75 49.79 49.90 50.09 50.24 50.56 50.56 50.50 50.85 51.97 52.05 49.42 52.18 52.90 50.12 50.86 51.14 49.69 54.88 54.90 54.13 54.23 48.26 54.75 55.78 57.15 57.42 55.08 55.83 53.85 56.90 52.71 53.55 55.19 57.15 59.18 56.65 54.29 55.11 55.15 60.57 60.94 61.77 62.01 61.43 61.35 61.91
49.23 49.24 49.19 49.08 49.40 49.63 49.54 49.69 49.60 49.70 49.87 50.11 50.35 50.45 50.37 50.75 51.65 52.20 49.29 52.57 52.15 50.36 45.90 49.08 52.52 51.02 54.39 53.46 53.52 54.07 54.09 55.29 54.89 54.91 54.31 54.22 53.33 57.71 54.23 53.61 51.56 55.96 54.46 52.99 56.74 54.69 59.77 59.55 59.84 60.91 61.05 62.19 61.66 62.15
49.37 49.01 48.99 48.73 48.95 49.17 49.57 49.52 49.41 49.77 50.05 50.15 50.24 50.34 50.22 50.66 51.68 52.06 51.96 52.85 53.81 49.09 46.03 48.50 52.89 52.45 53.18 53.89 52.90 53.65 53.17 53.03 51.96 50.42 51.02 51.47 54.91 54.71 55.64 55.06 53.39 56.89 55.31 54.01 52.23 56.95 57.99 57.22 59.19 60.21 59.62 59.78 61.43 61.93
49.41 49.22 48.92 48.90 48.83 48.82 49.39 49.48 49.54 49.82 50.22 50.00 50.34 50.02 50.19 50.47 51.71 50.08 48.74 53.16 53.95 53.58 47.72 45.97 53.49 52.61 53.17 53.27 51.61 52.81 53.49 53.00 51.40 50.54 50.77 52.79 56.05 53.57 50.27 49.54 54.46 57.53 58.44 58.51 55.35 57.12 56.68 57.76 59.03 59.54 57.86 58.63 59.23 59.71
49.21 49.07 49.28 49.06 49.06 49.01 49.00 49.21 49.29 49.61 50.01 50.01 50.32 49.94 50.16 50.68 50.74 46.29 45.03 50.05 49.73 50.80 48.23 45.93 46.80 51.98 52.55 52.77 52.32 51.45 52.42 51.73 51.12 50.68 49.27 50.44 51.32 51.93 48.70 45.77 52.22 53.70 55.88 55.40 55.93 56.16 54.34 54.86 54.58 57.03 57.86 58.33 58.68 59.05
49.49 49.45 49.47 49.33 49.12 49.12 49.00 49.15 49.48 49.81 49.88 50.14 50.20 49.79 50.25 50.74 49.92 48.36 51.62 51.14 50.36 48.60 49.50 44.97 46.75 48.50 52.55 49.86 49.05 52.81 50.27 50.40 50.49 50.27 51.96 49.46 51.40 50.19 45.57 50.88 51.66 53.32 54.41 53.72 53.30 54.21 54.28 55.99 56.17 55.97 56.91 57.07 56.75 56.61
48.93 48.98 49.49 49.16 49.23 49.12 49.18 48.61 48.55 48.92 49.34 49.69 49.58 49.83 49.97 49.08 47.60 48.58 50.62 51.71 52.03 49.21 45.14 45.85 43.91 44.27 52.29 51.41 52.54 51.28 52.16 46.79 51.08 47.15 47.51 49.39 47.63 45.36 49.56 51.36 51.25 52.74 53.10 53.05 54.37 55.14 55.63 55.03 55.70 56.68 56.95 56.84 56.16 56.42
48.86 49.27 49.53 49.20 48.91 49.03 48.79 48.15 48.26 48.01 49.19 49.41 48.35 45.67 43.62 49.23 51.34 51.65 49.29 48.14 47.61 48.53 47.69 43.99 48.97 45.57 48.68 48.99 47.42 49.62 49.99 47.93 46.07 48.98 50.15 46.48 45.87 51.16 51.52 52.44 54.40 55.39 55.71 55.79 54.03 54.08 55.46 55.21 55.22 55.14 55.66 56.62 56.88 56.92
48.91 49.12 49.28 48.75 48.93 49.21 48.72 48.54 48.24 48.73 49.24 46.78 44.87 45.46 52.35 49.88 49.88 48.67 43.66 44.03 45.20 43.01 46.59 46.22 47.42 46.02 50.61 46.54 47.50 49.38 46.97 48.40 43.39 47.22 47.71 46.44 47.90 53.08 56.02 56.63 57.37 57.58 57.23 56.44 56.04 55.61 55.42 55.30 54.75 54.75 54.54 55.19 55.95 57.70
49.13 49.10 49.21 49.16 48.90 49.22 49.16 48.74 48.73 48.58 48.69 48.53 48.55 52.28 50.41 47.81 46.21 41.20 41.40 43.89 43.13 42.33 46.15 45.52 46.14 49.08 49.95 51.19 48.08 48.97 45.16 46.92 41.53 50.58 47.49 44.19 51.72 53.97 55.23 55.83 56.40 56.80 56.46 55.87 56.10 55.41 55.59 55.66 55.32 54.85 54.88 54.73 55.26 58.16
48.33 48.26 48.61 49.43 49.10 49.20 48.78 48.91 48.93 49.67 49.57 50.86 46.54 44.41 45.36 43.28 34.51 36.09 35.29 39.92 41.07 45.92 46.85 48.60 45.84 48.00 49.78 49.40 47.95 47.60 42.77 42.76 49.24 45.09 43.73 48.18 50.75 52.55 53.34 54.28 54.77 56.11 56.23 56.00 55.35 55.23 55.18 55.21 56.03 55.52 55.80 57.46 57.55 58.74
48.53 48.93 49.18 49.36 49.51 49.79 49.52 49.66 49.14 48.73 47.92 42.94 40.18 35.31 39.07 37.49 39.43 41.47 42.24 43.59 46.94 48.21 47.95 49.09 47.11 47.03 49.05 46.40 47.99 42.79 46.73 47.31 42.21 40.89 43.31 46.82 49.37 50.70 52.69 53.62 53.56 53.76 54.29 54.47 54.70 55.15 55.14 55.17 55.97 56.18 57.03 58.45 58.67 59.04
47.86 48.47 49.22 49.28 49.44 49.76 49.94 49.48 49.38 51.25 46.75 41.56 41.55 34.99 39.15 43.72 45.73 45.69 48.51 47.66 48.68 50.05 48.56 47.68 48.00 48.00 46.30 44.84 46.61 45.37 42.19 40.01 43.09 43.45 45.91 48.34 50.70 51.31 52.32 53.16 53.69 54.26 54.50 54.41 55.39 54.73 55.03 55.19 55.82 56.36 58.20 60.34 58.75 60.38
48.86 48.37 48.64 49.59 49.83 49.90 49.22 48.52 49.61 49.90 47.09 42.65 42.43 40.79 44.14 42.45 43.60 44.98 45.89 46.72 49.15 49.01 50.02 48.65 45.91 43.21 43.03 44.32 41.62 40.84 40.76 40.86 43.13 46.58 49.76 50.96 51.22 51.67 51.17 53.97 54.56 55.18 54.73 54.74 56.01 57.02 56.12 56.66 57.01 57.62 59.56 58.89 59.96 59.74
48.36 47.31 49.54 49.75 49.78 49.24 48.88 48.91 48.82 44.73 43.82 41.22 42.29 44.98 45.99 46.94 43.91 45.70 46.68 47.05 50.57 47.37 44.90 44.84 41.40 40.36 46.73 41.51 40.52 44.23 43.24 44.48 47.49 49.39 51.67 52.81 52.37 50.79 51.68 52.52 53.67 53.81 53.06 54.64 56.36 55.36 55.93 56.41 56.94 58.34 57.84 59.17 59.27 59.60
48.51 49.85 49.85 49.55 49.45 48.23 49.55 49.44 46.60 43.44 40.06 43.11 42.15 45.70 45.70 45.62 45.82 46.22 47.72 49.02 48.44 47.40 48.27 45.32 47.42 42.84 40.53 39.40 42.19 46.20 47.58 50.41 51.61 51.43 52.01 53.23 54.87 54.92 52.58 52.38 53.74 53.94 53.91 55.60 56.18 55.27 55.58 56.80 56.10 56.99 58.41 58.72 58.03 59.30
49.48 49.59 48.93 49.49 49.99 49.16 45.79 46.06 47.40 40.61 43.01 44.77 45.05 46.67 47.46 47.02 49.71 50.10 48.83 50.01 50.36 50.73 50.08 47.54 43.76 43.34 43.63 48.13 46.06 47.67 48.69 49.79 50.22 51.35 51.55 54.26 55.34 55.79 55.44 54.48 54.18 54.95 54.56 53.94 53.99 54.70 53.90 55.37 55.01 56.41 56.05 59.08 55.49 56.40
49.01 48.75 48.71 49.04 49.27 47.69 43.06 45.93 49.86 44.71 43.21 46.27 46.05 45.36 45.83 46.20 48.13 48.24 49.05 48.74 49.22 47.10 45.08 43.48 43.87 46.29 46.86 48.78 50.37 50.28 50.44 52.56 52.94 50.11 50.82 52.65 54.33 56.34 55.95 55.78 54.16 57.98 55.56 56.27 55.38 49.94 54.82 55.01 55.76 55.48 55.51 54.73 54.36 54.39
47.33 48.76 48.25 48.50 49.06 49.49 47.05 46.11 45.22 45.65 46.36 44.88 48.34 47.00 47.64 48.38 46.41 45.07 45.14 48.71 45.91 44.49 43.08 46.53 47.85 49.62 51.81 51.35 52.71 53.10 55.68 56.23 54.00 53.52 52.95 51.77 53.89 53.92 54.22 54.91 55.24 54.96 53.66 52.56 52.86 52.56 48.92 53.63 54.18 55.68 55.68 55.03 55.72 54.50
48.98 49.23 49.29 48.98 45.90 45.71 44.48 48.13 45.70 46.13 44.84 44.74 44.99 47.32 45.54 44.56 44.14 46.40 49.68 47.00 45.69 46.79 48.17 47.64 48.11 50.37 51.93 53.02 55.96 55.78 56.26 56.11 56.85 55.80 50.24 50.86 52.91 51.77 53.47 53.86 54.23 53.42 53.67 53.41 53.82 53.66 53.70 54.52 54.92 54.61 53.99 54.73 53.36 54.95
48.79 47.70 45.58 44.37 40.16 37.83 38.95 45.97 41.82 42.88 38.77 39.98 43.76 42.12 43.32 43.38 45.37 48.52 43.73 44.73 45.61 47.93 49.35 50.09 51.74 53.26 52.99 55.24 56.11 54.87 56.84 57.05 56.87 56.53 54.22 54.20 53.80 54.16 54.65 54.94 55.29 54.11 53.36 53.36 53.50 52.64 52.85 49.65 53.15 54.58 54.59 54.03 53.96 53.86
48.09 42.81 38.51 37.52 38.14 35.36 39.81 38.71 41.08 39.63 40.36 38.70 38.38 35.62 38.23 40.90 43.14 38.99 35.81 40.56 47.02 52.76 54.67 54.55 54.94 53.48 53.71 54.69 54.91 55.46 55.29 55.31 55.20 55.43 55.37 54.77 53.64 54.02 55.08 54.92 55.02 55.24 55.14 54.97 53.72 53.01 53.10 53.04 49.55 53.24 53.78 53.69 53.46 53.10
39.05 38.07 35.18 31.98 35.41 35.16 37.30 37.54 37.56 35.71 33.89 36.47 34.07 36.08 38.21 41.22 38.68 39.73 41.10 46.44 50.05 50.65 52.31 53.90 54.34 54.86 52.23 52.20 54.01 54.86 58.60 55.62 53.12 52.53 54.56 54.72 53.69 53.08 53.08 53.93 54.10 54.55 55.31 54.76 53.90 53.79 53.60 53.79 53.39 52.83 52.53 52.31 52.34 52.26
36.12 45.24 40.61 42.90 37.73 40.52 43.80 41.88 40.82 41.62 44.46 43.78 45.15 48.05 46.87 44.54 42.70 40.74 46.14 50.47 50.92 51.63 52.18 53.17 53.24 52.98 52.70 53.48 52.48 53.49 54.03 55.02 54.47 52.88 54.32 55.27 54.73 53.30 52.58 52.10 52.19 53.23 55.58 55.22 53.86 52.76 52.69 53.03 53.10 53.28 52.91 52.16 46.97 50.73
43.42 47.28 52.54 54.36 54.06 52.15 49.46 50.93 51.11 49.50 46.32 45.26 46.55 46.32 45.58 41.36 41.24 45.71 51.32 53.29 52.38 53.55 55.02 55.20 54.08 52.97 52.64 53.47 55.07 56.11 56.24 56.35 56.70 55.52 56.14 55.58 55.33 55.43 53.96 52.27 51.57 51.59 53.69 54.23 54.39 53.95 53.29 53.11 53.15 52.95 52.44 52.99 52.96 52.83
52.27 50.88 47.39 49.95 49.81 50.90 47.78 47.74 46.99 46.49 47.37 49.38 49.05 45.19 43.33 43.04 44.14 50.62 53.35 55.45 55.63 55.98 55.74 55.49 56.18 56.05 55.06 55.26 55.51 55.27 55.26 55.30 56.03 55.21 54.59 54.32 54.71 54.31 53.79 51.84 51.40 43.83 50.54 51.34 50.64 50.72 50.62 50.63 50.82 51.22 51.30 51.50 52.51 53.37
50.14 51.80 51.33 48.66 49.73 49.54 48.97 47.90 47.66 49.39 51.54 49.98 46.70 46.00 47.43 51.20 53.56 53.71 55.01 55.92 56.18 55.35 53.91 53.66 54.19 55.51 55.22 55.47 55.30 54.64 54.15 53.60 51.45 48.77 47.92 47.42 48.41 49.04 50.49 50.36 50.71 50.38 49.80 49.99 45.42 45.43 49.38 48.97 49.30 49.55 49.89 50.37 51.64 52.52
49.92 52.69 49.68 49.33 47.98 46.85 49.62 51.59 50.83 52.43 52.92 52.69 52.84 52.26 51.98 53.11 55.09 56.78 55.59 55.69 54.58 53.53 53.68 53.99 54.04 53.37 52.21 51.80 51.13 51.76 52.93 52.33 51.64 49.46 46.78 46.15 46.63 48.47 49.22 49.07 48.67 48.43 48.18 48.62 48.66 48.56 44.64 47.19 47.17 49.86 49.48 50.13 49.90 49.01
53.29 51.90 50.19 49.92 48.89 50.81 52.26 53.46 53.76 53.65 53.22 52.46 52.79 51.33 50.91 52.75 54.48 55.89 55.71 55.76 54.85 54.78 53.86 52.69 52.45 52.44 51.14 49.94 49.29 48.59 48.09 50.34 51.28 51.31 49.63 48.58 47.90 47.46 47.07 47.18 47.66 47.68 48.00 47.71 47.37 47.10 46.68 46.26 46.23 46.31 47.09 47.48 46.19 45.54
51.37 50.44 49.17 46.44 49.05 53.30 54.61 53.17 52.87 52.02 51.76 50.26 51.11 53.14 52.97 52.17 49.86 52.98 55.82 55.57 53.90 52.67 50.18 52.44 51.28 49.95 51.20 51.04 50.85 50.65 43.42 50.02 50.11 49.45 48.48 46.94 46.58 46.59 46.82 46.76 47.28 47.76 47.28 46.75 46.45 45.65 45.24 44.41 44.14 44.36 45.30 45.06 44.47 43.94
52.40 52.22 53.01 51.57 50.88 50.46 52.89 52.20 51.44 50.48 51.58 50.36 51.07 51.72 51.22 51.15 49.23 53.23 56.82 56.27 54.46 53.69 53.70 52.91 51.66 51.49 51.66 51.08 50.47 50.01 46.20 49.82 47.07 39.44 39.69 38.16 38.38 40.78 45.12 47.41 47.77 47.21 46.26 45.74 45.31 45.12 44.23 43.42 42.95 43.37 43.53 43.33 42.57 42.49

GFSWCAN_sfc_wetblb_009.txt.gz
Wetbulb
49.79 49.53 49.57 49.63 49.88 50.00 50.14 50.35 50.47 50.33 50.26 50.42 50.62 50.61 50.88 50.87 51.39 51.27 48.77 51.02 49.56 45.91 45.89 48.33 49.28 45.18 45.13 45.16 43.98 48.09 48.96 52.43 51.34 48.08 46.77 46.61 46.79 49.01 48.44 50.76 47.84 49.43 47.11 44.38 47.00 44.37 42.78 57.98 57.92 53.15 54.54 56.96 59.19 59.75
49.84 49.58 49.43 49.53 49.76 49.72 49.78 50.24 50.22 50.22 49.98 50.07 50.44 50.89 50.80 50.52 51.13 51.76 46.97 51.10 51.99 48.18 46.99 50.99 51.03 51.60 50.57 50.10 45.75 46.43 46.80 50.58 52.69 49.45 50.22 50.29 47.93 49.13 49.54 45.71 53.82 48.49 51.35 51.27 51.68 51.07 55.96 57.35 54.71 57.71 58.24 56.67 57.54 57.54
49.89 49.66 49.42 49.58 49.69 49.66 49.74 50.08 49.97 50.01 50.09 50.24 50.50 50.50 50.78 50.50 50.98 51.10 48.50 49.46 49.43 46.74 47.65 48.03 47.35 52.41 53.52 52.09 51.58 44.26 50.02 51.52 50.35 52.03 50.02 51.30 50.20 53.03 48.84 47.83 50.87 53.52 54.59 51.10 51.78 53.54 54.82 56.80 56.72 57.27 57.73 58.53 58.92 59.43
49.79 49.70 49.51 49.52 49.43 49.29 49.43 49.86 49.76 49.82 49.84 49.84 49.99 50.31 50.71 50.47 50.96 50.88 47.85 50.19 48.95 47.50 42.65 46.18 51.90 51.25 54.49 51.80 52.06 51.44 49.78 52.36 51.57 51.07 47.61 49.81 48.69 53.14 50.45 51.64 50.66 52.31 53.63 51.17 51.45 54.11 56.19 55.68 56.66 57.56 59.25 59.19 59.64 60.51
49.51 49.66 49.56 49.49 49.31 49.12 49.10 49.30 49.71 49.58 49.58 49.88 50.15 50.22 50.71 50.35 51.04 50.41 49.89 50.61 51.62 47.11 42.11 44.68 49.98 51.84 51.80 52.53 52.64 51.74 50.38 49.87 48.82 47.47 47.10 46.21 51.52 50.77 51.72 51.60 49.65 53.78 51.84 50.84 47.56 54.73 53.84 53.99 55.76 57.51 56.11 56.59 57.01 56.70
49.61 49.13 49.33 49.58 49.22 49.03 48.83 48.89 49.62 49.74 49.74 49.84 50.26 50.09 50.81 50.52 51.07 47.78 47.11 51.81 50.74 49.27 44.58 42.23 51.20 49.92 51.50 52.12 51.62 50.68 50.70 50.43 49.54 47.67 47.91 49.98 51.49 49.33 46.51 46.03 51.63 54.98 56.55 54.46 52.24 56.39 54.96 56.12 57.58 56.39 55.37 56.17 56.24 55.58
49.22 49.03 49.24 49.08 49.37 49.27 49.11 49.10 49.39 49.57 49.44 49.91 50.16 50.14 50.75 50.56 48.46 44.60 44.27 49.00 50.20 49.64 44.61 43.64 44.62 50.16 52.00 51.61 50.45 49.32 50.54 49.29 48.93 47.71 46.41 46.82 48.07 49.12 45.36 42.56 48.36 51.58 52.73 51.69 52.99 53.90 51.59 53.29 51.74 54.66 54.93 56.07 56.57 56.44
49.42 49.36 49.38 49.20 49.25 49.32 49.25 48.97 49.13 49.28 49.64 49.97 50.14 50.55 50.52 50.36 48.86 45.40 49.39 50.24 49.86 45.93 46.54 41.73 44.26 46.61 50.57 46.06 46.76 51.30 47.98 47.95 48.19 47.44 48.91 46.41 48.63 47.10 42.06 48.33 49.68 51.69 52.16 52.23 52.85 53.75 52.97 52.65 52.84 53.58 54.81 55.64 54.65 53.82
49.53 49.10 49.05 49.36 49.18 48.97 49.01 48.99 48.84 49.01 49.07 49.30 49.79 50.12 48.19 46.71 46.14 49.96 52.37 51.99 51.30 47.32 42.17 44.84 41.38 42.10 49.85 48.66 50.39 48.70 50.74 45.01 49.42 44.68 44.65 47.01 45.07 42.76 46.85 48.19 49.48 51.74 51.53 51.70 53.44 54.22 54.41 53.89 53.61 53.77 53.57 53.52 52.46 52.73
48.99 48.94 48.89 49.32 49.34 49.07 49.27 48.72 48.33 48.04 48.60 48.98 46.96 44.60 42.48 48.40 53.25 52.07 48.31 46.26 45.55 46.86 45.53 41.79 46.34 43.08 46.34 46.72 45.41 46.71 47.90 45.59 42.14 45.60 48.08 43.68 47.11 50.78 53.23 53.65 53.79 54.07 54.10 53.52 50.58 49.88 50.54 50.51 51.18 51.67 51.98 52.24 51.89 51.62
49.24 49.18 49.37 49.42 49.39 48.97 49.30 48.75 48.31 48.80 48.90 45.25 44.18 43.18 50.09 51.73 48.78 47.28 43.77 43.33 43.87 42.37 44.77 44.47 44.74 43.87 49.24 44.42 45.30 47.70 44.53 45.82 41.46 44.22 44.40 44.71 46.52 48.96 52.43 52.48 53.76 54.05 54.15 53.40 53.16 52.76 52.37 51.71 51.48 51.27 51.49 52.39 52.46 52.24
48.63 49.08 49.38 49.08 48.83 49.39 48.99 48.70 48.42 47.51 48.05 46.59 46.19 49.73 50.86 46.70 44.49 40.85 40.47 43.17 42.16 40.01 44.88 43.07 44.63 47.62 48.59 50.21 46.59 46.93 43.89 44.88 40.98 48.99 45.21 43.53 47.45 49.89 50.86 51.51 52.46 52.89 53.76 53.73 54.18 53.47 53.73 53.98 53.19 52.22 52.38 52.60 52.45 53.07
48.34 48.68 49.45 49.40 49.36 49.37 49.26 48.63 48.62 49.32 49.09 49.86 46.01 43.77 44.01 42.80 34.71 35.64 34.65 38.63 39.85 45.50 45.87 46.52 43.63 46.34 48.70 48.12 46.62 45.79 42.40 40.77 47.24 42.32 42.20 44.14 47.90 49.63 50.12 51.31 51.88 53.57 53.95 54.08 53.62 53.85 54.09 53.91 54.49 54.25 53.00 53.82 54.06 53.38
48.63 48.46 49.15 49.62 49.46 49.22 49.12 49.01 48.93 48.25 46.49 42.47 39.46 32.59 37.83 37.25 38.07 40.07 41.47 43.52 46.98 47.46 46.92 47.93 45.64 46.41 47.72 44.67 46.50 43.09 45.30 45.28 41.16 40.33 39.57 45.20 47.26 48.74 50.33 51.96 51.99 51.76 52.98 53.05 53.21 53.72 54.40 54.55 54.12 54.90 54.34 55.09 54.59 54.99
48.99 49.17 49.44 49.02 49.68 49.47 50.01 49.66 49.34 50.24 45.63 41.20 41.23 33.76 37.98 42.77 44.65 46.47 47.84 46.76 47.79 49.01 47.56 46.20 46.33 46.95 44.85 44.15 45.21 43.23 42.48 39.65 41.85 40.37 44.09 47.38 49.63 50.29 49.86 52.16 52.82 52.96 52.85 52.83 53.91 54.74 55.05 54.51 55.09 54.97 55.52 56.76 56.41 53.34
48.81 48.97 48.52 49.43 50.10 50.22 49.41 48.74 48.24 49.20 46.70 42.79 42.29 39.66 43.46 42.23 42.36 44.70 45.28 45.51 49.25 48.67 49.00 48.00 45.46 43.31 43.24 43.59 41.63 40.87 39.82 39.24 41.64 45.83 48.25 50.24 50.68 49.64 50.20 51.64 52.66 52.60 52.35 53.22 54.74 55.09 54.69 54.86 54.71 54.35 56.24 56.04 56.07 55.06
48.11 46.44 49.42 49.73 49.86 49.01 49.10 48.12 47.85 44.73 42.57 41.01 40.43 44.18 43.25 44.45 43.42 45.15 47.04 46.60 50.87 47.87 43.68 45.46 41.32 40.24 45.53 40.78 39.64 44.71 41.32 43.83 46.60 48.45 49.96 51.57 51.73 51.80 51.54 50.86 52.05 53.04 52.74 52.80 53.92 55.01 55.55 55.86 55.29 55.01 54.31 55.03 55.67 56.59
46.66 48.71 49.88 49.44 48.83 47.23 48.66 47.82 46.10 42.97 39.50 42.28 41.55 43.57 44.93 46.71 45.69 46.23 47.69 49.52 48.65 47.27 47.92 44.82 47.21 42.93 40.60 38.76 41.79 45.44 47.27 49.04 49.90 50.96 51.53 53.07 53.92 53.79 53.69 52.95 52.92 52.20 51.26 52.16 53.53 54.89 54.90 54.35 55.15 53.89 54.45 54.80 55.02 55.36
48.26 48.67 49.70 50.01 49.76 47.86 45.44 45.35 47.22 39.79 41.75 43.46 45.07 45.41 45.07 46.85 49.96 50.44 49.26 50.43 50.67 51.36 49.17 47.31 43.71 41.85 43.55 47.04 46.25 47.38 47.96 49.04 48.37 50.92 51.39 52.85 53.65 53.71 53.59 54.54 54.09 53.94 53.62 53.99 54.11 53.72 53.46 53.60 53.14 53.94 53.98 54.81 52.70 53.46
48.86 48.72 48.88 49.41 48.71 46.32 43.64 45.61 49.92 43.73 42.34 45.21 46.56 44.86 46.60 46.49 48.97 48.97 48.61 49.14 49.67 48.11 45.73 43.95 43.49 45.98 47.11 49.00 50.30 50.49 50.57 52.02 52.31 50.42 50.14 52.45 53.34 53.24 53.86 53.65 53.02 52.71 52.96 52.47 53.25 50.86 52.05 53.04 53.65 54.42 53.88 52.68 52.36 51.93
46.12 49.14 48.16 48.18 49.13 48.42 46.22 45.62 45.14 46.42 46.77 45.15 47.43 48.33 46.35 47.99 46.65 46.22 46.38 50.18 46.87 43.90 43.90 47.22 48.38 50.04 52.80 52.53 52.82 53.94 54.11 54.41 52.53 52.77 51.93 51.20 53.59 52.94 52.68 53.26 53.61 53.28 52.01 50.82 50.80 51.20 50.12 51.99 52.47 53.16 51.90 52.03 53.00 53.99
48.75 49.02 48.66 49.22 45.41 45.53 43.85 47.19 44.05 46.07 44.36 43.50 44.28 46.50 45.05 44.22 44.96 45.57 48.42 46.25 46.25 47.23 48.95 48.50 49.06 50.59 51.11 51.43 53.59 53.71 53.96 54.79 54.94 54.64 50.89 52.02 51.70 51.90 51.39 52.66 53.03 52.07 52.29 51.72 51.59 50.11 50.10 51.06 52.35 52.07 51.77 51.94 50.79 52.15
49.12 48.26 45.85 45.00 40.50 38.06 37.68 45.47 41.91 42.53 38.96 40.45 43.61 41.85 42.17 42.97 43.76 46.40 42.63 44.13 45.50 49.38 49.56 49.41 50.82 52.53 50.98 53.47 54.76 55.08 54.85 53.87 53.22 54.17 54.27 53.99 53.82 53.80 53.68 53.60 54.19 52.98 52.34 52.10 52.20 50.98 50.98 49.59 49.95 50.99 52.16 51.66 51.78 51.35
47.18 41.87 38.79 37.89 38.40 35.45 40.49 39.33 42.00 40.06 40.90 39.01 38.48 36.23 38.75 41.10 42.96 39.65 37.13 40.90 45.56 51.39 52.87 52.98 53.68 52.45 52.50 53.45 53.11 52.58 53.81 55.29 54.91 54.69 55.38 54.41 52.00 52.38 53.38 52.84 52.78 52.71 52.80 53.69 53.21 52.95 52.63 51.97 49.02 50.98 50.85 50.73 50.62 50.70
35.79 35.49 34.92 32.95 36.80 35.63 37.05 38.24 38.41 37.82 35.82 36.94 35.11 34.77 37.69 41.19 38.03 39.69 41.85 45.18 49.07 50.31 50.96 51.90 53.04 53.26 51.42 51.58 52.94 54.24 56.90 56.15 53.42 52.14 54.65 54.26 52.78 52.64 52.22 52.71 53.11 52.87 52.66 52.52 52.10 51.88 51.62 51.72 51.36 51.52 51.99 51.52 50.91 50.62
33.79 38.01 34.14 38.53 38.37 36.27 37.27 37.45 37.30 36.44 37.21 36.59 37.82 43.67 42.96 41.18 41.07 40.73 45.53 47.86 49.18 50.75 51.28 51.93 52.19 52.34 52.41 53.43 52.94 53.20 53.48 55.48 55.08 52.19 53.97 54.69 52.66 51.84 50.84 50.33 48.89 46.53 49.95 49.91 49.61 48.63 48.68 49.27 49.35 50.00 50.20 50.19 47.35 50.50
40.36 46.42 45.68 47.52 47.95 46.33 46.88 49.52 49.35 47.40 44.84 44.40 45.93 45.99 44.99 40.53 41.25 46.44 49.36 50.70 53.17 53.72 55.57 55.76 53.00 51.97 53.59 53.38 53.97 54.39 55.28 55.30 56.20 53.74 53.36 53.10 53.20 52.55 49.15 47.06 46.36 46.97 49.60 49.04 48.24 48.15 47.93 47.86 47.58 47.58 47.44 48.05 49.12 49.60
52.41 51.63 48.09 50.49 50.07 50.83 48.09 47.62 46.93 45.30 45.93 48.62 47.72 43.96 42.55 43.04 43.95 50.71 53.04 54.88 55.81 56.82 55.71 54.26 54.99 54.71 53.33 53.75 53.57 53.11 53.00 53.34 53.51 52.72 51.78 51.43 51.49 50.64 49.45 49.44 49.40 42.74 47.86 47.79 47.07 47.59 47.77 46.62 45.91 46.18 46.15 46.24 47.13 48.52
50.79 52.35 51.74 48.47 49.23 49.42 48.85 47.80 47.37 48.72 50.84 49.31 46.43 45.60 46.61 50.63 53.83 52.28 53.40 56.52 55.65 54.58 53.15 52.57 52.60 53.19 52.51 52.46 51.84 51.35 51.35 50.22 48.26 46.59 46.29 45.72 45.95 46.67 48.20 48.02 47.22 47.19 47.21 46.72 43.51 43.33 45.30 44.60 45.54 45.18 46.05 47.25 47.57 48.60
50.31 52.36 49.54 49.26 47.86 46.89 49.79 50.93 50.34 52.26 52.91 52.85 52.80 52.50 52.17 53.13 55.20 57.78 55.88 54.88 52.47 52.43 52.74 52.70 51.97 50.65 49.09 48.46 48.03 49.13 50.13 49.60 49.23 47.68 44.76 44.00 44.69 46.14 46.00 45.34 45.33 45.90 45.75 46.51 46.20 46.09 43.65 44.90 44.20 44.88 44.42 45.14 45.75 44.77
53.53 51.78 49.86 49.82 48.85 51.44 52.39 53.34 53.08 53.21 52.79 52.45 53.28 51.08 50.45 52.18 54.12 55.39 55.44 55.04 54.05 53.91 53.06 51.28 49.85 49.87 49.26 48.16 47.62 46.74 46.33 48.79 49.42 49.54 46.91 46.25 45.88 45.63 45.54 45.54 45.61 45.75 46.55 45.76 45.37 44.83 44.13 43.72 43.07 42.51 42.13 42.42 42.98 41.66
52.95 50.95 48.90 46.73 49.83 53.61 54.57 53.10 52.18 51.77 51.33 51.69 50.31 52.07 51.54 49.70 49.44 52.64 54.34 53.98 52.24 51.53 49.70 50.52 49.12 48.69 50.02 49.81 49.36 49.50 43.27 48.47 48.26 47.81 47.25 45.80 45.72 46.24 45.70 45.70 46.53 46.72 46.30 45.27 44.98 44.65 44.04 43.25 42.41 41.92 41.25 41.60 41.61 41.11
52.26 52.65 51.96 50.56 48.62 50.11 52.88 52.43 49.53 49.26 51.28 48.88 49.04 51.11 51.32 50.31 48.44 53.37 55.69 54.95 53.51 52.05 50.51 50.84 50.70 51.00 51.08 50.07 49.55 48.74 45.62 49.04 44.46 39.60 38.69 38.99 39.59 41.13 42.67 44.70 44.52 44.81 44.51 44.18 44.28 43.26 42.43 41.79 41.04 41.03 41.18 40.39 39.89 39.48

GFSWCAN_sfc_wetblb_012.txt.gz
Wetbulb
50.13 49.73 49.83 49.68 49.85 49.76 49.74 49.83 50.12 50.33 50.15 50.50 50.67 50.76 50.68 50.79 50.76 48.21 45.79 49.18 45.97 43.33 43.64 45.41 45.37 42.64 43.36 42.79 39.17 44.58 44.82 47.50 49.52 44.62 42.49 41.73 41.88 44.12 46.68 48.69 46.71 46.41 46.52 43.82 43.63 41.69 40.69 54.71 54.00 49.98 52.20 53.41 56.04 56.44
50.49 50.35 50.25 49.95 49.79 49.68 49.79 49.73 49.75 49.87 50.31 50.35 50.39 50.48 50.82 50.56 50.67 49.81 45.18 48.34 49.50 43.77 43.41 47.74 48.09 49.08 48.48 47.72 42.46 40.87 41.20 45.90 48.49 44.95 47.01 45.32 45.60 48.23 47.17 43.74 51.70 46.88 49.91 49.02 47.92 46.61 52.75 55.14 52.54 54.30 54.84 53.10 55.59 55.23
50.69 50.47 50.26 50.09 49.68 49.67 49.71 49.92 49.82 50.00 49.97 50.16 50.09 50.42 50.29 50.35 50.65 49.38 45.48 45.51 44.82 42.67 42.96 41.39 43.12 48.63 50.70 49.90 48.25 39.51 41.66 45.71 46.69 47.20 45.72 47.31 45.52 48.43 44.94 47.20 49.62 52.21 54.07 50.68 51.06 52.50 54.41 56.00 57.55 57.88 57.33 55.82 56.76 57.29
50.30 50.16 49.85 49.78 49.85 49.52 49.52 49.19 49.49 49.66 49.76 49.90 49.65 49.93 50.12 50.37 50.67 49.86 44.78 45.21 44.58 43.22 37.94 40.26 48.30 45.86 49.73 48.36 48.58 46.65 44.10 44.88 45.94 44.59 41.74 43.61 44.48 47.87 46.00 48.40 48.38 51.70 52.47 50.33 51.12 53.80 54.18 54.75 55.13 55.67 56.86 56.69 56.89 57.52
49.99 49.69 49.86 49.65 49.07 49.30 49.01 49.23 49.15 49.25 49.49 49.48 49.61 50.07 50.22 50.37 50.71 48.59 46.38 45.76 47.23 44.02 38.44 39.41 45.19 48.35 48.83 48.89 48.80 48.56 44.52 43.02 42.83 40.90 40.21 40.04 45.29 46.02 46.18 47.67 46.45 52.17 50.31 48.46 46.91 53.18 52.85 52.69 54.68 55.75 53.89 54.17 54.53 53.47
49.85 49.65 49.89 49.43 49.19 49.48 49.09 48.89 48.95 49.06 49.83 49.78 49.84 50.01 50.10 50.39 50.44 45.08 43.34 45.96 47.26 45.59 38.47 36.21 44.82 44.92 46.86 48.07 46.89 46.45 46.10 43.33 43.88 40.84 40.69 42.55 44.56 44.64 42.52 41.49 46.67 52.43 52.35 51.51 50.75 54.84 54.15 55.34 55.53 54.40 52.58 53.74 54.08 53.43
49.80 49.52 49.31 49.08 49.31 49.00 48.99 49.00 49.05 49.04 49.64 49.49 49.68 50.28 50.57 50.55 44.44 41.54 41.74 47.06 48.40 44.93 40.13 38.53 39.48 44.60 47.88 46.53 46.65 44.44 45.90 44.63 42.88 40.02 39.73 40.68 41.68 43.08 40.63 39.28 46.88 50.12 50.91 52.23 53.67 52.47 48.05 50.74 48.93 52.57 54.42 55.00 54.84 54.22
49.65 49.34 49.32 49.19 49.13 49.16 48.90 48.97 48.84 49.14 49.16 49.50 50.44 50.56 50.48 50.12 47.62 42.06 45.41 47.54 46.63 41.81 40.84 37.02 39.33 41.66 45.13 42.16 42.89 45.71 42.46 43.56 42.51 41.22 41.10 40.67 42.22 40.84 38.34 42.33 42.93 46.61 48.93 49.27 49.25 49.19 48.57 49.90 51.15 51.00 52.69 52.86 51.40 50.86
49.48 49.19 48.98 48.61 49.15 48.75 48.69 48.72 48.66 48.80 48.97 49.58 50.00 50.50 45.58 42.40 40.96 43.50 53.17 50.80 45.62 42.89 38.23 39.69 37.05 36.76 43.92 42.90 44.25 44.20 44.53 40.22 44.05 40.03 38.96 42.05 43.80 43.61 45.12 45.25 46.99 47.29 47.05 46.77 49.29 49.46 49.46 48.93 48.95 49.60 50.22 50.20 49.21 49.14
49.03 49.08 48.96 48.76 49.05 48.85 49.13 48.77 48.21 48.58 48.62 49.47 45.38 42.94 38.57 43.68 52.85 50.49 43.07 40.99 40.85 41.67 39.90 37.13 40.97 37.14 40.61 41.73 40.62 42.97 43.34 41.24 38.41 41.38 43.69 44.54 44.06 46.58 47.02 47.26 48.61 49.59 50.16 50.17 48.05 47.19 47.35 47.41 48.34 48.87 49.23 49.93 49.66 48.98
48.98 48.94 48.72 49.07 49.11 48.69 49.42 48.66 48.17 48.53 47.82 42.11 41.48 41.85 45.50 51.70 41.80 39.95 37.26 38.61 39.71 37.56 39.59 38.80 38.85 37.20 44.44 40.32 40.63 42.11 39.77 40.95 38.41 40.78 40.12 41.82 41.55 44.35 47.99 48.98 50.20 50.77 51.61 49.99 49.24 48.34 48.31 47.87 48.47 48.10 48.94 50.18 50.24 49.62
48.61 48.42 49.29 49.18 48.58 48.75 48.90 48.65 48.12 44.33 44.76 45.39 45.29 46.07 45.45 41.32 37.32 34.81 34.69 38.49 37.97 35.84 39.12 38.01 39.21 43.01 43.54 44.57 41.96 42.44 39.75 41.13 37.62 44.01 42.38 41.08 45.51 46.56 48.40 49.63 50.66 50.44 51.54 51.28 51.38 50.57 50.97 51.49 50.89 50.15 49.85 49.22 49.55 50.53
48.71 49.01 49.68 49.17 49.13 49.21 48.85 48.29 47.93 48.57 48.19 48.01 44.25 41.60 39.38 36.84 26.79 32.63 30.43 34.16 35.15 39.36 39.54 39.73 39.45 40.93 42.00 42.36 41.30 40.85 38.65 36.66 42.46 41.71 40.62 42.26 45.11 47.88 48.38 49.22 49.64 50.41 51.43 51.79 51.79 51.94 52.22 53.34 53.67 52.09 51.21 51.71 51.74 51.79
48.79 49.33 49.68 49.60 49.64 49.51 49.35 48.84 48.53 47.80 45.87 41.65 38.60 32.24 33.22 32.13 34.83 34.03 36.30 39.25 42.06 41.30 41.59 41.56 40.11 40.26 41.57 40.30 40.64 38.03 40.51 40.89 38.44 37.63 38.58 42.13 43.87 46.06 47.16 48.89 49.76 49.92 51.22 51.27 51.33 53.61 53.41 52.71 53.22 54.19 54.25 53.13 52.56 51.98
49.05 49.21 49.15 49.39 49.29 49.28 49.51 49.30 49.19 47.07 43.47 38.91 38.95 32.62 36.05 39.92 40.75 43.40 43.74 43.74 42.80 42.84 41.35 41.02 41.44 41.60 39.53 38.80 40.08 39.21 38.98 38.51 40.18 39.30 40.89 44.12 44.94 45.58 46.40 48.98 48.91 48.98 49.08 49.97 51.16 52.76 53.01 52.61 52.66 52.69 53.78 53.27 52.93 51.80
49.05 48.61 47.45 49.48 49.74 49.53 49.22 47.99 46.06 46.64 43.35 40.56 39.79 37.58 39.39 39.60 39.99 41.01 40.57 39.99 43.03 42.50 42.24 41.70 39.34 37.79 38.31 38.16 38.37 37.67 39.57 37.98 40.28 42.45 44.80 46.00 45.88 46.41 45.56 45.94 47.61 49.17 49.37 49.07 49.66 50.48 52.10 51.85 51.50 51.43 52.59 53.07 53.17 51.83
48.81 42.88 48.86 49.29 49.06 48.65 48.58 45.08 45.05 43.55 41.70 40.15 38.03 41.83 41.99 40.36 40.41 40.64 40.39 40.83 44.64 42.41 40.11 40.69 37.64 37.32 40.17 36.30 37.99 41.83 39.07 42.01 42.44 44.57 47.50 46.56 46.52 46.79 47.71 48.55 49.33 50.63 49.80 49.10 49.32 49.93 50.45 52.21 52.29 51.41 49.74 51.32 52.68 52.88
43.18 46.70 49.91 49.51 47.98 46.61 43.93 43.57 43.57 41.57 38.91 39.55 38.44 38.98 41.34 42.67 40.70 40.29 42.64 43.81 42.42 41.82 41.81 40.00 41.94 37.55 36.85 37.31 38.10 43.24 42.66 43.46 47.71 45.67 46.24 47.33 47.84 48.25 49.52 49.42 49.94 50.06 50.07 49.83 49.41 49.23 49.90 50.15 48.60 49.27 50.07 50.45 50.51 50.96
45.85 46.56 49.21 49.67 47.72 43.73 42.52 42.20 42.21 36.16 38.07 41.47 44.06 41.78 41.19 41.95 42.77 43.22 43.09 42.98 43.03 43.17 42.28 40.94 39.32 37.89 38.67 41.11 41.43 42.13 42.78 43.60 44.19 46.73 46.93 47.06 47.76 48.50 49.18 49.30 50.63 49.38 50.63 49.28 48.77 49.06 49.53 49.36 48.33 48.07 49.65 50.64 48.48 48.97
48.70 48.35 48.41 49.40 48.31 41.49 41.12 39.47 43.62 38.82 37.99 39.45 40.70 41.46 40.11 39.25 41.28 40.98 41.26 41.60 40.86 40.10 38.92 38.79 40.38 42.47 42.80 43.38 44.05 44.48 45.54 46.46 46.07 45.31 45.85 47.80 49.27 48.39 48.29 47.92 48.61 49.36 49.28 48.19 47.08 46.58 46.18 45.70 46.69 49.10 49.72 49.51 48.41 47.79
47.93 47.79 47.88 46.76 44.82 44.19 41.85 40.66 40.28 40.44 40.47 39.01 41.80 41.42 42.14 41.71 41.61 41.75 41.90 43.68 39.47 36.87 38.82 41.07 42.12 43.96 45.49 45.83 46.84 47.39 47.39 47.48 46.14 46.77 47.45 47.67 49.08 49.98 50.39 49.72 48.37 48.12 47.12 49.64 46.24 45.91 44.95 45.37 46.43 46.50 47.49 46.67 47.49 48.61
46.95 49.88 45.31 47.08 43.21 42.58 39.90 41.71 38.27 40.23 38.61 38.16 38.87 40.34 39.11 38.58 39.55 39.50 41.89 40.18 39.90 43.02 42.22 42.14 42.32 43.82 45.03 45.12 47.09 51.38 52.08 51.86 51.86 51.96 49.50 49.73 49.94 49.18 48.68 48.96 48.51 48.56 49.97 49.90 48.77 47.15 45.46 44.72 46.05 46.38 46.46 46.74 47.82 48.42
48.13 46.15 42.76 42.78 38.04 36.27 34.44 41.84 40.63 40.83 37.05 36.67 39.82 39.23 39.28 39.63 39.58 41.92 37.64 38.81 40.25 43.16 44.29 45.22 44.86 46.78 47.41 50.18 52.52 52.50 52.30 51.65 50.33 50.41 50.33 51.13 52.37 52.45 49.89 50.19 49.86 48.41 48.91 48.97 47.68 46.93 44.47 44.98 45.54 45.44 45.32 46.05 45.76 45.91
46.69 40.82 37.78 37.51 37.29 34.32 40.08 38.42 39.68 39.35 40.34 37.59 36.49 34.53 37.73 39.09 40.94 39.56 38.45 39.30 42.00 46.03 48.77 49.09 50.52 49.33 49.12 49.33 49.06 49.46 50.26 50.34 50.19 50.39 50.56 49.48 48.99 49.37 47.47 47.61 45.46 43.52 44.14 45.53 46.18 46.62 46.76 46.73 46.32 46.79 46.90 46.63 46.56 45.66
36.09 35.45 35.75 33.71 36.92 34.99 35.81 37.65 37.37 36.88 35.42 37.05 36.00 36.27 37.96 41.17 38.68 40.09 40.22 43.28 45.96 47.23 47.38 48.78 48.78 48.41 47.76 47.79 48.08 49.40 51.06 51.27 50.50 49.63 51.37 51.16 49.82 45.37 45.46 45.90 43.07 41.97 43.52 43.22 42.55 42.60 42.70 43.41 44.09 44.40 45.06 45.58 45.10 46.05
32.88 37.14 33.68 36.16 36.01 35.91 37.57 35.69 35.98 36.52 36.89 37.10 37.94 42.26 42.04 40.27 40.28 38.61 40.60 42.72 43.76 46.38 47.24 47.40 47.95 49.40 49.89 50.31 48.56 50.21 49.66 48.31 48.83 48.09 46.28 45.70 44.34 41.62 40.16 39.82 39.28 40.43 42.95 41.85 41.30 41.95 43.18 43.43 42.80 43.06 42.94 43.37 42.08 43.33
37.03 41.33 39.68 41.51 41.83 41.64 41.65 44.02 43.20 40.18 39.69 38.61 40.56 42.01 41.66 39.13 40.56 43.78 45.82 47.04 48.30 50.61 50.80 51.18 51.04 51.11 49.88 48.21 46.78 47.09 49.30 48.44 45.50 44.73 44.26 45.35 43.08 42.43 41.85 40.27 38.82 40.13 42.25 43.03 41.94 41.83 41.95 41.98 41.63 41.82 41.48 41.56 43.79 45.17
43.58 46.74 43.55 43.17 44.24 45.88 42.87 42.99 42.43 42.33 42.58 44.74 45.66 41.10 40.26 41.40 42.49 45.91 47.40 49.69 50.75 51.89 51.74 51.12 49.57 47.01 45.33 43.34 43.27 43.90 43.40 43.40 43.85 43.92 43.56 43.58 42.38 41.69 41.17 40.65 40.18 40.51 40.94 41.56 41.24 41.16 41.59 40.91 40.68 40.77 40.99 42.75 43.14 43.85
47.29 48.15 46.21 44.47 44.97 44.55 43.05 41.96 41.51 42.50 44.20 42.93 41.01 41.04 42.87 45.91 47.74 49.13 50.43 50.08 50.54 47.82 45.80 44.61 44.49 44.64 44.35 44.10 44.78 43.94 42.97 42.05 41.17 39.83 38.48 37.49 37.52 38.12 39.54 39.56 39.45 39.69 39.31 39.49 40.22 40.86 41.60 40.82 40.28 39.48 40.29 42.27 42.43 41.97
45.60 48.00 45.76 45.81 44.46 43.61 45.12 45.03 44.26 45.94 46.79 46.83 47.24 47.18 47.01 47.50 49.53 49.43 48.28 48.12 47.12 45.79 44.93 43.84 43.71 44.31 42.04 41.37 40.89 41.96 42.67 42.30 41.27 39.69 36.82 36.27 36.97 38.36 38.65 38.88 39.12 39.05 39.05 39.85 39.97 40.24 40.43 39.88 39.31 38.78 38.35 38.32 38.04 37.72
48.92 47.26 46.08 45.93 46.49 49.07 48.27 47.10 48.57 47.73 48.02 47.64 47.88 45.91 45.24 46.29 48.44 49.78 48.97 47.97 48.11 47.52 45.08 43.66 43.08 42.61 41.73 41.04 40.52 39.99 39.04 40.91 41.48 40.42 39.23 38.41 38.16 38.73 39.41 39.16 39.01 39.50 39.99 40.21 40.02 39.41 39.19 38.27 38.40 37.35 37.89 37.65 37.85 36.93
48.96 46.87 45.41 44.86 45.05 48.57 50.12 47.72 47.19 47.83 49.06 47.19 47.28 48.34 47.19 45.58 43.42 45.90 48.07 47.40 46.01 44.17 44.69 43.75 42.65 42.45 43.37 42.77 42.86 42.17 40.93 40.58 40.11 40.18 39.32 38.86 38.70 38.93 38.53 38.04 38.42 39.30 39.71 39.50 39.30 38.33 37.74 37.14 37.47 37.29 37.15 37.36 36.84 36.45
49.76 50.77 48.96 47.15 47.01 46.55 48.34 48.33 48.37 46.88 48.05 47.43 48.39 49.26 49.53 48.42 46.18 48.69 50.61 49.60 45.92 44.26 43.43 43.60 43.53 43.50 42.82 42.73 42.04 41.41 40.84 40.74 40.20 39.53 38.97 38.56 38.03 37.72 37.15 37.67 38.42 40.00 37.91 37.04 36.28 36.37 35.49 35.40 35.97 35.36 35.42 35.73 36.07 36.32

GFSWCAN_sfc_wetblb_015.txt.gz
Wetbulb
50.54 50.61 50.64 50.58 50.49 50.26 50.22 50.11 50.06 50.03 50.09 50.32 50.44 50.77 50.63 50.39 50.68 46.11 43.36 46.57 44.90 42.53 42.44 44.81 45.29 41.42 40.87 41.59 39.26 43.17 41.27 45.94 45.56 43.23 43.61 43.22 43.36 43.20 47.33 48.26 44.87 44.90 44.33 43.67 42.53 39.36 40.09 53.37 52.85 48.77 50.59 52.70 52.93 53.27
50.61 50.51 50.54 50.62 50.59 50.40 50.30 49.96 49.90 49.71 49.81 50.11 50.44 50.36 50.32 50.25 50.47 48.61 42.29 46.81 48.11 43.21 41.59 46.54 47.28 48.39 46.73 45.71 42.75 41.61 40.17 44.49 45.93 42.12 45.14 43.91 45.32 45.41 45.35 43.97 51.42 44.49 48.60 47.12 45.19 44.08 50.13 53.56 51.29 53.16 53.53 51.02 52.99 53.86
50.42 50.28 50.32 50.33 50.28 50.04 50.05 49.87 49.76 49.73 49.71 49.85 50.02 50.21 49.85 49.94 50.13 49.48 43.97 44.18 45.36 42.51 41.33 41.80 42.79 46.74 47.44 48.34 49.22 40.81 42.16 45.01 46.18 48.61 44.75 46.78 44.86 46.65 43.13 45.89 48.93 51.17 52.25 49.00 49.48 49.60 51.09 53.53 54.44 55.65 54.61 52.54 53.30 54.51
50.44 50.15 50.24 49.95 50.03 49.97 49.86 49.73 48.98 49.28 49.33 49.62 49.89 49.83 49.68 49.93 50.08 49.93 44.63 43.61 41.71 41.70 38.45 40.30 47.99 45.55 48.14 46.49 47.52 48.08 44.66 45.12 45.97 46.31 44.37 44.96 44.61 45.44 44.63 46.76 48.21 50.93 52.69 50.71 49.77 53.08 52.67 53.38 54.50 54.91 55.24 56.30 55.41 55.50
50.29 49.68 49.86 49.72 49.56 49.40 49.09 49.25 48.95 48.76 49.08 49.48 49.25 49.42 50.09 49.93 50.46 47.81 43.21 43.57 45.33 42.43 38.92 39.50 44.63 46.53 45.47 45.23 47.18 47.76 44.91 43.70 43.10 43.07 42.45 41.45 46.39 48.02 46.25 46.43 46.36 51.01 49.21 47.10 47.41 51.07 51.10 51.72 55.03 55.19 53.27 53.52 53.32 53.50
50.51 49.43 49.70 49.41 49.35 49.25 49.53 49.21 48.92 48.81 48.72 49.56 49.77 49.79 49.98 50.22 49.73 41.82 42.75 43.31 46.62 46.27 39.22 35.11 43.17 43.96 43.48 44.58 44.80 44.07 43.98 43.48 44.04 42.26 42.06 43.17 46.01 47.91 42.79 42.09 47.09 50.07 53.00 51.53 52.08 55.44 52.76 54.41 53.21 54.67 53.11 53.00 53.17 52.10
49.98 49.63 49.38 49.22 48.95 49.20 49.20 48.88 48.60 48.55 48.84 49.61 49.48 49.50 50.05 50.16 44.27 38.23 39.51 44.97 48.07 45.80 40.19 38.17 38.44 43.30 44.47 43.91 44.24 42.97 43.25 42.55 43.11 40.86 41.01 40.28 42.08 42.68 40.57 38.51 42.91 45.32 51.64 53.39 53.24 50.72 48.31 50.21 49.81 52.64 52.89 52.92 52.55 51.40
49.76 49.40 48.90 48.87 48.79 48.65 48.94 48.30 48.48 48.47 49.07 49.07 49.29 50.28 50.48 50.21 47.58 42.58 45.09 48.26 46.82 41.36 40.30 35.40 37.84 39.46 43.12 40.54 41.22 43.27 41.93 40.92 41.33 41.02 41.39 40.81 45.04 43.97 40.18 44.30 45.34 46.55 48.02 47.94 48.65 49.59 49.93 50.70 49.87 49.60 49.60 50.40 49.47 48.64
48.93 48.83 48.63 48.19 48.43 48.68 48.23 48.19 48.31 48.53 48.77 49.04 49.23 50.15 44.80 42.48 38.89 42.93 50.98 49.39 44.55 42.08 37.87 38.65 36.63 34.88 42.08 40.60 42.35 43.11 41.89 38.72 41.81 38.74 41.66 44.72 44.06 42.29 44.60 43.37 45.12 46.75 44.39 44.61 47.07 48.12 48.69 48.08 47.87 48.29 48.66 48.79 47.37 47.30
48.65 48.54 48.57 48.37 48.68 48.34 48.84 48.23 47.99 48.02 48.19 49.07 44.35 41.61 39.38 43.55 52.15 48.10 42.07 39.79 39.85 40.47 39.07 36.90 40.38 36.51 40.41 40.30 39.95 41.65 41.90 39.31 36.80 38.71 46.88 44.22 43.58 46.83 45.05 45.50 46.05 47.38 47.33 47.59 46.26 45.76 46.65 46.73 47.31 47.66 47.64 48.42 48.12 47.70
48.67 48.50 48.16 48.87 48.75 48.43 48.75 48.10 47.82 48.34 46.50 42.16 41.17 41.20 45.28 48.97 40.91 38.70 35.90 36.68 38.14 37.31 38.56 38.68 38.05 36.50 42.32 39.82 40.13 41.69 38.56 39.10 36.77 38.22 43.84 43.63 42.61 43.89 46.35 47.03 47.97 48.37 48.92 48.25 47.96 47.24 47.35 46.62 47.57 47.74 48.40 49.12 48.74 48.51
48.80 48.51 49.08 49.17 48.51 48.77 48.54 48.21 48.09 45.48 45.23 44.74 44.67 45.02 43.47 40.27 35.69 33.23 32.97 36.31 37.07 35.76 37.69 38.13 39.26 39.93 42.21 43.03 41.09 41.51 39.17 39.65 35.98 43.55 42.49 41.29 44.51 45.18 46.85 47.64 48.89 48.48 50.27 50.26 50.74 50.14 50.62 51.56 51.71 50.62 49.58 49.50 49.87 50.15
49.35 49.63 49.41 48.98 48.98 48.91 48.48 47.87 47.99 48.87 48.69 46.51 42.46 38.94 36.56 34.84 26.27 31.35 30.78 32.73 33.06 36.94 38.44 39.48 38.63 40.17 41.77 41.56 40.62 40.00 38.80 37.45 43.78 41.08 40.30 42.61 45.87 47.97 47.26 48.04 48.96 49.90 50.68 51.16 51.44 52.48 52.70 52.41 52.77 52.37 52.14 52.52 52.11 50.72
49.21 49.21 49.56 49.61 49.22 48.81 48.74 48.34 48.75 47.87 44.94 40.36 37.73 30.87 32.48 31.76 34.22 34.61 37.66 38.49 41.14 41.36 40.42 39.72 40.72 40.00 40.23 39.39 39.91 38.87 39.63 42.27 38.68 37.54 37.97 42.28 44.08 45.59 47.40 49.35 48.76 48.04 48.74 49.10 49.54 51.44 52.17 51.65 51.67 52.79 52.94 52.60 51.93 50.78
49.04 49.12 49.19 48.95 49.30 49.06 48.86 48.65 48.83 46.64 41.04 37.31 38.92 34.09 37.25 40.35 41.44 43.24 44.48 43.00 42.69 42.80 40.22 40.71 41.09 40.18 38.59 38.41 39.35 38.71 39.16 37.44 39.16 38.61 40.34 43.20 44.34 43.81 44.01 45.55 45.88 46.87 47.68 47.66 48.20 48.64 49.82 51.22 50.87 50.65 51.88 51.96 51.70 50.76
48.87 47.26 46.73 49.43 49.57 49.10 48.48 46.40 44.28 43.99 41.84 40.13 39.94 38.47 41.27 39.71 40.03 41.39 42.32 41.49 43.76 42.28 41.24 40.63 38.27 36.87 36.92 36.52 37.94 38.69 38.49 37.25 39.51 41.05 42.96 43.89 44.08 44.85 45.25 46.25 46.14 47.18 47.70 47.60 47.51 48.19 48.92 49.05 49.58 49.85 50.80 51.16 51.51 50.75
47.06 42.64 49.09 48.99 48.98 48.54 47.69 43.28 43.24 42.03 39.98 39.74 39.42 42.80 41.77 40.59 39.05 40.13 39.91 41.18 43.06 41.35 38.94 39.64 37.28 36.88 38.97 36.44 38.09 40.61 39.67 41.84 42.29 44.30 44.77 44.35 44.27 44.91 45.86 46.75 48.39 48.15 47.93 47.91 48.02 48.16 48.41 49.41 49.14 48.90 48.49 49.20 50.08 50.53
42.42 45.17 49.77 49.53 47.97 45.69 43.08 42.63 41.92 41.05 38.33 39.52 38.11 38.93 39.88 41.31 40.55 39.72 41.10 41.63 41.77 39.95 40.19 39.53 40.87 38.13 37.21 37.20 37.26 42.48 41.22 42.29 44.34 44.52 45.19 45.73 45.44 46.27 47.13 46.46 47.57 47.96 47.96 47.92 47.95 47.82 47.68 47.32 47.11 47.02 46.76 48.73 48.85 48.97
44.69 45.63 48.71 49.30 47.80 42.43 41.61 42.01 42.00 36.46 38.03 39.38 39.85 39.93 39.48 39.45 40.02 40.87 40.80 41.13 41.15 41.67 41.15 39.83 38.35 36.93 37.86 41.06 40.05 40.83 41.63 42.38 43.13 44.43 45.85 46.62 46.36 47.31 47.51 47.80 47.84 47.35 47.29 46.93 47.12 46.57 46.59 47.11 47.26 46.71 46.56 48.03 47.91 46.92
47.93 48.00 49.51 49.65 47.61 40.36 39.46 38.96 41.75 37.74 36.37 38.05 41.61 39.67 38.69 38.56 39.25 39.73 41.04 42.34 39.63 38.72 38.66 38.41 38.64 40.89 40.93 42.01 42.71 43.26 44.63 45.05 44.45 44.21 44.34 45.69 46.87 47.44 47.71 47.58 47.64 47.26 46.86 46.86 46.34 44.05 44.44 44.34 44.59 45.34 47.20 47.45 47.69 47.66
46.94 46.39 48.81 46.69 43.08 42.04 39.53 38.29 37.62 37.99 38.23 36.88 38.35 38.51 38.53 40.41 39.77 39.30 38.36 40.54 38.96 35.76 37.91 40.21 41.25 42.44 43.20 43.98 45.06 45.60 47.28 45.18 44.55 45.27 44.55 45.39 47.53 47.12 48.06 50.46 49.91 48.95 48.11 48.32 46.94 47.70 44.27 43.56 43.42 44.43 45.33 47.03 47.72 47.82
43.74 48.80 44.03 44.79 40.24 38.26 36.97 38.32 36.54 37.82 36.49 36.24 36.88 38.02 37.01 36.90 36.34 36.71 38.85 37.68 37.42 39.28 40.13 40.65 40.56 41.33 43.09 44.78 46.67 49.64 51.05 51.51 47.71 48.29 47.59 48.45 47.26 47.16 48.51 48.38 48.05 48.17 47.73 46.68 46.11 45.62 45.08 42.72 43.11 43.77 43.96 44.18 44.08 45.40
46.23 43.52 40.11 40.12 36.03 34.23 33.09 39.69 38.62 37.53 34.45 35.20 37.04 35.35 35.07 36.18 36.83 38.84 35.63 36.58 37.87 40.52 41.43 42.68 44.27 43.85 46.41 48.55 49.45 49.82 50.14 49.96 48.98 48.34 48.58 48.80 49.44 49.40 48.90 48.17 46.65 42.98 41.58 41.61 42.43 42.32 42.71 42.91 43.62 44.02 44.59 44.74 44.24 43.89
45.51 38.23 35.24 36.50 37.02 34.51 37.11 36.99 37.23 38.68 38.23 35.81 34.98 33.93 37.03 38.51 41.93 40.26 38.97 41.00 41.96 44.49 46.78 47.30 48.44 48.52 49.29 49.13 48.68 48.61 49.07 49.26 48.05 49.43 49.80 47.86 47.16 43.77 42.06 39.50 39.97 40.20 40.14 40.11 39.95 40.35 41.56 42.33 41.60 42.42 42.61 43.28 42.69 42.28
37.38 36.32 35.95 32.61 36.51 35.65 36.08 36.81 37.10 36.62 35.42 36.68 36.51 37.33 38.66 41.12 39.46 40.21 40.54 43.03 45.23 46.31 47.07 48.05 47.48 46.98 47.12 47.34 46.69 46.89 47.47 47.68 47.37 46.80 44.84 45.53 43.15 41.38 39.52 39.06 39.15 39.21 39.86 39.26 38.92 39.44 39.84 41.58 41.86 42.46 42.13 41.26 40.83 41.12
32.89 37.30 34.01 36.73 36.14 36.20 37.15 35.82 35.73 36.29 37.39 37.62 38.74 42.11 41.63 39.98 39.87 39.03 41.92 44.18 44.60 45.72 45.27 45.78 45.80 46.53 45.37 46.28 46.09 45.20 43.33 43.70 43.37 41.89 41.19 39.81 40.28 39.43 37.78 37.21 36.95 37.81 40.09 38.83 38.25 39.16 39.78 40.20 39.94 40.21 39.78 40.62 41.40 43.50
35.70 38.82 38.74 39.59 39.95 38.35 39.62 41.82 40.01 37.78 37.76 37.25 38.22 41.21 40.64 39.10 38.71 43.33 46.01 47.80 46.11 47.71 48.77 50.02 49.41 46.87 42.90 42.77 43.43 41.32 40.58 41.25 41.32 41.02 40.63 38.96 39.37 40.09 39.31 37.48 36.18 37.79 39.42 40.22 39.09 39.10 39.89 39.33 39.06 39.13 39.35 42.45 42.54 42.60
42.15 42.56 39.25 39.41 40.39 41.51 40.39 41.47 40.93 39.90 42.35 43.73 42.36 40.86 41.29 40.31 39.83 45.78 47.20 47.74 48.68 47.75 47.17 45.52 44.21 43.18 42.12 40.79 40.19 40.16 40.09 40.10 41.46 40.34 39.19 39.06 37.85 37.50 37.59 37.87 37.75 38.36 37.61 38.06 38.33 39.52 39.12 38.88 38.47 38.31 39.69 41.63 40.93 41.35
42.23 45.72 44.21 40.59 42.26 43.04 40.75 39.95 39.83 41.08 42.63 42.22 40.44 40.11 41.71 44.65 46.62 46.82 46.66 44.66 44.28 44.48 42.37 42.24 41.87 41.77 41.22 40.99 41.15 40.49 39.99 39.31 38.64 36.42 35.13 34.86 34.84 36.25 37.02 37.14 37.29 37.28 36.88 37.46 39.10 39.02 39.32 38.78 37.89 37.40 37.65 40.05 40.62 39.95
43.39 45.32 44.35 45.49 42.85 41.21 42.98 42.84 43.36 44.50 44.80 44.65 45.01 44.77 44.83 47.11 48.57 48.33 47.01 44.50 42.42 40.74 40.17 40.31 39.46 39.37 38.73 38.92 38.50 39.73 39.71 38.23 38.19 37.42 35.12 34.76 34.95 35.75 36.11 36.59 36.47 36.61 37.19 38.14 37.93 37.86 38.44 37.66 37.37 37.06 37.78 36.95 36.15 35.92
47.33 44.66 43.78 44.53 45.04 46.61 46.87 45.23 46.09 46.93 47.80 46.95 47.45 45.11 43.75 44.18 44.88 46.99 45.15 43.17 42.72 42.30 41.50 40.89 40.36 39.54 38.96 38.43 37.72 36.89 36.06 37.84 37.33 37.32 36.95 35.62 35.49 36.27 36.69 36.36 35.85 35.87 36.62 37.09 36.39 35.86 35.76 35.85 35.59 35.24 35.68 35.93 36.79 36.48
47.53 46.28 44.43 41.68 42.47 47.33 49.11 47.30 46.39 46.18 46.89 47.27 48.45 49.45 48.93 46.70 42.64 45.52 48.39 46.68 44.84 42.29 41.32 40.41 39.47 39.25 39.92 39.23 38.21 37.48 37.67 36.57 37.07 37.08 36.93 36.40 36.27 36.34 35.74 35.74 36.00 36.74 36.25 36.10 35.48 34.53 35.07 34.91 34.37 34.49 34.39 34.56 35.00 35.07
48.83 47.86 47.99 46.86 44.70 45.92 46.60 48.50 46.69 45.34 48.24 47.10 46.03 47.10 44.83 42.71 41.00 47.57 51.14 50.26 45.67 41.05 38.62 38.65 38.52 39.15 38.25 37.85 37.68 37.31 37.21 36.98 36.73 36.91 36.87 36.51 36.26 35.88 34.95 34.88 36.20 35.89 34.15 33.48 33.01 32.46 31.60 32.22 32.26 31.27 30.75 30.45 31.10 32.31

GFSWCAN_sfc_wetblb_021.txt.gz
Wetbulb
49.70 49.55 49.79 49.90 50.30 50.43 50.46 50.58 50.72 50.96 50.76 50.68 50.34 50.44 50.29 50.27 50.01 48.28 47.08 47.29 44.41 39.03 39.28 41.21 41.59 37.97 40.69 41.16 36.85 41.63 41.47 45.54 47.35 46.63 47.55 46.99 46.40 50.06 50.14 51.98 50.99 50.17 48.92 47.84 48.68 45.13 44.06 55.47 55.29 52.26 55.62 58.26 58.58 59.26
49.88 49.77 49.53 49.61 49.88 49.58 50.00 50.13 50.37 50.28 50.32 50.17 50.08 50.02 49.41 49.40 50.04 49.33 44.69 45.99 47.81 41.41 39.30 44.07 44.19 44.90 44.86 44.01 40.99 43.33 42.94 41.46 46.45 45.50 47.15 47.50 48.70 50.64 50.50 47.19 53.51 48.90 52.86 48.88 48.97 48.96 54.95 55.32 55.53 57.15 58.01 57.98 59.25 61.85
49.92 49.55 49.50 49.54 49.49 49.66 50.10 50.37 50.02 49.95 49.84 49.24 49.22 49.42 49.46 50.02 48.81 48.89 46.07 44.34 43.94 39.80 40.00 40.83 39.71 44.84 47.35 46.95 47.57 39.32 44.77 46.78 47.82 50.57 47.59 47.62 47.36 51.98 49.34 50.51 51.11 53.35 54.90 51.36 52.32 53.53 53.43 54.13 55.81 56.40 56.96 56.29 57.36 58.50
49.87 49.59 49.53 49.90 50.21 50.22 49.89 49.75 49.89 49.41 48.93 48.94 48.99 48.62 48.88 48.60 49.14 48.88 46.13 46.76 44.16 40.77 34.17 38.33 48.08 45.43 50.13 49.50 47.22 46.25 46.63 47.90 46.56 47.73 46.82 47.31 47.97 50.29 51.15 50.77 52.59 50.15 54.62 51.73 51.26 52.19 53.78 53.48 55.42 56.24 56.26 56.48 56.20 57.12
49.92 49.98 50.29 49.97 49.50 49.32 49.57 49.68 49.48 48.74 48.58 48.18 48.85 49.20 49.03 49.38 49.27 49.47 48.21 47.09 46.90 40.40 33.85 35.99 42.16 47.21 48.87 48.34 46.50 46.87 46.19 45.43 43.95 42.34 44.20 45.61 50.51 51.75 51.66 51.52 45.86 48.79 49.83 51.06 49.80 53.87 54.37 53.31 55.09 56.22 54.62 54.57 55.97 55.81
49.90 49.92 49.41 49.36 49.44 49.01 49.07 48.76 48.50 48.50 48.63 48.30 48.93 48.77 49.12 49.56 48.27 46.07 39.18 45.01 46.77 45.95 37.50 36.31 45.19 45.15 48.00 47.57 46.60 45.67 44.92 45.00 43.93 45.98 45.76 45.89 48.78 52.31 48.05 46.15 47.28 48.95 51.58 51.71 53.77 55.72 54.81 54.73 54.57 53.64 52.88 53.08 54.19 54.01
49.60 49.32 49.09 49.26 49.11 49.21 49.26 48.63 48.23 48.59 48.36 48.65 49.40 49.26 49.22 49.54 48.19 41.94 39.60 44.50 46.87 47.29 39.75 37.55 39.60 46.49 48.18 46.85 46.46 45.08 46.41 45.48 45.20 45.59 46.13 47.04 47.83 51.74 46.76 42.37 46.86 49.66 52.19 52.77 54.46 54.17 50.69 52.59 49.77 52.88 53.41 53.30 53.64 54.07
49.43 49.14 48.79 48.71 48.84 49.23 48.65 48.46 48.39 48.31 48.33 48.44 48.78 49.05 49.70 49.83 48.69 44.25 46.88 48.51 48.02 42.57 40.76 36.50 38.49 43.75 47.68 45.54 44.63 46.55 44.46 44.98 44.87 45.15 48.22 48.00 49.01 48.36 42.63 46.04 48.06 50.04 51.25 50.87 51.36 52.96 52.32 53.14 53.88 53.51 53.15 53.63 52.40 52.28
48.86 48.81 48.76 48.62 48.93 48.64 48.59 48.88 48.68 48.25 48.17 48.15 48.61 48.60 46.87 44.97 41.69 44.11 49.84 51.13 47.57 41.58 37.05 38.42 37.63 39.37 47.95 44.48 45.39 44.70 45.53 42.06 46.00 48.12 47.73 48.53 44.12 41.32 45.09 45.90 47.29 48.87 49.54 49.67 50.80 51.21 51.16 51.17 51.78 52.75 53.16 53.32 52.11 52.28
48.87 48.69 48.52 49.38 48.78 49.00 49.30 48.62 48.45 48.71 48.92 48.42 45.83 43.60 41.81 45.31 49.99 49.27 46.24 42.24 40.24 41.10 41.22 37.19 42.43 39.43 44.11 45.83 44.26 44.45 44.93 42.30 44.91 46.04 49.89 44.85 42.70 46.66 48.15 48.98 49.47 50.08 51.13 50.69 49.57 49.58 51.26 51.55 52.14 52.47 53.20 54.15 54.41 54.46
49.91 49.83 49.48 49.32 49.37 49.42 48.95 48.82 49.00 49.06 48.38 46.28 43.15 42.78 47.24 48.90 46.01 42.88 39.49 39.23 40.48 38.42 40.51 41.73 42.36 40.85 46.80 42.84 44.07 45.56 43.00 42.92 41.73 44.61 46.08 42.75 39.37 45.09 49.68 50.35 52.13 53.64 53.45 53.45 53.66 54.19 54.48 54.21 53.84 54.09 54.23 55.22 55.84 56.14
49.88 50.01 50.04 50.01 49.51 49.16 49.24 49.28 49.43 46.99 46.06 45.74 45.41 47.14 46.12 43.91 40.77 37.28 37.49 39.44 38.84 38.63 41.67 41.66 43.97 44.47 45.00 46.62 44.67 45.78 42.64 44.65 40.89 49.43 45.22 39.83 44.27 48.20 49.55 50.84 51.58 52.94 53.74 53.74 54.19 53.84 54.49 54.63 55.20 55.42 55.63 55.74 56.09 56.58
49.83 49.69 49.77 49.89 49.88 49.55 49.41 49.59 49.43 49.63 49.06 48.05 43.83 40.77 39.41 39.26 35.11 34.84 34.83 38.11 38.77 41.52 42.24 43.72 41.59 45.21 46.47 45.60 44.83 44.72 41.76 41.75 49.20 43.14 39.22 43.02 47.27 49.50 50.10 50.97 51.02 52.13 52.67 53.05 53.11 54.09 54.97 55.15 55.88 55.83 55.77 56.41 57.21 56.17
49.00 48.98 49.01 49.74 49.95 49.78 49.73 49.38 49.49 48.71 46.20 41.90 39.31 34.58 37.07 35.83 37.96 39.22 39.62 40.71 43.85 44.14 44.40 43.11 42.88 44.11 45.12 43.88 43.75 41.08 44.47 46.62 40.59 37.56 37.60 44.38 47.90 48.64 49.85 50.01 50.85 51.04 52.15 52.49 52.37 53.25 53.37 54.07 54.75 55.90 56.20 56.70 56.46 56.41
48.59 48.27 48.68 48.92 50.08 50.08 50.15 49.84 48.24 47.90 44.99 40.50 39.42 32.48 35.00 38.87 42.08 43.94 45.26 44.80 46.04 47.06 44.31 43.34 43.88 44.11 42.84 43.27 45.40 44.51 41.11 37.73 39.51 38.83 43.20 47.23 48.27 48.89 49.63 50.32 50.98 51.38 51.83 52.00 52.53 52.56 52.90 53.37 53.98 54.78 55.85 56.96 57.87 57.93
48.65 47.23 47.86 49.13 49.74 50.35 49.11 47.17 46.80 47.74 44.28 41.25 40.85 38.66 41.39 41.26 42.26 43.47 43.76 43.82 45.97 44.45 46.13 46.08 43.12 41.29 40.17 42.71 41.22 39.93 38.29 37.09 40.72 45.24 47.42 48.93 48.89 50.01 50.55 51.08 51.69 52.35 52.46 52.40 52.96 53.17 53.67 53.98 53.78 54.03 55.69 56.23 57.00 57.45
47.49 46.33 48.67 48.92 49.98 49.43 48.10 46.70 46.29 44.01 42.59 42.12 41.65 44.36 42.63 41.50 41.52 42.52 43.13 43.91 45.92 45.59 42.87 44.15 40.17 38.16 43.75 40.63 39.92 43.13 39.59 42.85 45.91 48.18 49.39 50.27 50.48 50.77 51.58 51.84 52.11 52.32 52.93 52.81 53.26 53.79 53.75 54.21 54.40 54.51 54.39 55.45 56.28 56.82
46.10 47.46 48.46 50.01 49.94 46.86 47.78 47.02 44.89 43.75 40.77 42.84 40.88 41.41 42.47 44.04 42.96 43.74 44.41 45.15 44.63 44.99 46.01 42.77 45.54 41.24 39.74 37.83 39.57 43.57 46.00 46.86 49.23 49.61 50.34 50.89 51.69 52.02 51.82 51.88 52.12 52.74 53.11 53.59 53.59 53.68 53.50 53.80 53.34 53.65 54.65 55.13 54.81 56.03
48.44 49.39 49.80 50.02 48.83 46.81 44.32 44.79 44.41 40.03 41.54 42.03 43.12 43.40 42.86 43.72 45.14 45.23 45.18 45.94 45.20 45.97 46.48 45.37 41.98 40.36 41.46 45.10 45.04 46.59 47.77 48.75 49.01 49.78 50.38 51.41 51.56 51.71 52.10 52.64 52.98 53.47 53.22 53.92 53.76 53.18 53.16 53.57 53.30 53.46 54.43 55.23 54.48 55.66
49.10 48.81 49.47 49.38 48.29 45.66 42.55 43.25 45.53 41.76 40.35 42.12 42.56 42.01 42.38 43.37 44.46 44.42 45.33 44.47 44.94 46.42 44.09 42.37 42.33 44.44 45.22 46.53 46.56 48.18 49.85 50.40 50.36 49.23 49.13 50.88 51.95 52.64 53.07 53.01 52.91 53.57 53.77 53.35 52.87 47.08 53.03 53.47 52.68 51.59 52.19 52.82 53.49 54.41
47.61 48.08 48.22 48.03 46.44 45.29 43.15 41.70 42.00 42.02 42.09 41.71 42.59 42.45 42.10 44.23 43.07 42.67 43.20 44.03 45.46 42.68 42.63 44.34 45.21 46.93 48.01 48.22 48.20 50.15 51.32 51.39 51.08 51.32 51.34 51.14 52.60 51.85 50.78 52.48 51.72 50.24 48.38 48.41 48.30 48.17 47.63 48.90 50.26 51.54 51.88 52.00 52.29 52.58
47.04 47.55 46.17 45.94 42.77 41.99 41.86 42.83 41.45 42.25 41.44 41.45 41.93 41.71 41.07 40.60 41.63 43.48 43.26 44.00 42.85 44.40 45.43 46.25 47.33 46.15 46.81 48.49 49.51 50.63 51.79 52.77 53.99 52.29 46.87 48.97 50.27 51.98 50.19 49.19 47.41 46.21 46.10 46.13 46.56 46.39 47.22 48.14 48.09 49.05 49.49 49.56 48.43 50.23
46.48 45.40 44.04 43.04 39.46 38.30 37.81 43.82 40.72 41.65 38.86 39.42 41.53 40.32 40.85 41.95 43.51 46.20 43.12 42.44 43.02 45.54 47.00 47.53 50.35 51.46 49.85 52.58 52.58 52.25 52.98 53.10 52.35 52.60 52.33 52.43 52.86 50.98 47.08 47.13 47.52 46.57 45.50 45.17 46.27 46.12 46.18 43.72 46.90 47.17 48.07 48.18 48.28 47.88
46.36 41.86 39.08 38.69 39.14 36.66 41.67 40.28 42.41 40.88 40.60 38.93 39.22 38.27 40.50 41.15 45.40 44.51 41.39 44.09 48.24 49.39 51.32 51.02 51.39 51.34 51.69 50.51 48.25 47.28 49.29 51.83 49.38 47.70 50.20 50.41 46.64 45.90 45.99 45.40 45.71 45.90 45.61 45.86 45.64 45.42 45.49 46.49 43.22 46.18 46.40 46.49 46.78 47.04
38.20 37.21 38.51 34.15 39.70 39.37 38.52 38.88 39.43 39.65 38.11 40.02 39.73 40.49 41.94 43.34 42.09 42.58 43.30 47.03 49.08 49.58 50.43 51.34 51.42 50.21 47.77 46.28 46.52 47.19 48.56 47.69 47.08 47.00 47.21 49.13 47.52 47.61 47.08 46.75 46.36 45.76 45.81 44.76 44.01 44.51 45.30 45.87 45.89 45.67 45.36 45.90 46.32 47.24
35.24 39.92 37.05 39.38 39.96 39.44 39.75 38.70 39.00 38.25 38.87 39.06 40.84 43.89 44.70 43.74 41.38 41.13 45.53 48.61 49.23 49.60 50.08 49.12 47.17 46.26 45.06 45.31 44.97 45.04 45.58 47.19 48.07 46.63 47.18 46.78 47.21 46.02 44.45 43.59 43.42 44.19 46.03 45.74 45.09 44.53 44.64 45.21 45.00 44.53 44.33 44.13 42.15 45.75
39.13 41.64 43.11 43.38 42.23 41.27 41.43 42.31 43.11 40.90 39.32 40.03 42.32 42.73 43.48 39.91 40.36 45.26 50.90 49.79 48.64 46.84 47.57 46.48 45.70 44.66 43.98 44.11 45.03 45.36 46.14 45.90 45.46 45.56 46.10 46.22 46.11 45.85 44.86 43.18 42.31 43.98 45.14 45.52 45.63 45.19 44.46 44.37 44.22 43.86 43.96 44.62 45.19 45.86
43.68 43.64 41.52 42.85 40.54 42.59 41.44 42.55 41.60 41.57 43.68 45.53 44.62 42.30 41.48 40.94 38.99 43.38 47.80 46.92 48.44 48.56 45.47 45.29 45.48 45.25 44.76 44.41 44.27 43.74 44.01 44.59 46.20 46.61 46.54 46.66 46.15 45.01 44.46 44.44 44.70 38.31 42.63 44.75 44.69 45.46 45.00 44.30 43.65 43.67 43.47 43.59 44.69 46.08
43.90 47.27 45.29 43.20 42.41 43.52 43.67 43.94 43.61 45.60 48.06 47.59 44.21 41.88 41.58 43.15 44.60 43.98 44.98 45.86 45.77 45.03 43.82 43.54 43.12 44.66 44.26 44.98 44.15 43.02 42.55 41.98 40.99 39.59 39.33 39.39 40.55 41.96 43.99 44.05 44.62 44.99 44.60 44.82 37.46 40.40 42.46 42.44 42.43 42.33 42.10 42.07 42.42 42.61
47.71 48.78 46.38 46.08 44.70 44.86 46.21 47.88 45.69 46.50 46.43 45.93 45.74 45.15 44.86 45.94 48.27 49.54 46.70 44.92 43.26 42.47 43.34 43.19 42.58 41.97 40.61 40.50 40.38 41.53 42.26 41.58 40.87 39.45 37.73 37.67 38.94 41.72 42.38 42.40 42.60 43.28 43.57 43.52 43.00 42.67 38.65 40.55 39.45 40.43 39.25 38.83 38.54 37.75
51.43 49.93 47.19 47.35 47.18 48.32 48.01 49.56 49.70 48.96 47.93 46.57 47.23 45.32 45.03 46.16 47.83 49.31 47.96 45.76 44.30 42.85 41.83 40.79 40.55 40.00 39.42 38.78 37.96 37.81 37.48 39.30 39.23 39.15 38.83 39.63 39.37 39.23 39.28 39.57 40.29 40.86 40.34 39.75 39.22 38.68 38.25 38.05 37.78 36.84 36.28 35.66 35.44 34.84
50.77 48.34 47.91 46.07 47.01 50.83 51.50 50.32 50.19 48.56 47.19 46.36 45.46 46.18 46.50 45.90 44.01 46.68 50.44 48.61 44.84 41.67 40.02 40.51 38.88 37.76 39.24 39.72 39.55 39.14 35.87 37.79 37.38 37.29 36.95 37.37 37.34 37.86 38.21 38.33 38.43 38.35 37.74 37.32 36.96 36.56 35.99 35.43 35.03 34.66 34.18 33.91 34.03 34.06
50.02 50.90 50.39 49.29 48.66 48.12 50.49 49.90 48.34 46.27 45.90 44.21 45.73 46.30 46.43 45.34 42.93 48.32 51.30 46.16 42.70 41.62 41.23 40.91 40.31 39.93 39.31 38.82 38.58 38.26 37.39 38.46 36.32 33.80 34.22 33.54 33.27 33.65 35.93 36.29 36.44 36.28 35.68 35.14 35.07 34.84 34.33 33.71 33.72 33.58 33.77 33.63 33.94 34.14

GFSWCAN_sfc_wetblb_024.txt.gz
Wetbulb
50.60 50.49 50.52 50.11 49.97 49.97 50.00 49.95 50.29 50.52 50.90 50.84 50.82 50.82 50.64 50.48 50.20 49.59 47.67 49.15 44.66 39.17 39.98 44.69 44.79 41.29 40.82 39.80 37.48 43.65 42.08 46.41 46.67 45.70 46.58 46.48 48.70 49.56 49.43 52.66 52.36 51.29 50.39 50.27 52.24 49.82 47.78 57.48 58.15 54.29 58.96 63.34 62.74 62.97
50.67 50.58 50.30 50.20 50.07 49.95 50.01 50.01 50.20 50.42 50.61 50.61 50.01 49.83 50.05 49.67 48.96 49.50 44.71 49.71 51.18 42.13 40.58 47.52 47.51 48.13 46.68 45.84 42.47 42.97 42.62 44.10 43.30 44.03 46.48 47.17 49.00 52.94 52.18 48.33 57.11 50.75 54.46 52.61 54.07 53.89 57.69 58.32 57.87 60.30 61.02 61.75 64.45 63.89
50.55 50.68 50.65 50.61 50.53 50.48 50.58 50.41 50.21 50.17 50.18 49.71 49.26 49.42 49.22 49.11 48.70 49.11 48.11 47.67 45.63 40.96 40.84 44.00 44.32 48.72 50.42 49.02 50.18 40.98 45.14 44.61 46.10 48.78 45.32 46.75 46.38 52.62 49.69 51.25 54.46 56.63 59.55 55.55 54.70 54.92 56.52 57.75 57.87 59.38 60.92 60.61 62.33 65.61
50.13 50.31 50.68 50.53 50.09 49.87 49.84 49.87 49.98 49.54 48.96 48.76 49.00 49.24 49.22 48.94 48.85 49.07 47.42 50.11 46.96 42.38 36.96 41.87 49.19 47.64 51.40 51.53 48.91 47.95 47.84 49.82 47.70 46.89 46.58 45.13 46.45 53.76 51.91 53.98 53.83 53.05 56.32 55.98 54.75 55.65 54.93 56.38 57.95 58.50 58.43 60.33 61.18 63.32
49.89 49.77 49.84 49.87 49.89 49.73 49.66 49.52 49.17 48.87 48.78 48.68 48.68 49.24 48.70 48.82 49.23 50.20 49.75 49.16 48.88 42.44 37.72 40.37 46.13 50.73 51.86 49.23 49.51 48.84 47.31 44.87 44.79 42.78 45.22 43.70 48.51 50.04 54.01 52.92 46.61 48.79 49.77 54.38 52.92 56.93 56.59 55.51 56.62 57.67 57.06 57.99 59.46 59.78
50.21 50.21 49.68 49.69 50.02 50.03 49.73 49.43 48.98 49.14 49.05 48.92 48.85 49.72 49.28 49.21 48.84 47.59 43.34 46.06 47.83 47.63 39.92 35.64 47.59 48.27 51.54 50.96 49.56 48.04 48.45 46.95 46.08 45.21 46.36 47.66 49.23 48.93 49.66 45.74 47.20 50.80 54.27 55.01 56.51 58.73 56.82 55.60 53.60 54.68 53.96 54.83 56.48 57.42
50.07 49.68 49.47 49.32 49.34 49.55 49.15 48.93 48.93 48.78 48.74 48.89 49.37 49.24 48.98 49.48 49.01 44.66 42.16 46.32 47.79 48.19 38.41 37.20 41.27 49.96 50.83 50.47 49.01 48.84 48.91 47.21 47.18 46.40 47.10 47.13 48.90 50.87 46.49 41.91 47.16 51.21 54.88 57.48 58.71 56.82 51.90 51.39 50.03 53.11 53.87 54.95 54.66 55.63
49.31 49.20 49.18 49.29 49.66 49.28 49.30 49.26 49.13 49.08 48.86 48.82 49.04 49.03 49.53 49.99 48.92 45.50 48.69 49.06 48.53 43.14 41.62 36.33 37.94 46.00 51.20 45.37 44.56 48.97 45.48 46.61 45.96 45.93 47.98 47.27 49.35 48.53 42.96 46.18 49.10 50.70 52.51 50.92 52.23 53.44 52.14 53.05 52.93 52.87 54.85 54.83 54.28 54.94
49.87 49.82 49.65 49.70 49.85 49.97 49.45 49.34 49.41 49.46 49.59 49.45 49.47 49.18 49.34 47.29 44.29 45.05 49.83 50.45 48.87 42.60 34.02 36.71 37.60 39.52 51.12 47.02 45.75 45.72 46.33 42.44 48.39 47.65 47.02 47.70 44.61 41.82 45.63 47.27 48.61 50.25 49.81 49.56 51.27 51.47 52.34 52.12 52.47 53.40 54.00 53.84 54.71 53.52
50.31 50.29 50.13 49.90 50.22 50.01 49.74 49.62 49.83 50.33 50.09 49.39 49.54 47.82 44.34 48.28 49.95 49.95 46.52 42.40 42.41 42.02 41.13 37.31 45.43 43.15 48.15 47.45 43.50 43.73 46.15 44.04 42.33 46.31 49.20 43.24 43.14 47.97 49.68 50.48 51.66 50.98 51.42 51.92 48.83 48.31 48.96 50.51 52.50 53.38 53.69 55.41 55.83 56.28
50.18 50.28 50.22 50.21 50.11 49.74 49.90 49.87 50.03 49.98 50.46 49.05 45.46 44.21 50.14 51.44 49.29 46.90 42.11 40.73 41.26 36.78 38.55 41.35 45.83 43.89 49.53 45.18 45.28 47.69 44.43 45.80 40.93 44.60 44.96 40.35 39.55 46.52 49.38 50.53 52.59 53.74 54.00 54.50 54.45 54.06 54.91 54.28 53.94 54.44 55.70 56.60 57.53 58.08
49.96 49.93 50.07 50.45 50.18 50.19 50.29 50.07 49.87 49.11 47.83 46.96 46.17 47.74 47.99 47.19 45.37 40.25 41.58 43.14 42.52 39.90 43.88 44.49 45.76 47.06 47.99 51.44 47.28 48.33 45.22 46.96 39.99 49.52 43.89 38.90 43.44 48.76 50.83 50.84 52.07 54.22 55.23 55.78 56.68 55.33 56.45 56.82 56.57 56.82 57.52 57.82 57.89 58.28
49.79 49.61 49.38 50.06 50.20 50.25 50.48 50.47 50.36 49.76 49.70 51.02 47.13 44.11 44.20 45.13 37.23 37.01 35.35 38.61 39.67 44.60 45.60 47.08 45.58 49.09 50.36 50.78 49.45 48.63 44.21 42.54 50.46 42.44 38.61 42.87 47.16 49.72 50.91 51.35 52.74 54.58 54.71 54.92 56.16 56.76 56.32 56.52 57.70 58.10 58.05 58.89 59.34 59.16
49.14 49.12 49.22 49.23 49.78 50.09 50.50 50.41 50.15 49.63 49.73 44.14 40.24 34.66 36.16 36.58 39.36 40.69 41.18 42.05 45.22 46.40 46.34 47.08 47.21 47.34 49.46 48.11 47.82 43.57 48.05 48.84 40.94 36.51 38.71 45.18 47.38 48.90 51.04 52.77 54.18 54.26 54.93 55.08 54.82 55.05 55.16 55.89 56.18 57.40 58.95 59.70 59.44 58.96
49.25 49.10 48.99 49.45 49.41 50.50 50.60 49.21 47.97 52.74 48.36 41.43 39.47 33.17 38.25 41.91 44.21 46.17 47.48 47.65 49.04 48.91 46.73 46.04 47.02 47.69 47.25 45.15 46.84 46.29 43.12 38.66 39.48 39.06 43.80 47.05 49.33 51.26 53.05 53.42 53.83 54.34 54.72 55.04 55.16 55.04 55.20 55.38 55.26 55.92 57.37 58.45 59.41 59.30
49.38 49.23 50.32 49.09 50.11 50.53 49.51 50.75 52.78 52.07 49.18 46.87 44.14 42.41 44.84 44.33 45.05 46.80 47.34 47.58 50.32 49.61 50.89 50.08 47.08 44.40 44.07 44.77 43.34 41.08 39.60 37.91 41.32 45.19 48.12 50.55 51.32 53.22 54.25 54.86 54.35 55.03 55.24 55.29 55.83 56.01 56.01 56.04 56.11 56.43 57.29 57.25 57.26 57.79
49.45 49.51 49.71 50.08 50.02 50.38 49.22 52.08 52.99 47.86 47.77 45.26 44.93 47.83 46.80 46.48 45.68 47.00 48.27 48.08 51.27 50.46 46.84 48.09 42.89 42.00 48.43 42.16 39.63 41.40 40.50 44.84 48.68 49.65 52.00 54.11 53.96 54.51 55.33 55.30 55.69 55.74 55.68 56.34 56.79 56.85 57.15 57.37 57.41 56.13 55.70 57.45 57.56 57.84
49.50 51.11 50.50 49.78 50.25 51.81 54.05 52.11 49.17 47.07 43.33 45.96 44.02 46.09 47.74 48.80 47.41 48.06 49.00 50.41 49.06 48.93 48.68 45.31 48.69 43.13 40.85 38.69 39.60 43.68 46.72 50.47 51.86 52.51 52.94 54.32 55.55 55.89 55.44 55.59 56.34 56.65 56.53 56.85 57.30 57.54 57.03 56.95 55.69 54.59 55.89 57.66 57.69 57.81
50.12 50.76 49.77 49.86 49.67 50.15 48.49 49.22 49.78 43.55 44.72 46.38 46.74 48.09 48.28 48.80 50.22 50.54 51.12 51.53 51.29 51.48 50.53 48.03 44.31 42.24 43.12 46.54 46.75 49.25 50.63 51.29 51.77 52.53 53.58 55.47 56.12 56.14 56.31 56.91 57.20 57.29 57.34 57.10 56.49 55.09 55.86 57.17 56.49 55.39 55.15 55.34 54.24 55.76
49.88 49.70 49.55 49.55 49.88 50.20 45.47 47.42 51.37 46.00 43.15 44.74 47.04 46.30 47.30 47.75 50.11 50.40 50.20 50.67 50.00 48.41 45.54 44.00 44.21 47.07 48.08 48.48 50.02 51.90 52.73 53.77 53.86 52.33 52.27 54.36 56.47 56.51 56.18 55.89 55.45 56.12 55.21 54.75 53.72 49.09 54.38 54.64 54.90 54.97 54.73 54.64 54.49 54.45
50.72 51.34 49.93 50.86 50.88 50.14 47.91 46.48 47.07 46.55 45.89 44.90 46.74 46.86 46.55 49.70 48.91 48.42 48.32 51.30 48.24 46.33 45.61 47.99 48.02 48.41 49.65 50.45 51.49 53.52 54.88 55.16 53.69 54.36 53.82 54.21 56.10 54.40 53.98 53.24 53.26 52.96 51.97 51.49 51.35 51.17 49.82 51.18 51.88 52.68 53.30 53.53 53.33 54.62
51.48 48.72 50.30 50.80 47.98 47.36 47.79 48.28 46.08 47.89 46.39 46.19 46.28 47.29 46.30 45.73 46.09 45.12 46.43 45.78 44.83 46.00 47.13 47.89 49.25 50.18 51.69 53.65 55.34 55.60 56.45 56.33 56.75 56.94 50.78 52.10 52.53 54.23 52.90 52.00 51.61 50.45 49.91 49.70 49.93 49.67 50.07 50.54 50.68 51.00 51.40 51.29 50.51 52.44
49.15 49.41 49.64 48.20 44.27 42.37 41.75 49.75 44.87 46.26 43.35 44.65 47.27 43.85 43.48 43.47 45.91 48.75 44.12 45.27 47.31 50.48 51.55 51.66 51.92 52.20 50.59 51.36 52.17 53.01 54.39 54.03 53.79 53.40 54.90 54.74 53.39 52.35 51.36 50.71 50.54 49.26 48.80 49.10 50.01 49.53 49.00 45.51 48.79 48.90 49.92 50.00 50.09 50.10
47.58 46.86 44.76 44.55 45.20 41.78 47.54 45.54 48.36 46.97 47.48 45.00 42.04 41.43 43.95 46.60 50.03 47.16 43.22 46.80 50.45 53.53 54.43 53.01 52.27 50.18 50.95 52.36 49.15 49.06 50.00 51.01 50.87 51.03 51.59 51.51 50.49 50.29 51.00 50.74 50.34 49.79 49.18 49.50 49.00 48.52 48.65 48.54 44.95 48.54 48.48 48.06 48.31 48.69
41.05 41.04 42.87 37.69 46.64 44.56 43.44 43.79 44.30 45.74 42.55 44.86 43.44 44.79 47.05 49.74 45.02 42.91 42.24 46.89 50.61 50.84 50.26 50.44 50.06 49.61 48.35 48.62 49.06 49.22 50.78 49.41 48.66 48.90 49.89 50.50 50.15 50.66 51.34 50.57 50.28 49.66 49.09 47.76 47.20 47.20 47.49 48.04 47.96 47.81 47.41 47.33 46.84 47.34
37.48 44.54 41.08 45.44 46.62 44.72 44.66 43.74 44.24 43.35 43.76 43.69 44.97 48.55 49.62 47.19 43.07 41.72 43.80 47.47 48.81 48.32 48.44 48.42 48.44 47.78 47.03 47.38 46.27 46.06 46.84 48.37 48.51 47.41 48.41 49.07 48.38 47.30 46.66 46.15 46.04 46.88 48.62 47.65 46.80 46.26 46.51 47.11 46.88 46.52 46.32 45.85 42.70 45.67
42.22 46.71 49.44 49.73 47.96 47.14 47.52 47.74 47.46 45.58 43.74 44.16 47.01 47.14 46.74 41.69 40.37 41.53 47.07 46.00 45.42 46.51 48.25 48.84 48.32 47.27 46.47 46.31 46.52 46.75 47.06 47.57 47.61 47.30 48.71 48.73 48.29 47.80 46.64 44.64 44.21 45.85 47.46 47.46 47.27 46.80 46.15 46.11 46.06 45.67 45.65 46.13 46.22 46.18
49.66 48.83 46.15 48.81 47.75 48.81 45.06 46.93 45.38 44.87 47.03 49.92 48.30 43.50 40.47 40.17 39.56 44.04 44.63 46.10 47.76 48.42 47.94 48.94 49.37 48.75 47.68 47.03 46.32 45.31 45.13 45.84 46.60 46.85 46.87 47.32 47.37 47.08 46.70 46.75 47.17 40.14 46.38 47.30 46.74 47.03 46.67 46.17 45.71 45.37 44.53 44.10 44.07 44.22
50.39 53.80 51.37 48.10 47.60 48.24 48.26 47.32 47.42 48.70 50.33 50.37 46.21 43.06 41.08 45.74 47.95 47.40 47.44 47.46 48.19 47.33 45.05 43.87 44.17 46.26 46.30 46.16 45.64 45.47 44.69 43.65 41.64 39.74 39.54 40.23 41.27 42.38 44.64 44.78 45.12 45.77 46.01 45.86 36.66 41.01 43.08 42.74 42.82 42.83 42.69 42.15 42.65 42.98
51.43 55.08 50.40 49.03 47.60 46.39 49.21 50.76 48.49 50.00 50.53 48.27 45.90 46.91 46.88 47.38 49.39 50.43 48.36 46.48 44.59 43.97 44.91 44.63 43.98 43.99 42.87 42.12 41.85 42.51 43.37 42.65 41.69 39.74 37.74 37.83 39.11 41.53 42.08 41.92 41.94 42.33 42.83 42.67 42.45 42.51 39.63 41.11 41.42 42.06 41.01 40.61 40.30 39.21
55.17 54.94 50.73 51.11 49.62 50.91 50.97 51.47 51.69 50.80 47.21 46.46 48.52 45.87 45.00 47.23 49.76 50.00 49.02 49.77 49.31 47.65 46.12 44.98 44.37 43.16 41.90 41.01 40.14 39.13 38.80 41.01 40.83 40.26 39.29 39.60 40.04 39.85 40.04 40.64 40.91 41.19 41.07 40.64 40.39 40.05 39.52 38.93 39.02 38.16 37.46 36.82 36.47 36.41
54.04 51.90 51.09 47.98 49.94 51.96 52.24 49.68 48.90 45.26 46.13 46.82 47.21 47.22 47.02 48.16 45.23 49.97 50.66 48.52 46.81 45.39 42.10 43.93 42.27 41.01 42.00 42.21 42.09 41.43 36.98 40.68 39.84 38.67 37.34 37.12 37.09 37.89 39.03 39.32 39.47 39.45 39.00 38.77 38.66 38.26 37.93 37.24 36.71 35.62 35.15 35.21 35.94 36.14
53.49 52.36 52.01 51.53 50.64 50.32 52.02 50.73 48.89 44.45 44.86 45.66 48.74 49.68 49.89 47.66 44.25 48.81 51.10 48.28 45.92 45.03 44.18 43.69 43.38 42.91 42.27 41.70 40.90 40.80 39.32 41.03 36.83 33.35 34.26 32.88 32.43 33.57 37.27 37.76 37.90 38.17 37.70 37.75 37.41 37.53 36.51 35.37 34.67 35.29 35.23 34.18 34.38 34.73

GFSWCAN_sfc_wetblb_027.txt.gz
Wetbulb
51.19 51.08 51.26 51.43 51.51 51.27 51.06 50.68 50.61 50.37 50.69 51.12 51.18 51.20 50.99 50.75 50.74 50.39 48.37 50.72 43.84 39.07 40.39 45.07 45.77 43.08 42.17 42.22 38.90 42.70 44.24 44.85 45.58 42.98 43.85 44.41 44.99 47.03 47.08 50.89 50.26 49.29 49.20 48.82 50.92 49.04 45.42 60.26 59.92 55.94 60.51 64.51 65.30 65.11
50.87 51.04 50.78 51.49 51.46 51.19 51.03 51.14 50.86 50.80 50.61 50.69 50.66 50.37 50.10 50.10 50.39 50.69 46.39 52.12 50.68 43.03 41.29 48.41 47.79 47.63 48.34 47.92 45.03 44.98 43.97 41.62 44.04 43.30 43.88 44.28 45.60 48.49 49.67 45.08 54.59 49.13 53.01 51.00 52.86 53.06 61.64 62.35 62.49 63.11 62.80 62.22 64.79 65.78
51.13 51.00 51.08 51.32 50.94 50.42 50.63 50.59 50.44 50.44 50.48 50.08 49.63 49.57 49.86 49.66 49.69 49.16 48.26 49.60 46.91 41.87 43.48 45.02 45.40 50.56 52.01 50.88 50.79 42.72 45.45 47.19 45.26 47.44 45.29 44.94 44.55 50.57 46.07 48.70 52.35 55.12 57.48 56.30 57.62 59.21 59.40 60.42 62.13 63.04 63.72 63.75 65.52 66.56
50.84 50.80 50.82 50.75 50.62 50.77 50.86 50.31 50.12 50.01 49.75 49.50 49.38 49.34 49.76 49.59 49.41 49.72 47.80 49.92 46.71 43.09 38.20 42.56 50.10 48.97 52.18 52.03 50.85 49.50 47.76 52.02 49.43 46.64 44.36 45.46 44.56 52.75 50.11 50.23 49.28 49.14 50.89 56.67 57.50 58.45 59.48 60.03 60.72 61.85 62.69 64.96 66.11 67.02
51.07 50.28 50.10 50.06 50.46 50.58 50.29 50.10 49.71 49.65 49.50 49.48 49.33 49.26 49.33 48.51 48.74 49.68 50.48 50.25 50.82 42.69 38.97 42.19 47.40 51.97 52.84 51.21 50.41 49.61 48.44 48.20 46.88 42.05 43.85 44.28 47.04 48.80 51.46 52.18 47.07 49.89 49.23 52.93 55.22 59.00 59.66 58.31 60.86 61.81 61.10 61.64 63.15 63.68
50.55 50.37 50.32 50.53 50.49 50.27 49.83 49.59 49.54 49.44 49.46 49.37 49.41 49.82 50.03 49.52 49.51 47.97 44.08 49.63 51.70 49.96 40.38 36.05 47.53 49.21 51.00 52.29 50.23 50.07 48.42 47.11 45.44 44.58 43.91 48.37 49.33 48.26 45.36 46.33 48.37 51.79 55.23 57.31 56.67 60.37 58.62 58.01 58.24 58.97 58.30 58.68 59.84 60.47
50.64 50.40 50.41 50.45 50.66 50.63 50.66 50.38 49.97 49.65 49.46 49.33 49.22 49.37 49.45 49.61 49.15 45.43 43.48 46.39 49.10 49.50 38.80 36.57 40.07 47.93 52.38 52.92 50.81 49.23 50.97 48.71 47.35 45.43 44.09 48.78 48.60 48.15 46.91 42.45 48.41 52.76 57.49 57.82 58.42 58.40 55.68 56.41 53.64 56.65 57.09 57.07 56.42 58.04
50.99 50.91 50.92 50.79 50.41 50.62 50.22 50.02 50.11 50.49 50.30 50.24 49.90 49.60 49.85 49.95 49.08 45.58 49.06 49.37 49.37 43.79 40.93 35.61 37.47 41.95 51.00 47.93 46.43 50.80 47.43 48.08 47.66 44.84 48.70 47.21 49.15 48.59 42.35 46.78 50.28 51.60 52.27 52.53 54.91 57.44 55.69 56.00 55.34 51.12 52.73 56.73 55.54 55.45
50.83 50.85 50.89 50.81 50.74 50.63 50.40 50.34 50.78 50.84 50.84 51.04 50.56 50.40 50.75 48.15 45.27 48.73 49.47 49.87 50.19 43.46 36.23 34.88 33.99 39.28 47.19 47.47 49.50 49.05 48.41 42.36 48.31 43.48 46.14 47.58 44.24 40.91 45.83 48.29 49.05 49.64 49.44 49.24 51.31 53.40 52.09 51.50 51.74 54.79 52.66 53.93 54.13 54.32
50.77 50.48 50.77 50.91 50.82 50.73 50.85 50.76 50.84 50.59 50.03 51.33 51.21 47.36 46.05 51.21 49.15 50.76 46.97 43.37 41.39 41.90 39.76 36.43 42.45 42.56 47.76 46.53 46.36 45.51 46.90 44.19 41.36 45.45 48.38 41.97 41.78 46.35 50.72 51.33 51.00 50.28 50.40 50.37 47.15 46.62 49.27 50.73 52.73 52.86 53.12 54.72 55.66 56.17
50.39 50.22 50.11 50.41 50.97 50.87 50.68 50.76 51.04 50.90 51.45 51.29 48.60 47.29 51.36 52.32 50.21 45.07 42.32 40.21 39.15 36.50 38.90 40.46 45.03 45.45 49.64 44.00 42.54 46.34 44.40 45.79 40.42 42.45 41.91 37.40 39.35 44.77 50.21 51.84 52.90 52.64 51.37 51.07 50.76 50.97 51.22 51.31 52.81 54.68 54.91 56.08 57.29 57.73
50.36 50.08 50.08 50.18 50.18 50.23 50.49 50.78 50.92 51.80 50.97 48.42 47.31 48.92 50.33 48.65 45.41 41.23 40.62 43.25 41.40 40.19 45.46 44.67 47.19 48.92 49.29 50.11 46.65 47.97 43.46 45.13 39.12 47.55 41.76 34.67 42.66 48.15 50.51 51.78 53.20 54.19 54.35 55.47 54.45 52.75 53.43 55.06 56.12 56.25 56.41 56.77 57.46 58.54
49.85 49.72 49.80 49.82 49.80 49.76 50.51 51.04 50.63 50.69 50.36 51.77 47.72 45.47 43.47 44.77 38.46 37.28 34.57 38.80 39.92 44.49 45.77 47.14 46.13 51.18 50.54 49.64 46.96 46.96 43.12 42.39 48.39 41.60 37.73 39.53 46.69 49.43 50.63 52.70 53.38 55.44 56.24 56.33 55.77 56.57 57.18 56.92 57.79 57.57 57.07 58.97 58.92 59.04
50.01 50.10 49.97 50.03 49.91 50.36 50.70 50.98 49.87 51.15 50.15 46.67 43.36 37.95 40.21 39.50 42.02 40.75 41.80 43.68 45.90 47.28 48.20 48.44 48.47 48.34 50.51 48.02 48.08 42.37 44.73 47.47 39.82 36.29 37.57 42.77 46.50 49.19 51.52 53.49 53.94 53.72 54.72 55.38 55.99 56.40 56.70 55.83 56.55 58.09 58.41 58.92 58.37 58.45
49.70 49.80 50.11 50.63 50.61 50.39 50.57 50.75 50.19 54.54 51.31 44.21 45.89 39.01 41.88 46.32 46.34 46.63 48.79 50.09 50.58 51.11 50.13 49.60 50.09 50.25 48.43 46.09 48.17 46.58 43.17 38.28 39.63 38.94 42.98 46.98 48.81 50.68 54.05 53.79 54.33 54.30 54.72 55.00 55.42 55.03 55.25 56.21 56.68 56.05 57.22 58.53 58.95 59.36
49.79 50.10 52.17 50.50 50.33 49.93 50.19 52.76 55.73 56.06 52.66 50.59 48.18 45.20 47.88 46.87 46.57 48.01 50.03 49.89 53.08 52.97 53.35 52.13 47.10 44.13 43.40 45.00 43.28 41.06 40.05 38.01 40.98 45.88 50.00 52.82 53.60 54.68 55.47 55.66 55.52 55.72 55.27 55.21 55.90 56.39 56.62 56.22 56.20 56.90 57.36 57.59 57.54 57.91
49.33 52.60 50.41 50.32 49.77 49.96 51.87 54.24 55.41 50.12 49.22 45.25 44.99 49.23 47.59 48.50 47.62 49.63 51.10 50.90 54.04 51.72 48.03 48.46 43.83 43.52 47.45 42.29 39.79 42.39 42.07 42.21 46.71 50.16 54.14 55.55 54.99 55.37 56.30 56.67 56.55 56.27 56.68 56.42 56.08 56.59 57.00 57.40 57.47 56.82 56.41 57.00 57.69 57.92
51.89 53.46 51.18 50.31 50.50 52.65 57.12 54.92 52.08 48.89 45.12 47.63 45.95 48.03 47.98 49.60 49.35 50.41 52.26 53.38 52.14 51.34 51.03 47.51 48.89 43.43 40.79 38.47 41.87 46.36 48.67 52.18 54.16 54.97 54.95 56.44 56.35 56.83 56.51 56.58 56.62 56.93 56.97 57.08 57.43 56.85 57.19 56.90 56.97 54.68 56.99 58.00 57.51 57.83
51.28 51.78 50.60 50.32 50.65 50.83 50.71 51.19 52.01 45.67 46.96 48.52 49.38 50.12 49.83 50.43 51.99 52.74 52.36 53.03 54.22 54.39 52.40 49.39 44.45 42.91 43.69 48.27 48.59 50.57 52.27 53.76 53.78 55.53 54.45 56.85 57.65 57.32 57.22 57.62 57.33 57.35 57.18 56.23 55.77 55.48 55.82 57.42 56.04 55.75 55.59 55.90 54.86 55.34
50.00 50.47 50.04 50.33 51.37 52.48 47.76 49.68 53.33 47.80 45.26 47.84 50.13 49.71 49.52 49.13 51.67 52.82 53.13 53.08 52.46 51.06 47.58 43.97 44.88 48.70 48.87 51.47 53.37 53.28 54.25 56.83 56.66 54.36 53.55 54.80 56.17 56.73 55.51 55.36 54.87 56.45 55.45 55.87 54.37 50.03 54.63 54.10 54.49 54.73 54.73 54.72 54.23 54.16
52.09 53.59 51.33 53.18 55.09 52.95 50.24 48.89 49.00 48.71 48.81 48.22 50.62 50.48 48.04 51.15 48.97 49.09 48.74 51.72 49.01 46.57 46.10 49.23 51.39 53.28 55.83 56.19 57.68 57.86 56.02 56.44 54.00 53.74 53.57 53.35 56.55 54.78 54.34 54.97 55.19 54.16 53.16 53.17 52.67 52.06 51.25 52.14 52.64 53.17 53.36 53.76 53.68 53.97
54.58 50.23 54.00 55.07 51.94 51.20 51.20 51.94 50.09 51.82 49.65 49.89 49.81 48.48 45.50 45.35 47.06 46.55 49.13 47.70 45.76 47.34 48.96 49.77 50.66 53.09 52.60 52.42 53.04 55.09 56.06 55.92 56.42 54.59 51.31 52.71 54.40 53.19 53.02 53.81 53.28 52.49 52.19 51.73 51.55 51.18 51.09 51.46 51.18 51.10 51.08 51.33 50.47 52.31
51.16 52.30 54.33 53.21 48.33 46.39 46.21 54.48 47.64 48.50 45.07 45.99 48.89 47.19 46.85 47.08 49.48 50.79 46.50 48.13 49.21 53.70 53.99 53.29 53.34 54.19 52.84 53.43 53.44 53.10 55.45 55.64 52.18 52.04 52.40 52.97 53.10 53.04 52.48 52.29 51.99 50.60 49.91 50.43 51.11 50.26 49.90 46.87 49.33 49.83 50.86 50.59 50.29 50.41
46.68 51.19 49.31 49.51 50.09 45.23 52.68 49.28 50.44 48.27 49.13 47.49 47.18 44.93 46.15 47.62 51.70 46.06 43.24 47.82 52.58 53.11 51.89 54.15 52.40 51.62 52.38 54.14 50.64 50.15 50.30 51.42 51.34 52.35 52.01 51.31 50.99 51.57 53.20 51.86 51.60 51.37 50.54 50.18 49.82 49.58 49.77 49.58 46.72 49.86 49.80 49.38 49.32 48.96
44.68 44.19 48.34 41.24 52.24 48.62 46.67 47.29 47.65 48.99 45.04 46.60 45.53 45.76 48.90 52.40 46.79 44.62 42.93 44.57 46.74 48.29 49.30 51.35 51.56 51.08 49.01 49.23 49.58 49.47 50.97 49.70 48.92 48.92 50.39 50.31 49.71 49.86 49.83 50.45 50.69 51.01 50.62 48.83 47.80 47.78 48.16 48.87 49.26 49.21 48.78 48.50 47.88 47.43
41.44 48.98 44.24 49.54 50.38 48.17 48.17 45.99 46.85 46.46 47.62 46.01 46.74 51.03 51.97 49.47 43.68 39.75 41.87 45.26 47.53 48.46 48.90 48.86 48.69 48.47 48.42 48.97 47.54 47.03 47.11 48.65 48.80 47.49 48.71 49.77 49.07 47.92 46.88 46.11 46.08 47.11 49.15 48.55 47.67 47.19 47.25 47.68 47.83 47.81 47.54 46.59 43.06 46.03
44.27 49.03 53.53 55.45 52.99 52.13 51.16 52.26 52.41 49.56 45.98 45.35 47.42 45.92 46.12 41.40 38.06 39.75 45.55 45.29 45.77 46.75 48.64 49.16 48.18 47.16 46.53 47.27 48.03 48.05 47.90 47.71 47.59 47.03 48.50 49.46 49.18 48.53 46.97 45.14 44.34 45.25 47.66 48.18 48.09 47.37 46.63 46.40 45.50 45.78 45.85 46.35 46.38 45.77
53.01 53.32 49.09 52.59 52.77 53.72 48.81 48.53 47.12 45.82 46.91 50.35 48.38 43.97 42.62 41.50 39.60 42.91 45.03 48.24 49.01 49.15 49.70 50.07 48.40 48.15 47.29 47.03 46.86 46.83 46.03 46.10 46.53 46.84 47.22 47.70 47.44 46.50 45.98 45.67 45.86 39.89 45.82 46.40 45.84 45.95 44.90 44.89 44.07 44.07 43.85 43.66 44.00 44.87
52.72 56.86 54.93 49.93 50.90 51.91 50.31 48.58 48.09 49.71 50.49 49.21 45.69 43.95 43.81 45.78 47.47 47.14 47.76 48.51 49.48 49.49 49.69 47.99 47.51 48.00 47.18 46.98 46.65 46.17 44.99 43.87 41.51 39.68 39.02 39.66 40.76 41.74 43.94 43.93 44.03 44.35 44.53 44.38 39.04 41.19 42.98 42.30 42.34 42.16 42.72 42.92 43.33 42.97
53.36 56.73 52.36 51.22 49.80 48.10 49.98 52.05 50.99 52.03 51.94 50.94 49.65 46.17 45.67 46.88 49.80 52.30 52.77 52.19 49.77 48.68 48.42 48.28 47.32 45.38 43.81 43.44 42.75 43.15 44.38 43.53 41.89 39.57 36.84 37.02 38.80 41.13 41.82 42.29 42.09 42.52 42.80 42.70 42.44 42.55 40.59 41.47 41.22 42.31 40.58 39.96 39.51 39.24
56.20 53.52 52.13 52.18 50.64 51.89 52.33 53.50 53.49 52.52 50.58 49.92 50.47 47.55 47.28 49.06 52.42 52.37 50.44 50.21 49.71 49.23 47.41 46.06 45.27 44.39 43.10 42.35 41.76 40.64 39.79 43.12 42.29 40.93 39.01 39.39 39.99 40.31 40.89 41.09 41.37 41.62 41.41 41.43 40.97 40.73 40.31 39.69 39.18 38.75 38.13 37.22 37.62 37.57
54.79 52.04 52.13 49.25 50.82 53.63 52.15 52.84 50.56 51.36 50.36 48.05 49.06 50.25 49.86 49.76 46.16 50.67 50.37 49.46 47.77 46.41 43.73 45.22 43.77 42.85 43.80 43.91 43.50 43.25 37.99 42.63 41.10 39.88 38.30 38.21 38.72 39.44 40.48 40.67 41.08 41.37 40.97 40.96 40.61 39.90 38.80 38.21 37.51 37.50 36.99 35.83 36.15 36.50
53.40 52.32 51.77 51.17 51.64 51.23 52.89 51.64 49.61 48.72 50.20 50.35 49.16 50.16 48.79 47.85 44.78 47.72 50.70 50.79 48.43 46.55 45.88 45.76 46.09 45.81 44.79 43.96 43.49 42.95 41.45 42.57 36.99 33.21 33.32 32.95 32.65 34.52 38.50 40.40 40.46 40.38 39.59 38.89 38.52 38.31 37.30 37.32 36.69 35.64 35.39 36.56 36.71 36.90

GFSWCAN_sfc_wetblb_030.txt.gz
Wetbulb
51.53 51.66 51.73 51.79 51.85 51.79 51.74 51.68 51.38 51.30 51.28 51.13 51.18 51.20 51.08 51.00 51.06 50.73 49.66 52.17 46.99 38.56 40.73 44.13 44.88 42.07 42.44 42.17 37.07 41.57 40.67 44.62 44.24 40.10 38.82 38.91 39.97 44.50 44.79 48.14 47.51 47.72 47.37 47.05 49.35 48.11 45.66 59.42 59.84 55.39 61.99 65.11 64.91 64.99
51.53 51.77 51.78 51.74 51.77 51.66 51.77 51.80 51.61 51.00 50.96 51.01 50.83 50.56 50.34 50.36 50.63 50.68 47.69 53.35 50.76 42.95 41.99 46.96 47.80 48.82 48.15 47.01 43.22 43.95 41.61 40.97 44.22 42.14 43.97 43.92 42.12 45.15 46.58 42.02 51.20 45.52 49.82 49.16 51.63 52.24 59.97 59.71 62.99 64.38 64.12 63.67 64.66 65.08
51.72 51.79 51.49 51.54 51.48 51.50 51.50 51.17 50.58 50.48 50.55 50.53 50.47 50.22 50.33 50.26 50.34 49.86 49.63 49.86 48.40 42.68 42.48 44.34 44.38 49.45 51.36 50.55 50.09 42.30 43.48 45.59 45.14 47.80 43.30 44.95 43.46 47.65 43.83 46.82 49.84 52.84 53.46 52.32 52.95 55.74 60.31 61.22 62.23 63.92 64.53 64.58 65.61 66.40
51.41 51.09 51.02 51.05 51.13 51.35 51.20 50.79 50.64 50.45 50.31 50.22 50.15 50.00 49.91 49.89 49.58 49.71 49.60 51.66 46.53 43.32 37.30 41.54 50.30 48.02 51.98 51.54 50.80 49.15 46.72 48.76 50.59 47.76 42.99 44.36 43.50 49.41 45.63 46.90 46.90 50.39 51.33 51.21 53.75 61.24 60.80 61.35 62.50 63.30 64.31 66.04 66.04 67.61
51.25 50.89 50.84 51.12 51.16 51.48 51.05 50.60 50.50 50.43 50.14 50.01 49.92 50.07 50.07 50.38 50.04 49.33 49.88 50.41 50.81 42.49 37.83 40.34 46.09 49.40 50.94 52.78 50.05 50.46 48.27 46.46 47.63 44.27 41.70 43.22 47.93 47.01 49.35 48.77 48.07 51.00 49.04 48.61 52.93 52.91 54.14 60.36 62.17 63.85 63.12 63.57 64.88 65.31
51.34 51.44 51.40 51.54 51.43 51.36 51.44 51.37 50.67 50.52 50.35 50.29 50.18 49.86 49.94 50.22 50.37 47.91 43.18 49.97 51.00 48.44 39.95 35.95 46.74 47.15 49.92 50.03 50.67 48.57 48.40 47.18 46.25 44.11 42.53 45.82 50.31 46.79 44.66 45.11 48.73 50.57 52.25 55.32 52.08 55.40 53.78 59.63 59.79 60.66 59.63 60.98 62.72 62.66
51.15 51.40 51.38 51.46 51.34 51.40 51.30 51.28 51.22 51.29 51.44 51.31 51.29 51.01 50.33 50.18 48.98 45.28 43.64 46.27 48.42 48.52 40.16 35.97 38.59 47.55 50.59 51.90 49.25 48.44 49.73 47.31 46.93 45.38 44.29 45.67 47.97 48.46 47.83 43.85 47.71 51.09 53.78 55.62 55.56 55.48 52.66 53.13 54.42 57.80 57.61 58.19 58.05 59.32
51.06 51.13 51.05 51.30 51.52 51.39 51.36 51.27 51.40 51.46 51.52 51.52 51.38 51.68 51.29 50.44 49.24 45.48 48.89 48.82 49.20 44.36 41.24 34.87 36.59 41.46 50.92 47.49 45.19 49.85 46.23 46.80 46.75 45.31 47.26 45.55 48.41 48.97 43.55 47.33 50.05 51.18 52.10 54.80 55.26 55.05 53.54 54.80 55.69 55.51 56.94 57.25 56.57 56.90
50.82 50.82 50.83 50.70 51.06 51.45 51.49 51.25 51.28 51.31 51.53 51.63 51.75 51.88 50.50 48.16 45.12 48.87 50.11 49.45 49.57 43.73 36.73 35.35 34.87 34.66 48.59 47.44 49.04 47.37 50.28 43.66 48.86 44.89 45.07 46.31 44.65 42.49 46.16 49.16 47.78 48.94 49.50 51.18 52.87 54.26 54.24 54.08 55.32 55.57 55.51 54.02 53.95 56.35
50.97 50.67 50.67 50.64 50.77 50.62 50.60 50.56 50.82 51.10 51.09 51.36 51.43 48.33 45.79 51.21 52.34 51.95 47.70 42.17 40.31 40.15 37.93 32.67 37.68 37.77 46.31 46.57 45.58 44.63 46.59 43.90 40.21 43.73 47.08 41.18 41.65 46.90 50.39 49.71 49.63 49.66 49.74 51.57 50.64 51.24 53.48 52.77 52.97 54.15 53.62 54.05 53.34 52.73
50.48 50.42 50.52 50.59 50.65 50.56 50.44 50.43 51.21 51.22 50.93 51.91 48.12 47.40 51.18 53.00 49.80 46.31 42.23 38.90 38.82 35.61 39.02 39.35 42.86 43.81 48.48 43.70 44.32 48.16 44.82 44.41 37.22 42.01 40.83 37.64 37.56 43.75 49.72 50.25 51.23 50.89 50.68 50.08 50.27 51.62 52.94 54.02 54.37 54.22 55.55 55.77 55.97 53.92
50.64 50.57 50.62 50.74 50.99 50.88 50.59 50.78 51.22 51.43 51.36 48.70 47.75 50.81 51.34 48.71 45.41 40.97 38.97 42.15 41.28 40.20 45.30 44.58 46.11 48.44 47.12 49.59 44.73 46.49 42.09 43.31 37.35 47.24 40.62 35.66 40.25 48.37 50.41 51.25 51.44 51.96 52.02 52.78 53.79 53.62 54.65 54.42 54.95 55.94 56.11 56.47 56.76 58.16
50.19 50.27 50.22 50.34 50.75 50.94 50.88 50.72 51.26 50.86 50.76 52.25 49.52 47.55 45.53 46.18 39.13 35.40 34.12 37.99 40.29 45.13 46.55 47.47 45.65 47.48 49.05 49.26 46.02 45.54 40.80 41.38 47.63 40.19 35.07 38.61 45.07 48.37 50.59 52.73 53.65 54.59 54.81 55.65 55.50 55.92 56.15 56.85 57.87 57.77 57.39 57.80 57.87 58.16
49.99 49.99 50.17 50.53 50.95 50.98 50.49 50.51 51.37 52.13 52.08 47.97 45.53 38.66 43.54 41.12 41.20 39.20 40.78 42.79 47.97 48.43 48.69 49.15 49.04 46.31 48.75 46.65 47.26 42.53 45.44 45.59 38.18 35.38 33.56 40.35 45.84 49.04 52.33 54.51 54.26 53.88 54.66 54.53 54.72 55.56 56.75 56.25 56.37 56.88 57.67 58.39 58.08 57.24
50.05 49.89 49.99 51.26 51.18 50.59 50.26 50.67 51.18 54.58 52.05 47.84 47.79 39.71 42.44 47.34 48.71 49.52 48.41 48.18 51.47 51.66 49.80 50.59 49.71 49.52 47.21 46.54 48.86 45.97 41.67 36.27 36.97 35.14 40.67 46.34 48.71 50.36 53.31 55.37 54.70 53.49 53.88 53.81 55.35 55.42 55.59 55.89 55.86 56.31 57.20 57.09 57.17 57.24
50.12 50.21 52.82 51.32 51.09 50.53 49.99 53.09 55.88 57.46 54.75 51.19 48.36 45.48 48.00 46.59 47.24 49.05 50.94 49.42 53.09 50.90 51.97 50.90 46.95 45.57 45.06 45.18 42.05 40.11 39.13 37.25 41.17 45.89 48.74 50.56 51.65 53.68 54.88 55.92 55.37 56.59 55.68 55.90 55.58 57.01 55.81 56.31 56.11 56.57 58.09 57.97 57.62 57.87
49.75 52.94 51.02 51.01 50.76 50.18 52.11 54.47 55.74 50.86 49.05 47.10 46.19 49.95 48.57 48.55 48.34 49.50 50.08 51.15 54.48 52.53 47.25 47.64 42.97 42.85 47.73 40.93 39.68 43.06 39.71 43.14 46.59 49.08 51.19 51.69 51.89 53.47 54.18 57.65 56.61 56.08 56.22 54.93 55.41 55.57 56.75 53.64 57.47 58.45 57.59 57.79 57.41 58.23
52.57 54.66 51.71 50.77 50.82 52.99 57.03 55.77 53.07 49.52 45.40 48.21 46.68 49.08 50.24 51.85 49.31 51.20 53.13 54.57 53.01 51.75 50.86 46.74 49.12 42.81 40.76 39.64 41.50 45.70 48.16 50.67 52.81 53.17 54.49 56.75 56.19 57.66 56.73 56.91 57.36 57.53 57.46 57.27 54.17 57.99 55.30 53.69 56.19 54.65 56.95 58.00 57.96 56.69
51.31 51.47 50.33 50.42 51.36 50.43 51.93 51.56 53.20 46.30 47.46 49.70 50.46 51.43 51.76 52.40 52.11 54.06 54.51 55.11 54.85 53.72 51.39 48.22 44.72 42.90 44.51 48.39 48.95 50.69 52.07 52.20 49.42 54.65 56.47 57.70 58.75 58.18 57.94 57.35 58.25 57.42 57.05 56.86 55.51 54.73 55.03 57.58 55.34 54.78 55.01 55.03 54.10 54.85
49.91 50.52 51.09 51.07 51.08 53.34 49.38 51.11 54.32 48.76 46.21 48.66 51.08 50.85 49.73 50.77 52.38 52.48 52.55 52.53 52.04 50.55 47.90 46.39 46.72 49.72 50.77 52.77 54.87 54.91 54.70 55.79 54.26 53.16 53.26 51.95 53.97 56.95 56.89 56.32 54.13 58.70 56.20 57.35 54.85 49.87 54.13 53.39 53.39 53.81 53.27 53.65 53.20 52.92
51.74 55.26 52.48 54.24 55.61 54.23 51.73 50.36 49.86 50.81 50.13 48.75 51.48 51.29 50.07 52.37 49.88 49.30 48.57 51.23 48.55 46.37 47.06 50.00 50.42 52.44 54.79 54.56 54.49 55.77 56.14 54.53 54.72 52.51 52.55 53.18 52.56 54.02 53.88 54.39 55.34 53.96 52.72 51.87 51.41 51.37 50.60 50.64 50.97 51.17 51.18 51.39 51.60 52.02
55.85 52.10 55.84 56.81 53.77 53.18 52.37 54.69 51.20 52.38 50.92 50.95 50.49 50.91 48.63 46.95 47.54 48.32 51.08 48.53 48.43 50.42 53.38 50.84 51.15 51.59 52.13 52.92 52.65 53.47 54.05 56.55 57.01 54.11 51.13 52.29 51.62 51.68 51.82 52.25 52.02 51.33 51.35 50.75 50.40 49.89 50.15 50.28 50.05 50.49 50.97 50.50 49.93 51.25
53.08 53.01 56.03 55.66 50.92 47.08 47.03 55.31 49.29 50.52 47.03 48.34 50.30 47.82 47.78 48.76 50.29 52.83 47.97 50.01 51.54 56.05 55.91 53.39 54.43 56.16 54.35 55.32 53.75 52.51 53.08 53.15 52.09 51.37 51.62 51.03 52.25 52.68 52.32 52.34 51.62 50.50 49.38 49.71 50.34 49.70 49.49 46.99 49.16 49.95 50.82 50.37 50.37 49.90
49.24 53.11 51.33 51.46 51.80 46.14 52.73 50.39 53.29 50.27 49.88 48.80 48.34 45.55 47.38 49.17 51.28 46.58 42.86 46.61 49.36 51.86 51.37 52.37 51.70 51.06 51.35 52.62 49.15 49.28 49.66 50.28 49.43 49.97 50.17 49.47 48.50 49.43 50.68 50.37 50.49 50.44 50.10 49.92 49.35 48.84 48.79 48.84 46.64 49.54 49.69 49.07 49.05 48.42
46.41 46.05 49.92 41.27 53.11 50.29 47.99 47.85 48.51 49.01 46.30 47.78 46.76 47.03 48.51 51.83 46.28 43.26 42.77 43.93 46.98 48.57 49.35 50.40 50.48 49.95 48.24 48.23 48.46 48.27 51.13 47.95 46.90 46.99 48.47 49.38 49.32 48.90 48.25 48.60 48.74 47.95 48.44 47.10 46.62 47.20 47.87 48.31 48.01 48.24 48.16 47.56 46.97 47.04
41.51 51.06 45.56 50.30 50.25 48.81 48.75 46.68 47.41 47.11 47.90 46.13 45.97 50.01 51.47 46.17 42.38 39.53 41.84 44.61 46.05 47.27 48.08 48.59 48.59 48.19 47.86 48.14 46.65 46.22 46.17 47.18 46.80 45.34 46.78 48.35 47.55 46.18 44.87 44.06 43.89 43.95 46.39 47.14 46.66 45.81 45.97 46.41 46.11 45.68 45.31 45.15 42.66 44.98
44.35 49.76 53.53 56.60 53.84 52.49 50.56 51.30 51.56 49.66 46.58 45.38 47.14 47.52 47.32 41.12 38.29 40.68 44.22 47.80 47.43 49.15 50.82 50.13 48.83 47.57 46.56 46.17 46.93 47.27 46.81 46.34 45.49 44.82 46.87 48.00 46.89 45.91 44.40 42.46 41.53 42.39 45.06 45.37 44.72 44.22 43.70 43.64 42.97 42.64 42.68 43.63 44.37 44.43
53.53 54.44 49.13 51.28 51.88 51.60 48.88 48.75 46.69 45.99 47.42 50.70 49.94 43.64 41.46 40.66 39.78 46.11 48.10 51.26 51.19 51.37 51.07 50.96 49.98 48.31 46.91 46.80 46.61 45.96 45.27 44.96 44.64 44.42 44.60 45.16 45.06 44.30 44.18 44.13 44.47 39.66 44.09 44.43 43.68 43.74 43.19 42.11 41.60 41.54 41.60 41.68 42.58 43.38
51.23 53.38 51.94 50.19 51.08 50.05 50.07 48.54 47.42 50.14 52.10 51.01 47.60 45.26 44.73 47.86 49.65 51.01 51.49 51.83 52.28 51.01 48.42 48.11 47.76 47.69 46.51 46.32 45.96 45.41 44.82 43.42 40.35 37.95 37.15 37.65 38.73 39.90 42.71 42.98 42.83 42.95 43.03 42.91 40.18 40.33 41.74 41.43 41.66 41.45 41.55 41.33 41.29 41.30
52.40 52.10 51.06 51.06 49.18 47.28 48.92 52.16 50.74 52.36 52.62 51.76 50.64 49.06 48.53 49.41 51.85 53.38 51.54 50.29 49.00 48.14 48.27 47.84 46.90 45.37 43.47 43.11 42.66 43.01 44.06 43.59 41.59 38.40 35.40 36.03 37.80 40.58 41.46 41.31 41.42 41.78 42.10 42.13 41.88 41.96 39.91 41.11 40.00 40.64 39.79 39.43 39.08 38.36
55.74 53.93 52.12 51.26 49.22 51.44 52.90 53.63 53.65 53.21 52.31 50.93 51.60 48.58 47.66 48.80 51.88 52.56 50.39 50.27 49.41 48.54 46.80 45.73 45.04 44.79 43.38 42.62 41.82 40.87 39.84 43.04 41.71 40.44 39.13 39.67 39.94 40.25 40.82 41.45 41.68 42.14 41.49 41.34 40.97 40.52 39.91 39.27 38.92 38.14 37.72 37.38 37.60 37.06
54.42 51.86 51.34 48.73 50.77 54.07 55.26 54.84 54.22 51.52 50.08 51.45 48.90 49.23 48.75 48.10 46.28 50.66 50.72 50.05 47.83 46.50 44.36 45.78 44.46 43.87 44.90 44.80 44.33 43.72 40.13 42.86 41.40 40.46 39.78 39.22 39.45 39.97 40.50 41.19 40.92 41.00 40.66 40.17 39.74 39.47 38.85 38.10 37.37 37.09 36.93 36.70 36.68 36.45
53.19 52.77 52.29 51.34 51.28 51.57 54.05 53.13 51.86 50.03 49.80 49.58 49.05 48.91 48.34 46.65 43.12 47.32 50.76 50.94 48.40 46.77 45.97 45.82 46.75 46.62 46.12 44.92 43.89 43.48 42.60 42.43 38.30 34.58 34.04 33.60 32.98 35.05 38.83 40.62 40.31 40.15 39.77 39.35 39.07 38.57 37.90 37.60 37.29 37.34 37.20 37.21 36.99 37.17

GFSWCAN_sfc_wetblb_033.txt.gz
Wetbulb
52.01 52.23 52.23 51.95 51.95 51.99 52.20 52.40 52.25 52.00 51.50 51.53 51.50 51.61 51.41 51.12 51.12 50.50 47.73 51.01 45.65 38.35 38.95 41.29 41.81 39.14 39.73 39.49 34.95 39.63 38.75 39.50 39.05 37.74 36.24 36.88 35.29 38.29 39.23 43.96 42.83 42.63 41.10 42.96 43.05 40.65 39.55 57.84 54.92 53.17 57.38 60.21 61.02 60.92
51.99 51.86 51.73 51.73 51.66 51.80 52.03 52.13 51.88 51.61 51.44 51.09 51.01 51.06 50.85 50.89 50.74 50.59 46.36 51.53 50.74 43.54 41.37 45.41 44.91 45.99 44.48 44.51 41.32 41.29 39.89 39.36 41.00 39.60 39.78 38.42 39.10 41.95 41.74 39.63 47.44 41.85 46.75 45.01 46.41 46.31 55.86 58.04 58.18 59.16 59.88 60.62 60.28 60.01
51.76 51.44 51.44 51.52 51.56 51.73 51.85 51.86 51.54 51.56 51.35 50.76 50.75 50.88 50.60 50.60 50.92 49.96 47.21 49.63 48.13 42.49 40.70 41.30 40.87 46.51 48.36 47.34 48.06 38.50 40.62 42.92 43.33 44.39 42.63 39.58 38.76 44.88 39.66 43.12 45.39 48.47 50.25 48.32 48.71 50.76 52.38 56.56 57.82 58.83 61.16 61.25 64.83 65.26
51.61 51.76 51.74 51.76 51.92 51.79 51.85 51.88 51.98 51.78 51.84 51.33 50.85 50.55 50.47 50.66 51.12 49.93 46.46 49.18 47.14 42.79 36.07 38.51 47.54 45.00 48.49 48.02 48.42 46.75 44.85 45.75 46.37 45.83 42.16 41.07 38.83 46.08 42.25 43.89 44.79 48.73 49.44 46.85 48.47 51.07 54.05 57.20 54.08 58.44 61.52 65.26 64.83 65.79
51.43 51.67 51.71 51.78 51.71 51.64 51.81 51.76 51.74 51.82 51.71 51.54 51.21 51.31 50.81 50.47 50.86 49.81 48.25 48.23 49.13 42.19 36.14 37.40 42.98 46.38 49.39 49.67 47.44 49.11 46.36 44.04 44.13 38.48 41.40 38.93 44.37 45.15 46.34 47.14 44.61 49.67 47.61 45.96 46.06 51.66 53.15 53.40 53.70 55.39 61.65 62.37 62.52 62.97
50.99 51.22 51.24 51.28 51.32 51.63 51.65 51.66 51.80 51.67 51.84 51.99 51.93 51.61 51.53 51.42 50.56 46.30 42.79 47.68 51.40 48.42 39.37 33.91 43.01 43.19 49.10 48.73 47.57 46.71 46.81 44.97 44.10 42.79 42.21 43.25 46.80 46.28 43.20 42.85 48.38 49.71 51.56 52.61 51.76 54.44 53.55 54.32 54.33 55.02 55.05 59.99 61.36 61.67
51.07 51.01 51.11 51.10 51.08 51.12 51.35 51.49 51.56 51.64 51.42 51.64 51.83 51.92 51.88 51.53 48.88 43.05 42.27 46.50 48.30 46.39 39.45 34.93 35.76 45.29 47.57 49.70 48.79 47.78 46.68 44.60 43.42 45.38 43.16 43.76 45.48 46.86 45.00 42.76 47.70 51.05 51.88 53.22 55.78 55.21 51.76 52.87 51.93 54.40 54.48 56.33 56.34 56.73
51.37 51.18 51.13 51.00 50.97 50.95 50.92 50.92 51.07 51.05 51.26 51.41 51.61 51.64 51.65 51.57 49.92 45.72 48.56 48.90 48.33 44.15 41.29 34.02 34.19 40.71 49.58 45.51 43.66 48.07 44.29 45.27 45.71 45.38 46.18 44.79 45.81 46.35 43.04 46.82 49.83 50.22 50.89 53.71 53.61 53.86 52.89 53.93 54.76 54.34 54.42 55.88 54.97 53.52
51.07 51.05 50.86 50.75 50.83 51.01 51.01 51.13 51.19 51.05 51.21 51.74 51.71 51.82 50.33 47.84 45.15 47.22 50.77 49.56 48.48 43.40 36.37 35.76 32.67 35.46 46.71 46.20 47.35 46.54 47.42 41.85 47.26 43.37 44.40 44.37 43.35 41.80 44.35 47.14 47.95 49.49 49.47 52.31 52.50 52.96 54.01 53.48 53.95 54.60 54.95 53.29 53.49 54.48
50.93 50.80 50.49 50.57 50.67 50.88 51.08 51.46 51.42 51.12 51.02 51.50 50.21 47.72 45.49 48.48 52.79 51.12 45.39 41.32 39.58 39.01 35.98 32.88 38.49 35.55 44.09 44.69 43.23 43.94 45.52 42.78 40.22 42.86 45.65 39.44 39.98 47.04 48.98 49.45 49.57 49.71 50.25 51.44 50.52 50.38 51.65 51.59 52.45 53.01 52.84 53.63 53.68 52.90
50.73 50.46 50.46 50.65 50.83 50.96 51.09 51.30 51.14 50.93 51.45 51.93 48.23 46.71 49.77 53.31 49.02 46.08 41.17 37.74 35.95 33.75 35.95 36.53 38.29 37.21 48.30 42.19 43.20 45.82 43.33 41.09 34.22 40.21 38.99 37.25 37.73 44.92 49.37 49.35 50.36 50.29 50.02 50.15 50.98 52.24 53.48 53.60 54.21 54.64 54.87 53.21 54.76 53.52
50.62 50.56 50.37 50.54 50.68 50.86 51.22 51.20 50.88 50.47 49.96 47.94 46.32 49.09 50.45 48.21 44.44 40.65 39.68 41.60 39.96 38.10 42.00 40.73 43.49 44.93 46.05 48.83 44.30 45.51 40.27 42.44 37.73 45.77 38.63 33.75 40.11 46.98 47.70 50.66 50.51 51.48 50.90 51.06 51.90 52.71 53.97 55.02 55.14 55.54 55.48 55.83 56.34 57.15
50.34 50.30 50.21 50.31 50.45 50.86 51.36 50.98 50.73 51.25 51.07 52.61 47.54 46.22 44.99 43.44 34.85 35.27 34.97 38.46 40.04 45.51 46.71 46.29 44.67 46.60 47.90 47.38 43.68 42.81 39.76 40.96 46.38 36.98 32.81 37.37 43.96 46.68 48.11 50.18 52.60 53.17 53.41 53.61 54.70 55.54 56.13 56.53 56.98 56.42 55.69 57.06 57.81 57.90
50.02 49.97 50.01 50.27 50.43 51.29 51.28 50.97 51.12 51.53 51.16 48.80 46.07 37.77 41.91 40.43 36.92 38.37 40.95 43.33 46.25 47.65 47.47 47.81 47.29 45.70 47.43 45.21 46.28 41.77 44.14 43.11 36.16 33.67 34.45 40.98 44.28 46.59 50.21 52.01 52.64 52.72 53.46 53.74 54.36 54.85 55.45 55.03 55.10 56.07 56.97 56.13 55.75 55.16
49.75 49.95 50.07 51.13 51.57 51.59 51.00 50.69 50.93 53.71 52.17 48.73 47.04 39.71 43.01 46.62 47.90 48.03 49.30 47.88 49.28 51.40 49.53 49.20 48.54 48.59 47.02 45.69 45.85 43.91 39.10 34.25 36.05 35.44 40.75 46.27 49.34 50.28 51.19 52.43 51.95 52.75 53.22 53.77 53.95 54.10 54.78 55.23 55.04 54.81 55.24 55.04 55.66 55.38
49.93 50.13 52.07 51.28 51.50 51.16 50.66 52.04 56.48 56.22 55.33 50.87 48.60 45.32 47.35 46.22 46.55 48.09 49.12 47.92 52.23 50.85 52.43 50.29 46.82 44.65 42.82 43.16 40.49 38.85 37.25 35.27 40.70 45.21 48.23 49.54 49.89 51.05 52.21 53.54 53.70 53.90 53.43 53.60 53.68 52.80 52.77 53.96 55.11 54.88 55.69 55.10 54.93 54.82
49.57 49.13 51.80 51.10 50.91 50.58 52.51 52.83 57.29 53.56 50.51 48.71 46.66 50.57 48.79 48.03 47.26 48.23 50.29 50.03 53.39 49.79 44.88 46.04 41.71 40.84 44.40 39.89 39.18 41.86 37.96 42.57 46.11 48.55 50.31 50.27 50.82 51.69 53.45 54.40 53.98 52.35 52.05 52.25 54.14 52.90 52.65 54.18 56.51 55.24 52.39 53.42 54.38 54.59
49.91 53.32 51.67 50.55 50.33 52.10 56.92 56.36 53.33 50.54 47.07 48.83 46.81 48.53 50.12 50.47 49.18 50.11 51.11 52.06 50.41 48.82 47.95 44.93 47.28 42.13 40.81 39.94 41.44 44.94 47.16 49.00 49.95 50.23 50.63 51.77 52.65 54.18 54.56 53.68 54.92 54.80 53.22 53.86 53.82 52.31 52.68 51.30 51.77 51.52 52.51 54.05 52.94 53.59
49.29 50.02 50.06 50.28 50.64 49.25 51.77 52.99 54.06 46.93 47.89 49.18 50.49 51.25 50.72 50.63 52.10 51.94 51.80 51.92 51.50 51.64 49.87 47.02 43.43 41.36 42.50 45.76 45.18 47.13 48.31 48.22 46.66 48.75 50.75 53.11 53.31 54.11 54.48 54.52 54.92 54.63 53.87 51.84 51.41 52.85 51.27 49.78 49.11 49.49 49.43 50.50 51.58 51.53
49.90 50.91 51.49 51.99 51.34 51.92 50.59 51.24 56.78 49.89 46.66 49.29 51.18 49.92 49.72 49.32 51.00 51.88 51.18 51.06 50.20 48.18 45.02 43.68 43.89 46.01 46.52 47.88 49.39 49.19 50.70 52.13 50.18 48.74 50.03 50.96 51.90 52.37 53.37 52.38 52.45 52.17 50.78 50.85 49.79 47.70 48.66 48.07 48.26 48.02 48.49 47.96 47.63 47.76
53.07 54.81 53.40 54.73 55.56 53.69 52.80 50.99 50.32 51.17 50.75 49.12 51.17 50.52 50.75 51.10 49.57 48.80 48.75 51.01 47.81 46.04 45.24 48.13 47.81 48.35 49.71 48.53 48.45 47.82 48.12 52.24 51.29 48.37 50.06 50.79 54.34 54.03 52.74 52.11 51.45 49.84 48.69 47.95 47.70 47.42 46.72 46.54 46.82 47.79 48.14 47.79 48.05 48.65
55.92 53.50 55.63 58.19 54.15 53.57 52.37 55.63 51.10 51.88 51.41 51.68 50.93 50.87 48.64 46.99 47.29 48.04 48.99 46.46 45.63 48.17 49.76 48.57 49.89 49.83 48.34 47.37 46.72 47.19 47.86 49.36 49.94 48.36 47.12 49.42 47.99 48.70 49.32 49.96 49.69 48.32 47.53 47.22 46.69 46.37 46.85 47.60 46.44 47.88 47.80 47.58 47.69 47.74
53.31 53.26 54.88 56.11 51.44 45.79 46.69 57.63 50.51 51.62 47.94 48.80 50.83 47.83 47.89 48.50 50.12 51.32 46.60 47.54 49.14 50.59 50.17 50.27 51.78 52.82 50.63 51.63 47.99 46.99 47.36 46.70 47.23 47.30 47.54 48.07 48.65 48.62 47.69 47.47 46.76 45.53 45.43 46.02 47.09 46.64 46.46 44.99 46.77 47.24 48.18 47.73 47.88 47.14
50.47 52.77 51.49 51.16 51.11 45.55 54.06 50.60 53.27 51.31 50.23 47.88 47.52 45.19 46.95 48.84 50.43 46.46 42.84 44.64 46.62 49.33 48.86 49.56 49.51 48.12 48.22 48.35 45.89 44.36 44.95 45.89 45.52 46.36 46.40 46.34 46.74 45.85 46.42 44.43 44.42 44.25 44.77 45.55 46.00 45.87 46.21 46.44 44.92 46.33 46.25 45.61 45.59 45.10
45.15 46.11 48.68 39.86 52.97 50.83 48.22 48.92 49.43 49.18 45.99 47.92 46.44 44.30 45.73 48.68 43.55 42.74 42.10 43.10 46.12 46.50 47.35 48.62 47.76 47.68 45.89 44.97 45.49 44.39 45.35 44.41 43.08 43.07 44.92 46.60 45.09 44.29 43.22 43.98 42.34 42.12 43.59 43.38 42.60 42.71 43.46 44.65 43.78 43.25 43.44 43.34 43.15 43.15
39.34 51.42 45.67 49.68 50.09 49.28 48.65 46.29 47.07 47.37 47.78 46.50 46.99 48.93 49.25 45.45 40.93 38.37 41.41 43.82 45.52 47.08 47.94 47.86 46.61 45.58 44.65 45.22 43.61 42.83 42.79 43.99 42.85 41.11 42.73 43.74 42.62 41.21 40.26 39.62 38.84 39.32 42.99 43.28 41.70 41.02 41.48 41.49 40.78 40.74 40.33 40.84 40.23 41.90
44.28 46.90 53.16 57.28 51.10 50.88 49.81 50.31 50.45 47.87 45.85 45.48 47.67 47.42 46.23 39.42 37.79 41.95 45.94 48.87 48.33 49.90 51.92 50.35 48.29 45.25 44.18 44.34 44.80 44.76 44.23 43.42 41.97 41.37 43.68 42.89 42.38 41.99 41.36 39.42 38.14 39.52 42.65 42.14 41.60 41.60 40.11 39.44 39.28 39.68 39.67 40.89 40.52 40.38
47.51 47.30 47.85 50.74 51.31 52.41 48.52 47.59 46.36 45.44 46.16 49.77 48.36 43.11 41.13 40.54 40.21 45.77 47.99 51.49 52.07 51.95 51.43 50.64 48.13 46.50 45.12 44.74 44.56 44.10 43.21 42.69 41.95 41.22 41.97 41.78 41.88 41.77 41.79 41.66 41.68 39.16 41.50 41.75 41.60 41.27 40.27 39.78 39.30 39.32 39.00 38.50 38.42 39.29
49.66 51.15 50.41 49.39 49.54 49.46 48.64 47.15 46.70 48.52 49.90 49.30 45.83 43.48 43.84 47.26 48.96 49.37 51.25 51.45 51.93 50.18 47.21 45.95 45.21 45.58 44.75 44.92 44.42 43.73 42.49 40.63 37.25 34.40 34.16 34.74 36.12 37.94 40.76 40.83 41.04 41.37 41.38 41.24 39.35 40.00 40.01 39.75 39.28 38.80 38.96 38.30 38.20 38.31
50.97 52.86 51.94 49.87 47.84 46.90 49.30 50.92 49.85 51.02 50.76 49.86 49.47 48.58 47.95 48.94 50.65 53.15 50.92 49.95 48.35 46.61 46.33 46.09 45.15 43.77 42.01 41.51 40.99 41.45 41.48 40.44 38.75 36.03 33.69 33.95 35.73 38.75 39.91 39.94 39.90 40.17 40.36 40.22 39.91 39.96 39.08 39.64 38.68 38.96 37.93 37.43 36.96 36.45
54.80 53.23 51.69 50.61 49.26 51.19 52.46 53.27 53.27 52.38 51.58 50.32 50.32 47.45 46.87 49.12 50.73 52.17 51.62 50.02 48.58 47.24 45.72 44.63 44.27 43.84 42.52 41.50 40.55 39.31 38.42 40.16 39.58 39.28 38.49 38.47 38.47 38.70 39.36 39.77 39.79 39.82 39.68 39.62 39.04 38.45 37.88 37.42 37.17 36.77 36.52 36.14 36.34 36.03
54.27 51.79 50.86 49.51 50.28 53.66 54.54 52.76 52.14 50.83 50.20 49.92 48.46 49.46 49.14 47.29 46.46 48.74 49.80 48.98 46.63 45.00 43.96 44.44 43.87 42.69 44.03 43.65 43.14 42.78 40.76 40.81 39.72 39.49 39.42 38.66 38.50 39.10 39.26 39.74 39.55 39.42 39.14 38.88 38.52 38.03 37.76 37.19 36.50 36.39 36.16 36.23 36.26 36.36
52.59 52.65 52.24 51.79 51.41 51.30 52.70 53.01 51.35 49.77 49.51 49.35 49.08 49.08 47.97 46.52 43.09 47.37 50.24 50.05 47.81 45.63 44.56 44.68 45.20 45.14 44.96 43.67 42.81 42.71 41.45 41.17 38.57 35.94 35.34 35.10 34.53 35.75 37.61 39.23 39.26 39.10 38.57 38.21 38.06 37.95 37.33 37.17 36.73 36.68 36.60 36.76 36.71 36.84

GFSWCAN_sfc_wetblb_036.txt.gz
Wetbulb
52.39 52.24 51.66 51.64 51.51 51.32 51.68 51.80 52.05 51.57 51.38 51.37 51.33 51.32 51.52 51.35 51.25 46.35 43.39 45.25 43.34 39.60 39.29 41.27 40.44 37.08 37.36 36.79 33.11 35.01 35.75 37.81 36.91 35.56 35.72 35.09 31.61 33.61 34.90 40.46 41.79 41.07 40.68 40.78 41.47 38.72 36.12 52.88 53.49 45.31 49.07 57.28 57.55 57.41
52.10 52.11 52.23 52.11 52.21 52.11 52.17 52.16 52.27 52.29 52.05 51.64 51.70 51.39 51.21 51.08 50.91 50.25 42.26 45.25 47.28 42.37 40.18 43.05 43.19 44.06 42.69 41.62 36.43 35.50 34.73 37.87 39.16 34.60 36.22 35.74 34.96 38.52 35.51 36.15 46.11 39.99 44.80 43.25 44.71 45.44 50.61 53.30 51.37 53.54 58.51 57.22 57.98 57.99
51.81 52.03 51.95 52.13 52.16 52.09 52.27 52.12 52.31 52.41 51.89 51.45 51.55 51.62 51.66 51.01 50.92 49.70 42.87 43.19 43.20 40.93 39.46 37.97 37.69 43.43 45.57 45.03 45.41 36.68 37.21 40.06 40.58 41.58 39.03 37.93 32.63 36.81 35.26 37.68 42.61 47.26 49.57 46.65 46.62 50.15 50.34 53.49 52.82 54.00 55.66 62.33 63.52 63.50
51.51 51.72 51.76 51.84 51.80 51.90 52.02 52.08 52.12 52.25 52.35 52.16 51.70 51.87 51.62 52.01 51.42 50.24 43.48 43.91 44.79 42.28 35.63 35.77 43.42 40.63 44.84 44.69 43.52 43.49 42.38 43.40 44.48 42.72 37.28 36.64 36.04 41.04 39.04 41.81 41.79 47.55 48.98 46.24 46.78 49.89 51.71 53.55 52.50 53.36 60.46 63.72 64.28 64.79
51.27 51.54 51.50 51.45 51.45 51.44 51.62 51.60 51.74 51.89 52.01 52.32 51.84 51.74 52.30 52.16 51.65 48.80 45.86 45.59 47.24 41.67 35.75 36.62 41.18 42.47 42.11 45.14 45.46 44.05 42.74 41.20 40.53 37.62 36.25 35.76 41.30 41.02 43.75 44.34 41.99 48.85 45.57 44.77 45.02 49.52 51.82 51.80 53.66 54.82 54.43 56.52 59.25 62.43
51.22 51.41 51.43 51.42 51.41 51.30 51.46 51.47 51.58 51.89 51.97 52.06 52.10 51.85 51.59 52.02 51.79 44.83 39.45 45.42 48.62 47.87 39.45 33.84 37.99 38.87 40.90 46.12 45.09 43.21 44.12 42.46 39.49 38.06 40.14 42.63 44.97 41.11 39.70 40.22 46.56 49.24 49.87 49.99 50.74 54.02 53.22 53.20 54.57 55.09 54.44 54.73 55.25 54.78
51.18 51.11 51.15 51.33 51.21 51.21 51.25 51.39 51.62 51.76 51.90 51.96 51.79 51.71 51.68 51.51 49.37 42.07 39.80 45.85 47.99 46.47 38.91 34.87 32.72 38.22 43.76 44.59 44.54 43.45 44.74 42.97 40.02 40.87 41.29 42.28 43.71 44.97 42.85 41.64 46.74 49.86 50.23 51.80 54.99 54.99 52.15 53.25 52.01 54.46 55.02 55.93 56.25 56.88
50.89 51.03 50.92 51.12 51.20 51.24 51.38 51.34 51.56 51.79 51.99 52.03 51.74 51.62 51.62 51.20 50.28 45.99 47.85 49.19 48.56 43.00 41.03 33.81 32.90 35.66 45.09 41.93 40.44 45.13 40.59 42.25 42.63 42.01 43.30 42.67 43.68 44.75 41.57 45.18 48.28 48.98 49.83 51.93 52.84 53.39 53.34 54.17 53.56 53.71 54.31 55.10 54.47 55.04
50.77 50.93 50.91 51.05 51.15 51.15 51.33 51.42 51.67 52.02 51.82 51.72 52.06 51.83 49.30 47.78 43.85 45.89 50.95 49.33 47.49 42.95 36.07 35.18 31.45 32.53 44.68 45.13 45.82 45.09 45.50 40.07 45.76 41.97 43.03 43.83 41.79 40.50 44.39 46.57 47.65 49.53 49.40 51.43 52.71 51.94 52.37 52.03 52.16 53.08 53.46 53.91 53.87 53.96
50.83 50.83 50.81 50.77 50.89 50.97 51.09 51.40 51.69 51.84 51.43 51.88 49.17 45.74 42.53 47.44 52.65 49.50 45.00 40.75 39.40 38.75 36.77 32.04 38.03 34.33 40.16 43.87 42.26 41.89 43.66 40.79 38.53 42.03 43.82 38.60 38.83 45.93 48.23 48.59 48.97 50.00 51.32 52.81 50.77 49.13 50.58 51.00 51.15 50.52 51.53 53.56 54.47 53.79
50.58 50.63 50.63 50.58 50.68 50.85 51.03 51.24 51.64 51.53 51.21 46.22 42.52 42.93 46.33 52.81 48.67 45.59 40.47 36.88 35.21 32.81 33.33 34.68 37.27 36.48 44.33 40.76 40.48 44.41 41.45 40.14 34.58 39.62 37.60 35.54 36.86 43.20 47.44 48.80 49.89 50.44 51.26 51.91 51.84 52.11 53.04 53.93 54.09 53.95 53.42 53.76 52.95 52.81
50.11 50.15 50.19 50.33 50.48 50.70 50.93 51.14 51.50 47.56 46.01 45.67 46.20 47.34 47.55 46.82 42.75 39.27 38.16 39.57 37.35 36.37 38.57 38.30 41.40 41.27 44.16 47.71 43.11 43.54 38.49 40.52 35.41 43.26 36.68 33.36 40.06 45.01 47.15 49.68 50.19 50.96 51.90 52.24 53.32 53.20 53.16 54.71 55.86 55.64 55.84 56.23 56.70 57.01
50.07 50.05 50.01 49.94 50.18 50.66 51.01 51.39 51.44 51.04 49.86 47.37 44.74 44.49 43.69 42.16 37.08 32.28 32.45 35.82 37.84 43.87 45.13 43.59 43.38 45.72 47.02 46.19 42.80 41.70 40.20 37.55 43.74 34.53 31.91 36.20 42.47 46.10 48.02 49.73 51.74 53.11 52.99 53.23 53.87 54.53 54.65 55.13 56.64 56.17 56.06 56.98 57.27 56.85
49.91 49.96 49.84 49.99 49.90 50.76 51.65 51.42 51.38 49.91 47.40 44.38 42.39 37.67 38.99 39.46 41.02 39.67 42.31 43.24 46.74 46.47 46.36 47.11 46.66 45.34 46.05 42.90 45.49 40.04 41.55 41.16 35.56 32.28 36.63 44.63 47.47 48.95 50.68 52.30 52.29 52.56 53.22 53.39 53.87 54.60 54.61 54.59 54.43 55.34 55.43 54.91 55.13 54.62
50.05 49.98 49.93 49.64 51.53 51.66 51.21 51.05 51.23 48.68 47.51 43.77 42.96 38.99 40.81 44.97 46.47 47.49 48.42 46.76 48.23 48.66 46.43 45.82 46.42 45.87 44.21 43.29 44.40 42.21 38.06 33.34 35.75 37.34 43.27 47.17 48.90 49.96 50.30 50.95 50.94 51.00 51.17 50.79 51.43 51.63 53.43 53.45 52.88 52.19 53.28 53.40 53.51 54.27
50.37 49.51 49.41 51.43 51.38 51.00 50.44 50.59 51.45 50.77 49.60 44.64 44.64 42.14 44.37 44.09 45.09 45.62 46.40 46.41 49.89 48.68 47.35 45.61 43.35 42.00 41.27 42.03 39.44 37.41 35.19 34.81 39.93 44.49 47.13 48.79 48.96 50.14 49.90 50.35 50.40 51.33 50.89 49.65 50.20 51.23 51.69 52.07 50.89 50.86 50.70 50.70 52.19 53.03
49.75 45.99 50.96 51.07 50.69 50.37 51.33 49.32 50.62 48.85 47.56 45.46 44.11 46.37 44.86 43.98 44.18 44.81 45.78 46.29 50.37 47.61 43.36 44.08 41.22 40.11 43.44 39.60 38.49 42.42 40.19 43.93 46.68 47.89 49.44 49.83 49.38 49.52 50.80 51.77 51.73 50.99 50.20 48.94 48.31 47.76 47.50 48.09 48.64 48.20 48.27 50.17 50.23 50.78
45.47 48.44 50.54 50.26 49.88 49.57 49.41 50.63 47.56 46.74 44.52 45.73 43.00 44.66 45.33 45.35 45.86 46.50 47.24 47.55 45.49 44.76 45.54 43.71 45.54 40.78 39.14 37.78 38.98 43.32 45.29 47.17 48.65 48.29 49.57 50.53 50.20 50.19 51.16 50.97 49.41 49.43 49.15 49.04 47.32 46.79 46.14 45.17 44.65 44.73 45.92 46.29 49.17 50.08
46.98 48.12 49.84 50.44 49.60 46.75 47.93 48.03 47.25 44.96 46.55 44.96 45.67 46.10 46.24 45.07 48.13 48.59 48.12 48.40 47.74 46.01 43.49 43.00 40.39 38.41 39.18 43.21 43.30 45.88 46.77 45.84 45.68 47.87 49.64 51.07 50.64 50.84 49.25 49.43 48.29 47.43 46.16 45.09 44.75 43.68 43.85 42.38 43.51 44.64 45.12 44.56 44.05 45.91
50.32 51.06 51.67 51.97 51.18 46.99 45.76 44.50 48.65 45.52 43.55 44.89 45.87 44.99 45.92 45.17 46.31 46.93 47.16 46.99 45.34 43.39 40.75 38.93 40.48 43.60 41.75 41.25 43.23 44.30 45.00 48.26 44.23 43.28 46.05 48.21 49.92 49.83 46.23 46.10 45.50 45.81 45.29 44.09 44.52 43.51 43.67 44.02 45.01 43.73 43.97 44.43 44.47 43.53
51.26 52.12 52.89 51.58 49.98 48.20 46.96 44.09 44.96 44.35 44.44 44.39 46.42 45.82 44.40 45.18 44.45 44.14 44.27 45.93 43.99 42.62 41.27 41.96 41.00 43.55 43.58 43.00 42.90 43.37 42.91 44.73 43.40 42.35 41.06 42.41 44.22 44.47 44.77 44.95 44.99 44.20 43.00 42.38 41.68 42.16 42.55 41.60 42.14 44.21 43.35 42.88 43.01 44.00
50.99 53.22 50.92 53.30 49.40 48.56 46.63 47.97 44.83 45.96 45.04 45.02 44.64 45.08 42.83 42.08 42.67 43.33 43.97 42.53 41.36 42.49 42.96 42.87 43.93 43.96 41.35 40.50 40.48 41.28 41.05 42.02 42.06 42.44 42.95 43.11 41.39 40.90 40.48 41.16 41.43 40.47 40.95 40.86 41.25 41.55 41.94 42.12 43.54 44.05 43.69 43.06 43.96 43.89
51.09 51.16 50.34 51.55 47.75 41.53 42.86 49.97 45.47 44.95 44.21 45.18 46.21 44.79 43.14 41.68 42.18 43.89 39.89 40.75 42.02 43.99 44.06 43.60 43.02 43.28 42.20 40.16 40.19 40.14 40.46 40.27 39.93 40.28 41.46 41.83 40.56 39.99 39.22 38.91 39.44 39.06 39.13 39.55 41.01 41.35 41.27 41.17 41.75 41.77 41.80 41.87 41.45 41.35
51.35 48.43 47.61 46.52 46.15 41.03 48.32 46.37 48.39 46.42 46.92 44.84 42.15 40.84 43.28 44.83 46.47 41.24 38.16 38.35 42.10 42.87 42.54 43.24 43.03 41.87 39.74 38.34 37.56 37.21 37.24 38.95 38.51 39.32 40.29 38.87 37.60 36.64 37.56 37.19 37.94 38.61 37.79 37.16 38.50 38.76 39.21 38.33 38.56 38.61 38.85 39.06 39.60 39.92
42.39 42.10 44.98 39.45 46.87 46.08 44.64 44.42 44.11 43.89 41.88 43.56 42.59 41.08 40.91 46.63 40.62 38.18 37.88 38.73 40.16 40.95 42.00 42.55 42.22 40.08 36.61 35.77 35.30 36.30 36.87 37.30 35.85 35.34 36.90 37.13 35.43 35.80 35.24 35.09 35.78 36.58 37.12 36.46 36.26 36.78 36.04 36.88 37.31 37.27 37.91 38.07 37.64 37.52
37.90 47.39 43.16 46.70 46.00 45.97 46.14 42.52 42.72 42.29 43.38 42.57 42.96 44.93 46.86 43.23 38.98 35.07 36.87 40.07 40.89 43.51 42.62 41.56 40.01 36.46 36.05 35.47 33.86 33.77 33.73 35.32 36.45 34.34 33.90 35.79 36.15 34.33 32.54 32.19 32.19 34.47 36.15 34.95 35.12 35.35 35.31 35.58 36.32 36.55 36.69 36.46 36.30 36.39
40.78 43.83 46.07 49.75 48.14 47.33 45.68 44.89 45.03 42.53 42.37 41.58 42.50 42.65 43.52 38.09 37.52 37.83 41.32 43.07 43.58 46.29 47.20 44.13 39.98 37.61 36.09 36.01 35.44 35.17 35.05 36.09 33.73 32.36 33.79 34.42 35.59 35.14 33.10 31.70 31.09 32.38 35.15 37.19 36.05 35.76 35.21 35.01 34.86 35.19 34.59 34.72 34.72 34.86
45.44 45.00 43.69 47.42 47.26 47.50 43.78 42.95 42.36 41.09 41.34 43.56 42.58 39.35 38.69 38.88 36.63 40.69 42.38 46.49 47.67 47.29 42.57 39.97 38.79 38.87 37.25 36.07 35.89 34.65 33.74 33.71 35.03 34.12 33.52 33.69 33.96 35.06 35.24 35.15 36.62 37.53 36.63 36.31 35.99 35.91 35.33 34.78 34.41 34.72 34.41 33.33 32.73 34.15
46.68 48.75 48.17 46.15 45.05 45.07 44.14 42.97 42.08 42.66 43.52 42.96 40.61 39.03 39.58 42.20 43.49 43.24 44.96 45.78 43.78 42.48 39.53 36.97 36.42 37.39 36.91 37.72 35.93 34.24 33.39 32.25 31.21 29.50 29.01 27.91 29.03 31.02 34.19 34.52 34.28 34.48 34.39 34.65 37.53 37.41 37.16 35.32 34.67 34.17 34.30 33.20 32.88 32.92
47.90 49.88 47.62 48.41 44.82 42.80 44.31 45.68 44.18 45.00 44.38 44.12 44.28 42.84 42.53 43.12 44.92 47.04 45.46 42.18 39.87 38.06 38.18 37.69 36.69 36.21 34.57 34.11 32.54 32.10 32.66 32.54 31.65 29.97 28.16 27.70 28.84 31.65 33.14 33.25 33.26 33.55 33.71 33.75 33.62 33.74 36.35 34.86 34.35 33.16 33.16 31.97 31.09 30.85
51.60 51.10 49.67 46.67 45.28 46.34 47.14 47.85 47.29 46.68 45.53 43.91 44.14 42.25 42.20 44.19 47.26 46.76 45.62 41.73 39.96 38.97 38.33 37.02 36.48 36.32 35.46 34.29 32.99 31.24 29.65 31.98 33.26 33.01 32.22 31.50 31.75 32.40 33.17 33.00 33.30 33.25 33.59 33.84 33.11 32.78 32.71 32.16 31.88 31.62 31.97 32.09 32.59 32.33
50.14 48.36 47.14 45.78 45.52 48.75 49.26 47.51 46.98 47.70 46.95 44.91 43.66 45.00 44.33 42.92 43.73 42.35 42.12 41.40 39.07 37.16 39.40 38.16 36.20 35.36 35.83 35.73 35.98 35.17 36.13 33.80 33.76 33.75 32.99 32.65 32.47 33.28 32.80 32.91 33.32 34.13 34.22 33.75 33.94 33.35 33.48 32.85 32.42 32.48 32.03 32.93 32.94 33.40
48.35 48.40 48.27 48.06 46.90 47.38 48.78 48.22 47.73 45.85 45.32 45.07 44.64 45.17 47.21 43.25 39.04 40.80 42.74 42.57 40.11 38.20 37.78 37.98 38.16 37.92 37.23 37.07 36.46 36.24 36.62 35.00 35.37 35.63 35.80 35.35 34.50 33.38 31.51 32.10 33.52 34.67 34.30 33.42 33.39 33.55 33.33 33.15 32.23 32.93 33.03 33.05 33.30 33.89

GFSWCAN_sfc_wetblb_042.txt.gz
Wetbulb
51.73 51.77 51.92 52.23 52.31 52.29 52.42 52.54 52.48 52.58 52.35 52.31 52.27 52.17 52.48 52.55 52.06 48.28 44.91 44.23 43.04 38.24 37.00 37.78 38.54 36.79 35.85 35.85 31.35 34.23 31.20 33.96 35.74 32.48 30.59 30.47 30.06 33.83 32.55 32.21 31.85 30.66 29.84 28.39 30.02 31.25 30.46 50.26 50.75 46.32 47.67 52.01 53.63 54.84
51.42 51.53 51.82 52.03 52.01 52.15 52.21 52.31 52.19 52.35 52.51 52.87 52.85 52.56 52.43 52.54 52.40 51.44 44.16 46.01 45.86 41.41 39.80 42.32 41.95 42.55 40.96 39.89 37.40 36.89 35.13 32.31 32.82 32.38 32.68 31.70 29.31 33.24 32.26 29.53 37.16 32.54 36.92 35.48 34.62 34.93 44.52 50.81 50.28 52.51 52.59 53.42 54.00 54.45
51.20 51.26 51.45 51.60 51.67 51.71 51.81 51.96 52.18 52.35 52.60 52.80 52.78 52.70 52.86 52.97 52.65 51.68 45.09 45.58 44.15 40.64 38.43 36.42 36.34 41.13 42.67 42.91 43.69 35.76 37.30 38.64 38.24 41.45 36.53 32.01 30.10 34.08 29.33 30.63 33.87 37.41 40.70 40.28 39.80 43.77 48.70 51.52 52.99 53.35 54.73 54.76 55.37 56.66
51.06 51.22 51.37 51.49 51.66 51.64 51.78 51.92 52.17 52.38 52.56 52.77 52.89 52.97 53.07 53.16 52.79 52.24 46.47 46.00 44.86 40.37 33.73 34.36 43.34 38.85 41.82 41.56 42.20 42.15 40.01 37.99 37.98 41.96 38.01 36.83 34.31 37.33 33.98 34.51 35.09 37.12 38.18 37.11 39.94 41.99 48.54 52.53 52.97 53.72 55.16 56.32 56.15 57.61
50.96 51.17 51.25 51.30 51.42 51.50 51.81 51.86 51.86 52.05 52.21 52.62 52.83 52.76 53.05 53.02 52.65 51.26 49.13 46.72 47.27 40.42 32.10 34.28 39.51 40.82 40.37 40.51 40.70 41.06 39.79 37.83 36.94 37.00 36.98 35.60 38.36 37.65 36.82 36.74 34.02 38.53 36.37 34.97 34.65 43.18 44.14 49.14 52.75 55.08 54.81 54.95 56.36 57.30
50.89 51.05 50.95 50.93 51.01 51.17 51.33 51.50 51.72 51.84 51.99 52.25 52.67 52.89 52.73 52.70 52.14 46.56 40.81 44.25 47.74 46.24 38.28 33.15 38.01 39.46 42.93 41.28 40.07 39.45 39.37 38.97 38.42 36.69 36.64 39.16 42.26 38.49 32.90 32.34 39.40 43.03 44.06 43.59 41.47 50.01 50.70 52.26 54.25 55.22 54.93 55.53 56.73 57.59
50.64 50.72 50.78 50.91 50.88 51.00 51.07 51.23 51.39 51.43 51.57 51.85 52.28 52.74 52.54 52.17 49.51 43.22 40.65 45.15 48.13 47.10 39.37 34.32 34.03 38.63 39.93 43.18 42.22 40.99 40.84 39.15 38.54 38.43 37.88 38.45 39.99 39.52 33.80 31.83 38.76 41.43 42.68 42.94 46.53 50.45 51.13 52.50 51.59 54.52 55.32 56.26 56.92 58.66
50.36 50.51 50.63 50.78 50.82 51.05 51.13 51.22 51.28 51.25 51.71 51.96 52.07 52.39 52.07 51.56 50.23 46.27 48.21 49.06 48.29 43.41 41.08 33.79 33.04 33.11 38.16 39.34 38.72 41.25 37.30 38.46 39.90 39.72 41.58 39.06 40.85 39.58 33.26 38.37 41.04 43.10 44.31 47.33 51.23 53.03 52.29 54.29 54.05 54.66 55.26 55.91 54.97 55.18
50.26 50.27 50.39 50.57 50.65 50.90 50.94 51.02 51.32 51.34 51.70 51.82 52.12 52.06 49.10 47.73 44.98 45.69 51.23 50.36 47.30 42.77 34.92 34.92 32.01 28.73 40.02 40.63 41.39 42.82 44.32 38.21 43.38 39.29 40.62 41.49 36.87 32.52 37.05 39.00 41.89 45.21 46.82 50.17 52.46 53.25 53.19 52.72 53.67 54.24 54.38 53.97 53.53 54.38
50.16 50.27 50.45 50.57 50.78 50.94 51.02 51.07 51.37 51.56 51.66 51.32 48.55 44.76 40.24 46.60 51.97 49.50 45.55 40.36 39.04 38.73 38.09 31.61 37.56 34.16 36.31 41.90 41.09 41.03 43.45 39.52 36.36 40.04 43.28 36.94 34.51 40.77 44.00 47.54 48.42 50.04 49.74 52.77 50.30 49.30 50.82 50.29 50.31 51.16 51.96 53.69 55.00 54.62
50.37 49.93 49.89 50.37 50.81 50.91 50.88 51.14 51.29 51.55 48.88 43.72 43.13 41.01 45.88 51.44 47.12 44.60 38.86 34.80 33.27 32.56 33.65 34.34 35.68 35.50 42.73 37.81 40.01 42.01 39.34 38.14 32.75 36.90 36.38 33.06 33.58 40.59 46.57 48.42 50.78 52.86 53.74 53.38 53.00 52.87 53.50 52.28 52.47 53.12 53.68 54.34 55.24 56.10
49.59 49.33 49.53 50.09 50.79 50.87 51.11 51.14 51.36 49.67 44.93 46.53 46.78 48.42 46.28 46.00 42.72 38.91 38.34 37.63 34.30 34.40 38.62 36.84 39.14 37.98 40.34 43.78 40.62 41.16 34.45 35.14 32.38 39.93 33.94 32.02 40.19 46.75 49.05 49.81 51.37 52.84 53.64 54.36 55.16 55.14 55.62 55.48 55.50 55.22 55.00 55.30 55.62 55.98
49.15 49.60 50.26 50.47 50.64 50.84 51.40 51.45 51.36 51.36 50.10 48.25 45.24 43.70 44.18 44.18 36.13 35.10 32.71 37.83 41.34 44.77 45.43 41.90 41.77 43.10 45.15 45.89 42.54 41.35 37.21 36.21 42.45 34.79 31.82 40.65 45.73 46.94 48.31 49.27 50.31 52.60 53.12 53.26 53.61 54.75 54.51 54.26 54.91 55.16 54.80 56.15 56.54 56.19
49.69 50.38 50.38 50.37 50.70 51.21 51.21 51.29 51.43 49.25 46.24 42.78 41.67 37.93 41.37 39.68 40.78 39.93 40.40 41.92 45.99 46.85 45.98 46.00 45.87 45.67 45.81 43.84 44.18 39.59 40.75 40.27 35.19 32.02 36.01 43.78 45.79 44.94 45.13 46.78 46.80 46.14 48.13 48.33 49.23 49.85 50.43 50.96 52.08 52.97 53.57 55.40 55.74 55.32
50.39 50.16 50.23 50.06 50.95 51.34 51.45 51.12 51.32 47.86 45.79 42.41 43.44 37.20 40.69 43.44 43.94 43.78 44.87 44.20 44.58 46.02 44.72 44.06 43.21 43.00 42.73 42.17 42.37 40.01 37.46 32.93 36.57 36.50 42.46 45.84 46.94 45.66 44.55 44.12 43.90 43.97 44.53 44.75 46.20 47.23 48.30 48.72 48.28 47.74 49.19 50.33 53.89 54.28
50.38 49.45 47.78 50.58 51.05 51.25 50.90 49.81 49.90 48.73 47.07 45.15 43.18 39.57 41.61 39.89 40.58 41.87 41.89 40.74 44.18 45.05 45.61 44.70 41.86 40.49 39.29 39.91 38.15 36.64 33.76 33.29 38.73 42.82 45.26 46.44 44.35 43.85 43.23 43.43 43.54 43.72 43.85 44.16 44.68 44.92 45.17 45.08 45.37 45.58 46.36 48.28 49.48 49.36
49.49 44.32 50.02 50.14 50.83 50.83 50.53 48.32 47.99 47.04 45.27 43.16 40.87 41.67 40.06 39.27 39.29 40.97 42.40 41.39 43.38 43.32 40.17 42.51 38.43 38.58 42.08 37.02 35.10 37.19 36.67 39.40 42.94 42.08 44.27 44.31 42.42 41.82 41.57 41.62 42.14 42.60 42.26 42.88 43.29 43.95 44.21 45.54 45.69 45.20 44.65 45.54 46.09 46.07
43.82 46.00 49.97 50.52 50.34 47.94 48.75 46.93 46.82 45.55 42.17 42.06 39.00 40.38 40.52 40.32 40.78 41.63 42.63 44.19 39.96 37.84 41.12 38.87 39.68 35.90 34.43 32.63 33.02 36.83 39.81 41.95 44.00 41.51 40.21 40.28 40.74 41.16 41.74 41.00 41.50 41.65 41.21 41.86 42.58 42.73 42.44 42.49 42.11 42.47 43.23 44.22 44.17 44.34
46.66 48.23 50.15 51.09 50.57 46.27 45.35 45.82 46.57 42.01 41.57 41.39 41.76 41.62 40.55 40.73 42.12 42.97 43.81 44.00 43.73 40.52 38.36 37.01 34.72 32.87 34.33 37.03 37.90 37.21 37.48 38.13 40.04 40.26 37.94 38.61 39.17 39.22 39.73 40.51 40.84 40.49 40.86 40.50 41.04 41.42 42.40 42.33 41.89 42.02 42.09 42.51 41.50 41.94
50.20 50.56 51.47 51.90 50.15 45.08 43.51 42.69 45.44 43.10 40.80 42.70 42.02 41.48 40.27 40.05 40.82 41.87 42.72 42.45 39.41 38.22 35.96 33.93 35.07 37.68 38.31 37.17 35.65 35.59 36.09 38.57 38.70 35.86 35.50 36.28 36.89 37.84 37.10 37.67 37.96 38.74 39.01 39.18 39.26 39.77 40.27 40.54 41.34 42.15 41.77 40.95 40.06 39.35
49.45 50.82 51.55 50.45 48.74 45.94 43.55 41.63 41.72 42.04 42.03 41.01 42.11 42.24 41.00 41.85 40.37 39.20 39.00 39.97 38.61 36.99 34.96 38.59 36.52 34.99 34.40 34.20 34.27 33.92 35.02 34.89 33.86 33.99 33.97 32.82 34.70 35.78 36.98 37.77 37.86 37.30 36.46 35.99 35.55 36.11 36.64 35.79 37.10 39.27 41.35 40.49 39.82 39.01
47.14 51.03 48.90 50.73 47.60 45.59 44.07 43.88 42.78 43.01 43.74 42.77 44.42 45.47 40.88 38.63 37.65 38.74 39.16 37.38 36.69 37.59 38.33 36.64 35.53 33.76 32.91 33.10 33.29 32.93 33.87 35.41 34.89 34.54 35.90 35.19 33.31 33.96 34.98 34.83 35.91 34.68 34.77 34.38 34.79 34.63 35.32 35.82 37.53 38.87 39.17 39.10 39.02 38.21
49.82 49.16 48.35 48.46 45.30 40.37 41.53 46.23 43.33 42.64 40.30 40.13 41.80 40.74 41.46 43.16 42.38 41.47 38.99 36.42 37.09 38.59 38.31 37.78 36.16 34.66 32.94 33.78 34.11 33.76 33.40 33.13 32.03 31.76 33.06 32.39 32.38 32.26 32.82 33.53 33.79 33.80 33.23 33.36 33.88 34.06 34.57 36.21 37.04 37.22 37.35 36.99 36.73 36.28
49.72 46.34 45.39 43.84 44.33 40.02 44.63 42.39 43.83 42.81 42.47 43.47 41.68 35.84 38.38 40.25 44.29 39.06 34.91 36.01 38.03 38.61 37.04 36.90 34.40 32.90 32.61 32.81 31.07 30.60 31.18 31.23 31.28 31.47 30.96 31.55 31.22 30.96 31.35 31.72 32.41 32.96 32.90 33.36 33.89 34.23 34.87 35.47 36.26 36.56 36.60 35.91 35.48 34.69
40.43 41.00 42.12 35.90 43.27 42.32 41.81 41.29 40.38 40.65 38.89 40.10 38.75 37.94 38.94 40.48 37.03 34.54 33.68 36.15 37.80 39.36 38.78 36.15 34.48 32.76 31.31 30.77 30.56 30.60 31.53 30.68 30.11 30.15 30.60 30.77 31.23 31.59 31.72 31.95 31.94 31.91 32.83 33.82 33.64 34.60 34.59 35.05 35.20 35.64 35.79 35.48 34.83 34.38
38.07 44.14 40.98 42.75 42.00 42.35 41.54 38.81 39.17 39.26 40.62 39.68 40.05 41.21 40.33 37.34 34.64 32.46 33.98 37.00 38.02 40.12 40.63 37.90 33.99 31.91 31.37 31.04 30.26 30.18 31.12 30.76 30.86 30.76 30.80 29.81 30.65 30.87 30.15 29.90 30.29 31.98 33.63 33.37 34.66 34.71 34.64 34.83 34.70 34.56 34.35 34.56 34.48 34.34
37.15 40.61 42.34 44.82 45.00 43.64 40.64 40.55 40.76 39.62 39.92 38.74 39.59 39.94 37.92 34.01 33.35 35.43 38.52 39.55 40.52 42.31 42.68 41.27 35.69 33.51 32.14 30.79 30.77 30.93 30.43 30.57 31.40 31.55 30.93 30.73 31.29 31.47 31.50 30.87 30.59 31.69 32.98 35.01 35.56 35.63 34.94 34.44 33.93 33.79 33.42 33.63 33.67 34.31
42.74 42.20 41.98 42.70 44.11 43.48 40.55 39.65 39.54 38.21 38.35 39.52 39.31 37.00 36.01 36.14 35.02 38.54 40.12 41.71 42.46 37.19 34.47 33.61 33.75 33.32 31.95 31.78 31.09 31.16 30.93 30.50 31.85 31.17 31.04 31.96 31.94 31.92 32.01 32.63 32.78 34.82 34.02 35.45 35.60 35.51 35.22 34.72 34.49 34.34 33.68 32.85 32.91 33.87
43.08 43.97 44.32 42.51 43.05 41.74 41.41 40.58 40.15 40.14 40.72 40.51 39.12 37.43 38.45 39.82 41.28 41.21 41.84 40.43 36.98 34.75 33.97 33.15 31.75 31.69 31.03 30.87 30.94 30.56 30.70 31.05 31.88 29.60 28.57 27.94 29.14 31.19 31.94 32.50 32.98 32.96 32.72 34.19 34.85 36.24 36.17 34.97 34.55 34.46 34.08 33.72 33.55 34.61
45.83 46.49 43.47 44.69 42.86 41.30 42.72 42.85 42.00 41.78 41.44 42.20 41.86 40.90 41.18 41.73 42.59 43.36 40.10 36.97 35.39 34.72 36.60 34.42 31.78 31.86 30.85 31.02 30.68 31.50 31.46 30.89 30.88 30.61 29.20 29.29 30.11 31.33 31.57 32.36 32.83 32.54 32.67 33.58 33.69 34.30 35.29 35.39 34.99 35.50 35.00 34.86 35.03 34.99
46.71 45.93 44.98 44.99 43.65 43.77 44.50 44.54 45.43 46.29 44.26 41.37 41.44 40.93 41.57 42.33 43.65 42.14 38.66 36.32 36.35 38.04 36.04 32.81 32.24 32.17 31.66 31.12 30.62 30.58 30.37 32.10 31.92 33.31 32.60 31.78 31.55 31.97 32.71 32.63 32.88 33.32 33.78 34.50 34.26 34.08 33.99 33.63 33.65 33.95 34.05 34.14 34.51 34.46
46.30 45.45 44.58 43.34 43.26 44.71 44.99 43.88 43.25 43.17 42.79 41.88 41.65 43.41 43.79 42.17 41.48 41.86 37.59 36.36 38.50 37.91 37.38 34.71 33.69 33.29 33.63 33.92 33.67 33.00 34.18 33.17 33.45 34.02 35.47 33.31 33.23 33.34 32.74 32.67 33.29 34.79 34.86 34.70 34.63 34.47 34.46 34.04 33.85 33.78 33.42 33.47 33.80 34.04
47.02 45.63 45.15 44.57 43.39 42.67 43.84 43.95 42.90 42.81 42.61 41.26 41.64 42.95 44.22 44.19 42.19 41.10 39.31 37.99 38.74 37.48 35.86 35.39 35.45 35.25 35.57 36.62 35.79 34.88 34.10 34.59 35.14 34.43 34.74 34.81 34.74 33.90 33.10 32.92 34.53 35.18 34.70 34.39 34.69 34.65 34.44 34.31 33.80 33.71 33.70 33.76 33.76 34.12

GFSWCAN_sfc_wetblb_045.txt.gz
Wetbulb
51.77 51.77 51.81 52.06 52.06 52.16 52.29 52.47 52.62 52.70 52.74 52.95 52.49 52.72 53.02 53.28 52.87 50.69 46.82 46.92 44.34 39.08 39.43 40.99 40.87 37.36 37.93 36.97 33.21 36.51 35.77 36.79 37.29 33.01 32.80 33.51 31.70 34.39 33.98 36.69 36.26 35.65 33.62 32.48 34.04 31.93 29.93 47.72 52.27 48.24 53.57 56.33 57.34 58.55
51.36 51.40 51.61 51.59 51.85 51.90 52.15 52.43 52.48 52.52 52.73 52.89 52.70 52.35 53.09 53.22 53.33 52.62 46.22 47.12 47.54 41.87 40.10 45.08 44.95 45.34 43.44 41.95 38.24 38.09 36.43 36.12 37.86 34.44 34.27 33.44 32.49 34.72 33.90 30.23 40.95 34.84 38.63 37.73 37.62 37.62 45.71 48.74 49.99 55.58 56.95 56.05 57.20 58.50
51.18 51.28 51.36 51.65 51.78 51.99 52.01 52.21 52.38 52.44 52.62 52.72 52.47 52.68 53.01 53.22 53.45 52.71 47.54 45.89 44.66 40.85 39.46 40.44 40.30 45.00 46.88 45.86 46.26 36.00 37.92 39.25 38.04 42.65 38.00 37.01 32.70 36.52 30.46 33.83 36.44 40.37 43.71 39.74 40.58 43.65 46.35 48.39 51.65 53.58 57.11 56.97 58.62 60.44
51.12 51.30 51.47 51.57 51.59 51.49 51.61 51.86 52.01 52.25 52.32 52.62 52.24 52.72 53.30 53.24 53.41 52.86 48.81 46.72 45.22 40.93 35.21 37.86 44.79 42.85 46.99 46.65 45.23 44.61 42.60 43.52 42.46 43.34 37.48 36.14 34.29 40.26 35.37 37.59 37.11 39.75 41.50 39.83 39.60 41.95 43.99 47.81 50.39 53.72 56.67 58.27 59.41 61.48
51.02 51.08 51.20 51.04 51.10 51.33 51.45 51.64 51.81 51.85 52.24 52.42 52.08 52.56 52.87 53.29 53.00 51.80 50.76 47.81 47.83 41.29 36.35 37.22 43.52 45.30 45.12 44.57 43.58 43.79 42.57 40.72 38.80 37.36 37.51 35.19 38.63 37.25 38.81 38.64 34.56 40.51 39.19 37.12 36.76 44.46 45.32 46.65 50.07 53.75 54.76 57.47 59.87 59.82
50.69 50.72 50.79 50.90 50.92 51.13 51.32 51.54 51.81 51.88 52.04 51.99 52.18 52.30 52.64 52.62 51.33 48.29 43.31 48.47 48.63 46.35 39.29 34.51 43.24 42.29 43.68 42.54 42.15 41.75 41.67 40.37 38.73 36.88 36.29 38.76 41.22 39.14 34.72 34.16 40.42 43.11 44.56 44.93 42.67 46.38 46.53 48.56 48.82 49.62 50.71 57.61 58.84 57.80
50.55 50.65 50.71 50.82 50.99 51.07 51.18 51.35 51.76 51.90 51.88 51.89 52.35 52.51 52.62 52.28 49.90 44.80 42.36 46.30 48.68 47.92 39.22 35.25 34.97 42.52 42.91 43.26 41.23 40.52 42.18 39.70 38.75 38.05 36.79 37.65 39.17 39.67 35.81 31.98 39.37 42.96 44.82 45.92 46.63 45.15 43.43 45.80 45.63 50.09 56.58 58.92 57.35 58.51
50.44 50.54 50.63 50.41 50.44 50.75 50.64 51.10 51.48 51.75 51.88 52.28 52.46 52.36 52.07 51.27 49.90 46.89 48.86 48.86 48.74 44.07 41.64 35.04 35.02 38.04 44.06 41.81 41.82 43.06 38.98 39.15 39.09 37.83 39.21 38.34 39.62 38.29 32.32 38.83 41.66 42.35 42.87 43.08 43.86 45.08 46.54 47.63 51.25 53.19 58.17 56.85 56.53 57.95
50.35 50.19 50.70 50.87 50.11 50.19 50.30 50.67 51.45 51.65 52.10 52.06 52.24 51.38 50.45 48.66 45.77 46.76 51.16 48.65 47.88 43.29 35.99 35.47 33.27 33.65 43.17 42.46 45.05 43.62 40.75 34.87 41.12 36.06 38.11 38.98 34.98 32.17 36.93 39.16 40.63 42.21 43.09 44.54 47.11 50.52 48.42 46.93 51.58 55.12 55.34 55.00 56.95 59.19
49.62 50.24 50.19 49.66 49.82 49.87 50.70 51.41 51.84 51.90 51.94 51.99 50.83 47.92 44.83 47.23 51.78 49.88 45.63 40.52 40.37 39.86 38.14 32.56 37.89 34.80 39.08 41.24 41.76 40.65 43.27 38.62 34.69 37.60 40.70 36.29 33.62 39.29 43.19 44.57 45.08 49.40 51.01 48.99 46.80 50.18 51.36 52.61 53.04 54.20 54.15 54.98 57.41 60.40
50.16 49.93 49.71 49.42 49.76 50.91 51.38 51.73 51.95 51.75 49.89 49.20 46.87 44.82 48.08 52.08 47.18 44.66 38.44 36.21 34.91 33.47 34.35 34.85 36.13 35.07 42.89 37.75 39.57 42.01 37.86 35.82 33.29 36.89 34.09 33.11 33.26 40.90 46.20 46.23 48.79 51.45 53.50 51.75 52.76 54.34 53.96 53.77 54.06 54.69 54.99 56.01 59.12 58.55
49.70 49.45 49.51 50.12 50.88 51.32 51.57 51.53 51.65 50.71 49.37 48.08 48.10 48.87 47.58 46.94 44.78 40.96 39.83 38.90 36.84 36.40 39.93 37.35 39.93 38.29 40.24 43.60 40.83 40.99 35.61 36.35 33.29 41.83 35.82 32.20 38.52 42.66 43.92 45.36 46.09 46.46 52.44 53.95 54.57 54.54 55.26 55.64 56.02 56.30 56.28 57.16 58.11 58.75
49.36 50.11 50.40 50.74 50.99 51.40 51.46 51.76 51.72 51.18 50.64 50.23 47.26 45.99 45.37 44.64 35.59 33.65 32.37 36.25 39.52 44.31 46.93 45.69 42.88 43.57 45.01 45.66 43.65 42.61 39.36 37.56 43.84 36.10 31.84 37.73 41.88 42.83 43.82 45.56 45.36 45.91 46.46 49.64 49.96 50.61 51.62 52.32 55.44 56.00 55.56 55.54 55.32 56.05
50.31 50.58 50.55 50.61 51.18 51.39 51.81 51.64 51.76 50.74 51.26 48.42 45.34 37.00 41.59 38.58 39.90 40.01 39.78 40.40 44.51 46.48 45.06 46.44 47.19 45.51 48.19 45.18 44.56 39.31 41.54 41.37 36.39 32.20 34.35 40.19 42.36 43.26 44.00 45.54 46.12 45.56 45.57 45.67 46.10 47.93 48.16 49.02 49.78 52.11 53.33 53.56 52.72 51.63
50.44 50.42 50.40 51.03 51.33 51.74 51.76 51.37 51.50 54.07 51.98 46.72 45.64 38.03 41.06 44.19 44.51 44.96 45.64 45.36 45.79 45.90 46.55 46.64 46.57 46.09 43.78 42.60 42.18 39.75 38.13 33.29 33.61 33.83 38.57 42.15 43.70 43.09 43.03 44.24 43.82 44.51 44.93 45.43 46.19 45.61 47.01 47.28 47.05 47.16 48.79 48.78 48.54 48.47
50.67 50.61 51.30 50.88 51.42 51.71 51.04 52.18 54.84 55.44 51.83 48.44 45.99 42.31 43.71 42.41 41.34 42.71 43.16 42.86 46.18 45.56 50.09 47.57 43.50 41.55 40.13 40.01 37.38 34.90 34.95 32.53 36.56 39.31 41.81 42.82 42.77 42.51 42.29 43.53 43.93 44.75 44.96 45.92 46.41 45.57 45.38 47.07 46.77 46.25 46.72 46.86 47.01 47.39
50.09 51.67 50.42 50.63 51.20 51.24 50.97 54.91 54.82 50.59 48.34 46.38 44.57 46.60 44.36 43.62 42.41 42.84 43.65 43.69 47.02 45.19 42.52 42.99 37.00 37.46 41.71 36.33 34.47 34.13 33.21 36.64 40.93 41.60 41.79 42.13 42.01 42.67 43.55 43.51 43.41 44.01 44.25 45.24 45.57 46.59 46.84 46.72 45.20 44.16 43.00 44.47 44.96 45.17
49.60 51.10 50.51 50.81 51.42 51.60 54.28 53.40 51.74 48.89 44.58 46.74 43.88 44.66 45.83 45.87 44.13 44.47 45.11 46.20 44.15 43.82 43.07 39.65 41.67 36.08 34.68 32.33 34.55 38.54 39.51 40.48 42.71 41.10 40.20 40.90 42.08 43.45 43.79 43.24 43.69 43.86 43.25 43.48 44.67 45.16 44.93 45.26 44.74 44.81 45.32 45.52 45.20 45.73
50.03 50.50 50.56 51.18 51.78 51.98 51.08 50.74 52.03 45.43 46.87 48.21 48.46 47.76 46.63 46.00 47.11 47.50 46.77 47.05 46.50 45.57 44.19 41.01 36.58 34.82 35.86 39.04 38.65 39.10 39.76 40.40 41.17 41.02 40.66 41.10 41.24 42.04 43.01 43.32 43.69 42.83 42.64 42.22 42.47 42.96 43.66 44.49 44.99 45.32 45.46 45.40 43.57 44.52
50.19 50.66 51.16 51.87 51.76 51.59 48.91 49.05 51.71 48.40 45.09 48.17 49.23 46.94 46.32 45.49 46.51 46.55 45.96 45.61 44.23 42.21 39.09 36.73 36.96 39.52 39.86 40.38 40.72 39.77 40.04 40.92 41.76 40.51 39.88 40.75 41.43 42.21 41.31 41.36 41.26 42.52 42.51 42.98 42.84 41.24 44.16 43.75 43.54 43.59 43.54 43.13 42.50 42.18
51.81 53.29 52.37 53.75 53.83 51.61 49.72 48.58 48.30 48.83 48.57 47.02 47.48 46.09 47.08 48.28 46.31 44.36 43.92 46.29 42.20 40.59 37.67 41.19 40.44 41.16 41.11 41.40 41.07 41.34 40.68 40.68 39.20 39.49 38.86 39.08 41.07 41.32 41.07 41.58 41.89 41.51 41.04 40.95 41.25 41.87 41.86 41.45 42.71 43.42 43.19 42.61 42.88 42.69
52.40 51.70 54.30 55.08 52.05 50.70 50.21 50.18 49.54 49.34 48.33 47.68 48.53 49.56 46.98 45.64 45.12 45.12 45.97 42.89 42.07 43.63 44.45 41.81 41.60 41.33 40.97 40.47 40.06 40.06 40.46 41.45 41.16 40.16 39.28 39.31 38.69 39.17 39.45 40.12 40.32 39.50 39.65 39.96 40.64 40.65 41.16 41.92 42.74 42.42 41.67 41.34 40.85 40.80
51.53 52.37 53.39 52.76 50.05 45.62 46.46 51.91 48.91 48.65 45.41 45.79 48.37 45.72 46.21 46.96 47.41 47.18 43.23 44.55 45.10 46.24 45.43 43.37 42.35 41.40 40.81 40.82 41.62 41.21 40.25 40.31 39.11 38.67 38.96 39.29 39.46 39.47 39.69 39.87 40.11 39.17 38.82 39.84 41.56 41.35 40.98 39.49 41.16 41.89 41.97 41.79 41.29 40.66
50.50 51.37 50.15 49.11 49.26 44.42 49.69 47.73 49.38 48.71 48.53 47.26 45.25 42.82 44.69 47.08 48.24 43.79 40.65 43.43 46.01 46.60 44.40 44.05 42.20 41.25 41.52 41.24 39.91 39.47 39.00 39.22 39.50 39.27 38.72 38.87 38.41 38.34 39.05 39.11 39.78 40.01 40.01 41.11 40.76 40.63 40.88 40.61 39.15 40.91 40.59 40.27 39.94 39.41
45.03 45.74 46.91 39.91 48.91 47.62 46.20 45.44 44.98 46.13 43.94 45.25 43.85 43.97 45.74 47.13 42.78 40.43 39.85 43.30 45.69 46.15 46.82 43.91 42.43 41.15 40.34 40.29 40.22 40.06 39.57 38.88 38.05 37.37 37.92 38.58 38.92 39.07 38.83 39.48 39.34 39.40 40.75 40.49 39.22 39.31 39.31 39.90 39.81 39.53 39.10 38.79 38.18 37.88
41.56 48.26 45.47 48.10 47.63 47.02 46.66 43.13 43.49 43.61 45.39 44.28 45.08 47.36 46.51 43.23 38.69 37.25 41.78 45.06 46.21 46.94 47.45 46.18 43.44 41.57 40.01 40.40 39.79 39.61 39.31 39.46 39.18 37.80 37.58 37.89 37.83 37.39 36.80 36.54 36.90 38.11 40.41 40.31 39.90 38.84 38.54 38.75 38.27 37.80 37.78 37.29 35.46 37.40
42.07 46.06 48.78 50.41 51.05 49.30 46.79 46.43 46.61 45.46 44.23 43.80 45.80 44.95 43.48 38.19 37.98 42.55 46.44 47.26 47.75 49.23 49.00 47.11 46.43 43.32 41.98 39.66 39.43 39.67 39.83 39.78 39.08 38.34 38.99 39.04 38.81 38.71 37.89 36.39 35.96 38.08 39.93 40.50 40.50 39.67 38.43 38.13 37.72 37.66 37.57 38.04 38.17 37.95
48.83 48.46 47.33 48.86 49.65 49.86 45.69 45.02 44.15 43.00 44.07 46.11 45.12 41.41 39.99 40.04 40.73 46.26 47.55 49.64 49.18 46.76 43.24 42.69 43.21 42.74 40.96 40.03 39.92 40.13 39.62 39.80 39.53 39.13 39.08 40.19 40.50 39.85 39.43 39.64 39.80 35.32 39.26 40.70 40.58 40.51 39.57 38.89 38.45 38.06 37.62 37.59 38.50 39.57
48.65 49.73 49.24 47.51 47.96 47.47 47.27 46.40 46.26 47.21 47.74 47.28 45.55 43.80 44.42 46.97 48.53 48.16 48.98 49.46 47.78 44.55 43.06 41.48 39.75 40.36 39.67 39.64 39.92 39.98 40.30 40.05 38.14 35.77 34.32 34.32 35.68 37.02 39.11 39.56 39.72 39.67 40.32 40.69 35.60 37.77 39.36 39.37 39.25 39.24 39.03 39.41 40.19 41.18
50.37 51.16 48.63 47.86 47.12 46.62 49.43 49.77 49.50 49.19 48.61 49.73 48.98 47.18 47.09 46.61 47.62 49.11 47.88 46.53 44.92 43.44 43.53 42.75 40.48 40.64 40.06 39.95 39.93 38.98 40.24 40.34 39.63 37.84 35.54 34.96 35.92 38.32 38.83 39.01 39.18 39.81 40.32 40.26 40.14 40.38 36.08 39.69 38.52 40.80 39.56 39.37 39.51 39.43
51.31 50.65 49.24 49.29 49.01 50.52 50.71 50.32 50.24 49.75 48.57 48.16 47.81 47.00 47.10 47.72 49.64 47.72 46.98 46.51 45.31 42.55 40.68 39.04 40.21 40.98 40.86 40.75 40.18 39.18 39.10 40.31 39.87 39.51 39.76 39.92 39.50 39.24 39.24 39.33 39.57 40.19 39.99 39.74 39.55 39.41 39.47 39.60 38.97 38.13 37.74 37.54 37.88 37.95
50.77 50.39 49.61 47.87 49.53 50.33 49.79 49.32 49.26 49.09 48.71 47.06 47.34 47.68 47.72 47.58 46.71 47.87 45.31 44.62 41.61 40.84 39.90 41.63 42.04 41.61 42.22 42.60 42.22 41.69 35.93 41.37 41.05 41.36 39.59 40.13 39.86 39.83 39.93 40.49 40.25 39.86 39.31 38.96 39.01 39.07 38.59 37.69 37.74 37.34 37.31 37.31 37.83 38.25
51.03 50.58 50.24 49.76 48.90 47.20 48.78 48.61 47.98 47.25 48.06 46.90 46.85 47.42 48.02 47.62 44.98 45.64 45.42 44.43 43.85 43.77 43.06 43.21 42.71 42.46 42.31 41.69 41.36 41.54 37.94 41.59 38.36 34.34 34.88 34.72 34.40 35.76 39.32 39.68 39.49 39.43 38.73 38.51 38.42 38.02 37.60 37.25 37.53 37.40 37.53 37.72 38.10 38.49

GFSWCAN_sfc_wetblb_048.txt.gz
Wetbulb
51.71 51.81 52.00 52.14 52.12 52.33 52.31 52.58 52.80 52.85 52.84 52.84 52.78 52.56 52.97 53.37 53.73 52.13 49.04 48.78 44.33 38.65 40.25 41.75 43.05 39.09 40.08 39.20 35.23 38.71 39.27 41.25 40.57 35.27 35.88 37.57 35.35 39.22 37.02 39.97 39.15 39.11 36.61 36.63 37.81 36.59 34.95 49.08 49.33 48.81 54.09 57.65 58.92 59.55
51.58 51.77 51.81 52.00 52.04 52.20 52.18 52.39 52.50 52.52 52.72 52.60 52.49 52.61 53.07 53.17 53.43 53.25 48.57 48.66 48.40 41.67 40.90 45.16 45.33 46.34 45.29 43.84 39.69 39.60 39.05 39.65 43.23 39.04 40.25 36.48 36.17 38.48 37.42 33.73 43.29 36.81 41.39 40.45 40.71 40.41 48.20 50.30 50.65 53.08 54.29 54.13 56.06 58.30
51.65 51.67 51.82 51.75 51.81 51.77 52.04 52.08 52.37 52.43 52.60 52.58 52.26 52.90 53.13 53.40 53.28 53.09 49.49 46.96 45.67 41.44 40.76 40.99 42.48 48.79 50.58 49.49 49.34 38.17 40.31 41.56 41.28 44.23 39.31 39.55 34.58 39.05 34.95 36.84 38.92 42.19 45.39 41.79 42.69 45.75 47.47 49.60 51.56 53.35 54.44 54.53 56.21 58.80
51.55 51.61 51.63 51.54 51.61 51.69 51.78 51.97 52.09 52.38 52.36 52.27 52.45 52.85 53.13 53.13 53.33 53.04 49.09 47.57 46.51 41.41 35.87 41.05 48.57 45.41 49.29 49.27 47.88 47.51 45.04 44.85 43.90 44.41 39.86 37.58 34.70 42.76 38.12 40.41 40.01 43.10 44.79 42.65 42.95 46.08 47.50 49.19 50.93 51.74 52.72 56.05 56.50 58.52
51.18 51.16 51.11 51.15 51.28 51.52 51.33 51.35 51.38 51.73 51.90 52.09 52.50 52.93 53.07 53.08 52.95 52.94 51.33 48.56 49.51 43.23 38.26 40.07 47.34 48.72 47.93 46.99 46.40 46.17 44.67 42.53 39.89 39.25 37.99 36.41 39.94 39.55 41.90 40.89 38.51 43.70 42.18 40.14 39.65 46.68 47.08 48.11 51.12 53.15 52.26 52.38 53.66 54.75
50.78 50.80 50.88 50.94 50.73 51.39 51.01 51.18 51.07 51.59 51.83 51.95 52.67 52.87 53.02 52.53 51.94 51.72 46.50 48.93 49.95 48.29 39.86 36.65 46.70 45.86 46.14 45.19 43.85 43.92 44.11 42.57 40.96 38.80 36.90 38.86 42.47 39.17 36.74 35.41 42.94 45.96 47.57 47.81 45.08 48.56 49.16 50.26 51.85 52.47 51.45 52.33 53.64 54.86
50.59 50.63 50.83 50.82 50.88 50.65 50.80 50.70 51.13 51.65 51.84 52.30 52.83 53.03 52.51 51.69 52.83 47.96 46.21 48.18 49.89 49.51 40.78 36.52 39.16 45.58 45.37 44.18 42.82 42.59 44.56 43.11 41.18 38.55 36.59 37.46 38.30 39.29 35.62 33.03 40.92 44.08 45.53 47.06 48.02 48.05 46.26 48.83 47.99 51.67 52.31 52.52 53.35 57.44
50.63 50.34 50.48 50.67 50.71 50.43 50.52 50.76 50.93 51.70 52.34 52.55 52.60 52.53 51.73 50.58 49.91 48.63 51.19 49.54 50.54 45.58 42.55 36.58 38.04 42.04 45.44 42.09 40.21 43.12 39.65 40.24 39.11 37.01 37.50 36.66 38.72 37.30 32.55 38.66 40.84 41.96 43.71 44.08 45.26 46.04 45.27 47.04 48.23 49.16 51.39 52.97 53.03 55.74
50.30 50.23 50.06 50.00 50.11 50.18 50.69 50.90 51.61 52.37 52.51 52.15 52.48 52.19 53.24 49.58 47.46 48.04 50.81 49.61 49.64 44.31 36.58 35.45 34.20 35.11 43.79 42.89 45.39 41.90 40.73 34.51 39.26 35.06 34.78 37.42 34.17 32.56 36.42 37.05 37.33 43.00 42.98 42.06 44.57 45.41 45.14 44.57 46.03 49.36 51.32 51.79 56.36 58.67
50.44 49.86 49.90 49.95 49.92 50.65 51.20 51.65 52.36 52.32 51.96 52.60 51.80 52.24 47.40 48.80 51.99 50.28 46.16 41.86 42.10 40.86 38.39 33.11 36.40 34.36 39.62 41.50 41.34 40.97 42.83 37.52 35.60 37.37 40.70 34.18 33.47 38.67 43.18 44.73 46.24 50.89 54.13 47.35 43.59 43.54 46.94 48.36 48.65 48.83 50.93 56.17 56.93 57.00
50.42 49.91 50.02 50.25 51.03 51.54 51.81 52.12 52.30 52.17 51.10 53.87 52.75 50.12 49.83 52.12 47.72 46.19 43.06 38.47 37.89 36.19 36.95 37.14 37.90 36.19 43.33 38.17 39.72 41.46 38.36 37.12 36.92 39.67 36.93 34.74 34.13 40.13 43.02 43.18 47.27 48.27 51.72 52.83 52.72 52.84 55.37 53.18 52.34 52.45 55.10 56.57 57.61 57.69
50.23 50.25 50.73 51.12 51.32 51.58 51.94 52.26 52.16 55.20 54.75 52.03 50.65 50.65 49.66 49.36 48.65 44.76 42.10 42.46 40.79 40.50 46.48 41.32 43.12 40.51 41.87 44.03 42.01 43.43 39.06 40.34 38.78 46.13 38.31 32.56 38.68 42.82 43.04 43.29 46.02 47.62 48.36 49.35 50.85 53.19 54.76 53.66 53.14 55.84 56.73 57.03 56.91 54.50
50.66 50.72 50.84 51.14 51.36 51.81 52.16 52.11 51.89 51.79 52.03 53.95 52.70 49.41 48.38 47.46 38.88 35.28 33.46 37.46 39.07 45.72 48.52 47.58 45.96 48.11 46.80 45.52 46.23 46.05 41.84 40.52 45.62 37.49 32.20 37.22 43.47 44.69 44.31 44.64 45.06 47.63 47.25 47.73 49.08 50.06 49.61 49.53 50.19 50.98 51.52 54.61 54.79 53.81
50.52 50.77 50.96 51.07 51.52 51.90 52.06 51.78 51.91 52.60 55.31 52.50 47.87 38.76 43.21 41.20 42.83 41.91 42.78 43.77 47.54 47.18 48.06 49.01 48.70 47.99 49.92 46.27 44.84 40.32 43.33 44.66 37.41 32.56 33.82 40.30 42.69 43.69 46.49 46.79 47.98 46.75 46.79 46.23 46.69 47.85 48.34 47.79 46.82 47.87 48.68 49.45 50.96 52.55
50.75 50.78 51.03 52.50 51.89 52.07 52.10 51.63 51.86 59.34 54.53 49.01 48.52 40.21 43.20 46.05 47.05 47.17 48.41 48.04 49.08 49.94 50.53 50.11 50.29 48.79 46.12 44.24 44.39 41.24 39.34 34.38 35.02 33.80 38.12 42.31 43.85 44.94 44.84 45.79 46.25 47.51 47.97 48.40 47.07 46.00 46.41 47.43 46.75 45.99 46.57 47.79 48.65 48.96
50.91 51.23 55.57 51.32 51.78 51.92 51.64 55.96 58.53 58.25 54.08 49.89 48.04 46.08 47.19 46.25 45.83 46.67 46.94 46.95 49.73 50.54 54.27 51.92 46.83 44.53 42.34 42.06 38.30 35.07 35.56 33.41 35.51 38.55 42.74 44.02 45.31 45.64 45.58 45.89 46.53 47.10 48.10 48.10 48.85 48.48 47.13 46.23 46.69 46.46 46.77 46.46 46.06 47.08
50.27 57.46 51.34 51.40 51.44 51.87 52.83 59.03 57.15 52.10 50.17 47.81 47.03 49.62 48.51 47.72 46.90 47.23 47.83 47.12 50.80 48.50 45.36 46.20 40.00 38.94 44.94 39.53 36.42 38.99 36.26 36.43 38.72 43.30 45.21 45.25 44.42 45.51 46.78 46.13 46.18 46.87 46.58 47.61 48.38 49.50 49.07 48.78 48.35 47.58 46.09 47.23 47.29 46.11
56.33 56.97 52.68 51.49 52.07 56.27 59.77 58.10 53.93 50.63 46.34 50.37 47.58 48.34 49.58 49.26 47.62 47.72 48.40 48.51 47.80 47.08 45.75 41.58 44.34 39.26 37.05 34.41 36.01 40.67 42.98 44.90 46.04 45.97 45.47 45.80 46.56 47.19 47.01 46.47 46.55 47.23 47.08 47.24 48.39 48.78 48.29 47.84 47.51 46.53 46.64 47.97 48.19 48.60
53.90 53.29 51.30 51.03 53.03 55.88 55.29 54.63 55.38 48.10 50.04 52.36 53.00 52.11 50.85 49.76 49.93 49.49 48.89 48.81 48.57 48.43 47.26 44.36 39.94 38.31 38.58 40.86 40.56 41.96 43.28 44.15 44.27 45.41 45.94 46.99 46.99 46.40 46.09 46.02 46.30 46.51 46.69 46.89 46.23 46.60 47.28 48.01 47.71 47.61 47.08 46.45 45.54 46.12
50.61 50.70 51.18 52.21 53.34 57.10 51.73 53.57 57.25 51.50 49.97 51.32 53.33 52.50 51.34 49.94 49.58 49.08 48.48 47.90 46.43 45.37 42.65 40.66 40.02 41.27 41.19 42.10 43.22 42.88 43.40 44.53 44.48 42.70 43.82 44.74 45.44 46.06 45.37 45.02 44.21 44.74 44.50 45.84 46.68 44.18 46.37 45.40 46.08 46.90 46.91 45.64 44.80 43.28
53.64 56.87 54.53 57.04 60.04 58.31 55.71 55.15 53.46 53.47 52.52 51.54 52.76 53.28 52.01 53.41 49.25 47.16 46.44 48.32 45.12 43.15 41.40 43.60 43.37 44.18 46.00 45.62 45.05 44.60 43.99 44.06 42.56 42.40 41.69 41.73 44.03 44.26 44.06 44.20 44.84 44.21 43.00 43.12 42.84 43.72 44.52 45.64 46.24 46.24 45.02 44.97 45.87 45.71
58.07 52.55 59.15 60.07 57.27 55.57 56.07 56.53 54.64 55.08 53.90 53.27 53.48 53.88 51.07 49.29 48.25 47.46 48.89 45.67 44.62 45.27 46.16 45.65 45.32 45.75 45.25 44.40 44.62 44.89 44.68 45.04 44.51 43.51 42.02 42.35 41.60 41.69 42.09 42.79 42.74 42.46 42.75 43.04 43.62 43.28 43.63 44.16 45.40 45.94 45.85 45.48 44.62 43.97
53.88 55.76 58.86 57.69 53.65 49.98 49.04 57.65 52.20 53.36 48.83 50.78 52.87 49.03 49.65 49.50 50.78 51.36 46.78 47.92 47.49 49.69 50.51 49.43 47.91 47.43 45.84 46.31 47.02 45.25 45.18 44.14 42.59 42.24 42.17 42.40 43.11 42.72 42.48 42.75 42.99 41.96 41.96 42.53 43.86 43.47 43.13 40.90 43.24 44.06 44.44 44.40 44.13 43.62
50.90 55.74 53.39 53.43 53.81 48.02 54.69 51.69 54.76 53.23 53.18 50.76 49.10 45.57 47.56 49.06 52.08 48.28 43.52 46.63 47.49 51.26 51.07 49.58 48.19 46.16 46.45 45.66 45.00 43.92 43.77 44.23 43.19 42.96 42.56 41.81 41.29 41.90 42.75 42.46 42.83 43.01 43.43 43.77 43.26 43.09 43.19 43.08 40.86 43.18 42.92 42.44 42.01 41.61
48.23 48.64 51.02 40.77 53.97 50.34 47.49 47.63 48.07 49.30 46.04 48.32 46.23 46.64 49.26 51.22 46.53 44.26 41.97 45.41 47.57 47.82 48.93 50.94 49.47 48.35 45.36 46.33 46.36 44.63 44.88 43.57 41.89 40.97 41.97 42.01 41.63 42.01 41.91 42.68 43.08 42.74 43.36 42.55 42.18 42.05 42.05 42.47 42.25 41.82 41.22 40.82 40.98 40.67
42.19 51.68 46.76 50.41 51.70 48.91 49.62 44.70 45.14 45.30 47.44 46.69 47.89 52.19 51.87 47.96 41.54 39.38 45.04 47.75 48.12 48.40 48.25 47.91 47.08 46.60 46.99 46.25 44.24 43.60 42.93 44.16 43.02 41.39 41.67 41.89 41.27 40.24 39.66 39.45 39.76 41.05 43.23 43.10 42.47 41.46 41.35 41.45 40.92 40.38 40.43 39.69 36.85 40.19
44.25 48.82 54.23 57.12 55.61 53.97 51.67 51.94 51.70 48.77 45.40 45.63 49.68 48.19 47.05 40.64 40.29 45.29 48.44 50.06 50.93 51.15 52.04 51.06 48.95 47.06 45.31 44.83 44.64 45.16 45.11 44.48 42.89 41.91 42.75 42.69 42.64 42.40 41.16 39.46 38.77 40.77 42.58 43.17 42.72 41.83 41.04 40.85 40.62 40.55 40.51 41.47 41.50 41.35
53.49 52.96 49.15 52.48 52.88 54.60 48.89 49.56 47.53 45.69 47.73 51.30 50.34 44.12 42.63 42.86 44.29 49.54 51.21 52.43 53.32 51.79 50.06 49.26 48.81 47.65 45.87 45.11 45.24 45.93 45.16 45.56 44.17 44.71 45.49 44.69 44.98 43.21 42.75 42.88 42.89 36.59 41.74 42.56 41.96 42.75 42.07 41.84 41.36 41.13 40.80 40.90 41.60 42.68
52.72 55.10 53.61 51.07 51.73 51.86 51.10 49.83 50.22 53.19 53.87 51.20 48.38 47.87 48.01 51.60 52.19 53.17 53.01 53.55 54.05 51.23 47.01 46.23 45.89 46.08 45.18 45.70 45.99 46.71 46.01 43.95 41.34 38.97 38.27 38.75 39.46 40.46 42.87 42.80 42.86 43.12 43.21 43.17 33.85 37.72 40.36 40.39 40.87 41.09 41.42 41.37 41.45 41.30
53.67 55.94 52.55 50.90 49.70 49.91 54.02 54.94 53.82 55.65 55.04 54.25 54.23 52.34 52.25 52.72 53.40 54.56 53.98 53.00 51.37 47.70 46.76 46.23 46.06 46.96 45.67 44.85 44.39 44.74 45.81 45.24 43.79 41.30 39.01 38.32 39.32 41.98 42.46 42.22 42.13 42.73 42.73 42.00 41.45 42.28 36.60 40.49 40.01 40.81 39.92 40.32 40.25 40.05
57.72 55.40 52.69 53.38 51.89 56.01 56.72 57.18 56.26 55.35 54.22 53.01 54.33 51.38 52.60 53.29 53.16 52.25 51.90 51.47 48.59 45.92 45.19 43.80 44.87 46.28 45.57 44.18 42.90 41.90 41.87 43.93 43.47 43.06 42.50 42.80 42.38 41.98 41.82 41.88 42.04 42.08 41.92 41.44 40.77 40.52 39.93 40.05 39.53 39.23 38.65 38.54 38.88 38.52
55.63 53.75 53.29 50.77 53.31 56.51 55.67 54.30 54.68 53.30 54.39 52.85 53.16 53.66 52.97 51.31 49.46 50.17 49.57 48.37 45.13 44.85 41.93 46.43 45.84 44.14 45.50 45.70 45.34 44.88 34.33 44.67 44.30 43.87 42.84 42.41 42.18 42.41 42.44 42.38 41.56 41.41 41.02 40.61 40.64 40.41 39.85 38.53 37.97 37.81 37.69 38.07 38.33 38.76
54.82 54.88 54.43 53.59 53.49 51.95 54.08 53.05 52.12 51.50 52.69 52.50 52.51 52.66 52.42 50.72 47.64 48.46 49.03 49.70 49.02 47.81 47.18 46.44 46.31 46.10 45.98 45.09 44.50 43.69 41.06 44.16 39.20 34.87 35.83 34.68 33.21 36.62 41.26 41.45 40.99 40.89 40.14 39.48 39.51 39.43 39.17 38.94 38.85 39.17 38.80 38.91 39.19 39.83